[[{"header":{"parameterUnit":"m.s-1","parameterCategory":1,"la1":30.6,"la2":29.2853,"lo1":-89.7004,"lo2":-87.6739,"dy":0.0162,"dx":0.0183,"nx":112,"ny":82,"refTime":"2023-07-01T06:00:00:Z","depth":0,"parameterNumber":2,"parameterNumberName":"U-component_of_WINDS"},"data":[0.0,0.0,0.0,0.0,0.0,0.0,0.0,0.0,0.0,0.0,0.0,0.0,0.0,0.0,0.0,0.0,0.0,0.0,0.0,0.0,0.0,0.0,0.0,0.0,0.0,0.0,0.0,0.0,0.0,0.0,0.0,0.0,0.0,0.0,0.0,0.0,0.0,0.0,0.0,0.0,0.0,0.0,0.0,0.0,0.0,0.0,0.0,0.0,0.0,0.0,0.0,0.0,0.0,0.0,0.0,0.0,0.0,0.0,0.0,0.0,0.0,0.0,0.0,0.0,0.0,0.0,0.0,0.0,0.0,0.0,0.0,0.0,0.0,0.0,0.0,0.0,0.0,0.0,0.0,0.0,0.0,0.0,0.0,0.0,0.0,0.0,0.0,0.0,0.0,0.0,-3.7422,-3.9178,-3.9202,-3.9045,-3.8881,-3.8515,-3.8052,-3.7542,0.0,0.0,0.0,0.0,0.0,0.0,0.0,0.0,0.0,0.0,0.0,0.0,0.0,0.0,0.0,0.0,0.0,0.0,0.0,0.0,0.0,0.0,0.0,0.0,0.0,0.0,0.0,0.0,0.0,0.0,0.0,0.0,0.0,0.0,0.0,0.0,0.0,0.0,0.0,0.0,0.0,0.0,0.0,0.0,0.0,0.0,0.0,0.0,0.0,0.0,0.0,0.0,0.0,0.0,0.0,0.0,0.0,0.0,0.0,0.0,0.0,0.0,0.0,0.0,0.0,0.0,0.0,0.0,0.0,0.0,0.0,0.0,0.0,0.0,0.0,0.0,0.0,0.0,0.0,0.0,0.0,0.0,0.0,0.0,0.0,0.0,0.0,0.0,0.0,0.0,0.0,0.0,0.0,0.0,0.0,0.0,0.0,0.0,0.0,0.0,0.0,0.0,0.0,0.0,-3.7344,-3.8961,-3.9129,-3.9007,-3.875,-3.8368,-3.7966,-3.7542,0.0,0.0,0.0,0.0,0.0,0.0,0.0,0.0,0.0,0.0,0.0,0.0,0.0,0.0,0.0,0.0,0.0,0.0,0.0,0.0,0.0,0.0,0.0,0.0,0.0,0.0,0.0,0.0,0.0,0.0,0.0,0.0,0.0,0.0,0.0,0.0,0.0,0.0,0.0,0.0,0.0,0.0,0.0,0.0,0.0,0.0,0.0,0.0,0.0,0.0,0.0,0.0,0.0,0.0,0.0,0.0,0.0,0.0,0.0,0.0,0.0,0.0,0.0,0.0,0.0,0.0,0.0,0.0,0.0,0.0,0.0,0.0,0.0,0.0,0.0,0.0,0.0,0.0,0.0,0.0,0.0,0.0,0.0,0.0,0.0,0.0,0.0,0.0,0.0,0.0,0.0,0.0,0.0,0.0,0.0,0.0,0.0,0.0,0.0,0.0,0.0,0.0,0.0,-3.6988,-3.7711,-3.8877,-3.8921,-3.8792,-3.8546,-3.8204,-3.7774,-3.7301,-3.5384,0.0,0.0,0.0,0.0,0.0,0.0,0.0,0.0,0.0,0.0,0.0,0.0,0.0,0.0,0.0,0.0,0.0,0.0,0.0,0.0,0.0,0.0,0.0,0.0,0.0,0.0,0.0,0.0,0.0,0.0,0.0,0.0,0.0,0.0,0.0,0.0,0.0,0.0,0.0,0.0,0.0,0.0,0.0,0.0,0.0,0.0,0.0,0.0,0.0,0.0,0.0,0.0,0.0,0.0,0.0,0.0,0.0,0.0,0.0,0.0,0.0,0.0,0.0,0.0,0.0,0.0,0.0,0.0,0.0,0.0,0.0,0.0,0.0,0.0,0.0,0.0,0.0,0.0,0.0,0.0,0.0,0.0,0.0,0.0,0.0,0.0,0.0,0.0,0.0,0.0,0.0,0.0,0.0,0.0,0.0,0.0,0.0,0.0,0.0,0.0,0.0,0.0,-3.7183,-3.7995,-3.8759,-3.875,-3.8596,-3.835,-3.8036,-3.7613,-3.7091,-3.5192,0.0,0.0,0.0,0.0,0.0,0.0,0.0,0.0,0.0,0.0,0.0,0.0,0.0,0.0,0.0,0.0,0.0,0.0,0.0,0.0,0.0,0.0,0.0,0.0,0.0,0.0,0.0,0.0,0.0,0.0,0.0,0.0,0.0,0.0,0.0,0.0,0.0,0.0,0.0,0.0,0.0,0.0,0.0,0.0,0.0,0.0,0.0,0.0,0.0,0.0,0.0,0.0,0.0,0.0,0.0,0.0,0.0,0.0,0.0,0.0,0.0,0.0,0.0,0.0,0.0,0.0,0.0,0.0,0.0,0.0,0.0,0.0,0.0,0.0,0.0,0.0,0.0,0.0,0.0,0.0,0.0,0.0,0.0,0.0,0.0,0.0,0.0,0.0,0.0,0.0,0.0,0.0,0.0,0.0,0.0,0.0,0.0,0.0,0.0,0.0,0.0,0.0,-3.7127,-3.7966,-3.8646,-3.8707,-3.8546,-3.8135,-3.7862,-3.7468,-3.6939,-3.5035,0.0,0.0,0.0,0.0,0.0,0.0,0.0,0.0,0.0,0.0,0.0,0.0,0.0,0.0,0.0,0.0,0.0,0.0,0.0,0.0,0.0,0.0,0.0,0.0,0.0,0.0,0.0,0.0,0.0,0.0,0.0,0.0,0.0,0.0,0.0,0.0,0.0,0.0,0.0,0.0,0.0,0.0,0.0,0.0,0.0,0.0,0.0,0.0,0.0,0.0,0.0,0.0,0.0,0.0,0.0,0.0,0.0,0.0,0.0,0.0,0.0,0.0,0.0,0.0,0.0,0.0,0.0,0.0,0.0,0.0,0.0,0.0,0.0,0.0,0.0,0.0,0.0,0.0,0.0,0.0,0.0,0.0,0.0,0.0,0.0,0.0,0.0,0.0,0.0,0.0,0.0,0.0,0.0,0.0,0.0,0.0,0.0,0.0,0.0,0.0,0.0,0.0,-3.6417,-3.7113,-3.8368,-3.8401,-3.8238,-3.802,-3.7649,-3.7223,-3.6719,0.0,0.0,0.0,0.0,0.0,0.0,0.0,0.0,0.0,0.0,0.0,0.0,0.0,0.0,0.0,0.0,0.0,0.0,0.0,0.0,0.0,0.0,0.0,0.0,0.0,0.0,0.0,0.0,0.0,0.0,0.0,0.0,0.0,0.0,0.0,0.0,0.0,0.0,0.0,0.0,0.0,0.0,0.0,0.0,0.0,0.0,0.0,0.0,0.0,0.0,0.0,0.0,0.0,0.0,0.0,0.0,0.0,0.0,0.0,0.0,0.0,0.0,0.0,0.0,0.0,0.0,0.0,0.0,0.0,0.0,0.0,0.0,0.0,0.0,0.0,0.0,0.0,0.0,0.0,0.0,0.0,0.0,0.0,0.0,0.0,0.0,0.0,0.0,0.0,0.0,0.0,0.0,0.0,0.0,0.0,0.0,0.0,0.0,0.0,0.0,0.0,0.0,-3.5654,-3.5903,-3.6552,-3.8122,-3.8119,-3.7967,-3.7828,-3.7447,-3.7048,-3.6591,0.0,0.0,0.0,0.0,0.0,0.0,0.0,0.0,0.0,0.0,0.0,0.0,0.0,0.0,0.0,0.0,0.0,0.0,0.0,0.0,0.0,0.0,0.0,0.0,0.0,0.0,0.0,0.0,0.0,0.0,0.0,0.0,0.0,0.0,0.0,0.0,0.0,0.0,0.0,0.0,0.0,0.0,0.0,0.0,0.0,0.0,0.0,0.0,0.0,0.0,0.0,0.0,0.0,0.0,0.0,0.0,0.0,0.0,0.0,0.0,0.0,0.0,0.0,0.0,0.0,0.0,0.0,0.0,0.0,0.0,0.0,0.0,0.0,0.0,0.0,0.0,0.0,0.0,0.0,0.0,0.0,0.0,0.0,0.0,0.0,0.0,0.0,0.0,0.0,0.0,0.0,0.0,0.0,0.0,0.0,0.0,0.0,0.0,0.0,0.0,0.0,0.0,-3.5385,-3.5716,-3.6349,-3.7855,-3.7951,-3.781,-3.7631,-3.7299,-3.6913,0.0,0.0,0.0,0.0,0.0,0.0,0.0,0.0,0.0,0.0,0.0,0.0,0.0,0.0,0.0,0.0,0.0,0.0,0.0,0.0,0.0,0.0,0.0,0.0,0.0,0.0,0.0,0.0,0.0,0.0,0.0,0.0,0.0,0.0,0.0,0.0,0.0,0.0,0.0,0.0,0.0,0.0,0.0,0.0,0.0,0.0,0.0,0.0,0.0,0.0,0.0,0.0,0.0,0.0,0.0,0.0,0.0,0.0,0.0,0.0,0.0,0.0,0.0,0.0,0.0,0.0,0.0,0.0,0.0,0.0,0.0,0.0,0.0,0.0,0.0,0.0,0.0,0.0,0.0,0.0,0.0,0.0,0.0,0.0,0.0,0.0,0.0,0.0,0.0,0.0,0.0,0.0,0.0,0.0,0.0,0.0,0.0,0.0,0.0,0.0,0.0,0.0,0.0,-3.5325,-3.5508,-3.6085,-3.7613,-3.7631,-3.7466,-3.7261,-3.6935,-3.6591,-3.6191,0.0,0.0,0.0,0.0,0.0,0.0,0.0,0.0,0.0,0.0,0.0,0.0,0.0,0.0,0.0,0.0,0.0,0.0,0.0,0.0,0.0,0.0,0.0,0.0,0.0,0.0,0.0,0.0,0.0,0.0,0.0,0.0,0.0,0.0,0.0,0.0,0.0,0.0,0.0,0.0,0.0,0.0,0.0,0.0,0.0,0.0,0.0,0.0,0.0,0.0,0.0,0.0,0.0,0.0,0.0,0.0,0.0,0.0,0.0,0.0,0.0,0.0,0.0,0.0,0.0,0.0,0.0,0.0,0.0,0.0,0.0,0.0,0.0,0.0,0.0,0.0,0.0,0.0,0.0,0.0,0.0,0.0,0.0,0.0,0.0,0.0,0.0,0.0,0.0,0.0,0.0,0.0,0.0,0.0,0.0,0.0,0.0,0.0,0.0,0.0,0.0,0.0,-3.513,-3.5525,-3.615,-3.7343,-3.7337,-3.7147,-3.6895,-3.6615,-3.6343,-3.5932,0.0,0.0,0.0,0.0,0.0,0.0,0.0,0.0,0.0,0.0,0.0,0.0,0.0,0.0,0.0,0.0,0.0,0.0,0.0,0.0,0.0,0.0,0.0,0.0,0.0,0.0,0.0,0.0,0.0,0.0,0.0,0.0,0.0,0.0,0.0,0.0,0.0,0.0,0.0,0.0,0.0,0.0,0.0,0.0,0.0,0.0,0.0,0.0,0.0,0.0,0.0,0.0,0.0,0.0,0.0,0.0,0.0,0.0,0.0,0.0,0.0,0.0,0.0,0.0,0.0,0.0,0.0,0.0,0.0,0.0,0.0,0.0,0.0,0.0,0.0,0.0,0.0,0.0,0.0,0.0,0.0,0.0,0.0,0.0,0.0,0.0,0.0,0.0,0.0,0.0,0.0,0.0,0.0,0.0,0.0,0.0,0.0,0.0,0.0,0.0,0.0,0.0,-3.4854,-3.5614,-3.63,-3.6981,-3.7009,-3.6851,-3.6574,-3.6385,-3.6105,-3.5773,0.0,0.0,0.0,0.0,0.0,0.0,0.0,0.0,0.0,0.0,0.0,0.0,0.0,0.0,0.0,0.0,0.0,0.0,0.0,0.0,0.0,0.0,0.0,0.0,0.0,0.0,0.0,0.0,0.0,0.0,0.0,0.0,0.0,0.0,0.0,0.0,0.0,0.0,0.0,0.0,0.0,0.0,0.0,0.0,0.0,0.0,0.0,0.0,0.0,0.0,0.0,0.0,0.0,0.0,0.0,0.0,0.0,0.0,0.0,0.0,-4.2298,-4.1742,0.0,0.0,0.0,0.0,0.0,0.0,0.0,0.0,0.0,0.0,0.0,0.0,0.0,0.0,0.0,0.0,0.0,0.0,0.0,0.0,0.0,0.0,0.0,0.0,0.0,0.0,0.0,0.0,0.0,0.0,0.0,0.0,0.0,0.0,0.0,0.0,0.0,0.0,0.0,0.0,-3.4656,-3.5337,-3.6015,-3.6764,-3.669,-3.6527,-3.6385,-3.6088,-3.5773,-3.5429,-3.4343,0.0,0.0,0.0,0.0,0.0,0.0,0.0,0.0,0.0,0.0,0.0,0.0,0.0,0.0,0.0,0.0,0.0,0.0,0.0,0.0,0.0,0.0,0.0,0.0,0.0,0.0,0.0,0.0,0.0,0.0,0.0,0.0,0.0,0.0,0.0,0.0,0.0,0.0,0.0,0.0,0.0,0.0,0.0,0.0,0.0,0.0,0.0,0.0,0.0,0.0,0.0,0.0,0.0,0.0,0.0,0.0,0.0,0.0,0.0,-4.3474,-4.2797,0.0,0.0,0.0,0.0,0.0,0.0,0.0,0.0,0.0,0.0,0.0,0.0,0.0,0.0,0.0,0.0,0.0,0.0,0.0,0.0,0.0,0.0,0.0,0.0,0.0,0.0,0.0,0.0,0.0,0.0,0.0,0.0,0.0,0.0,0.0,0.0,0.0,0.0,0.0,0.0,-3.4934,-3.561,-3.6157,-3.6492,-3.636,-3.6191,-3.5958,-3.5728,-3.5412,-3.5152,-3.4393,0.0,0.0,0.0,0.0,0.0,0.0,0.0,0.0,0.0,0.0,0.0,0.0,0.0,0.0,0.0,0.0,0.0,0.0,0.0,0.0,0.0,0.0,0.0,0.0,0.0,0.0,0.0,0.0,0.0,0.0,0.0,0.0,0.0,0.0,0.0,0.0,0.0,0.0,0.0,0.0,0.0,0.0,0.0,0.0,0.0,0.0,0.0,0.0,0.0,0.0,0.0,0.0,0.0,-4.6541,-4.6396,-4.6118,-4.6118,-4.5963,-4.5623,-4.4183,-4.3393,-4.3119,-4.2966,0.0,0.0,0.0,0.0,0.0,0.0,0.0,0.0,0.0,0.0,0.0,0.0,0.0,0.0,0.0,0.0,0.0,0.0,0.0,0.0,0.0,0.0,-3.8978,-3.9456,-3.9534,-3.9181,-3.7853,0.0,0.0,0.0,0.0,0.0,0.0,0.0,0.0,0.0,0.0,0.0,-3.5244,-3.5877,-3.6335,-3.614,-3.5975,-3.58,-3.5577,-3.5367,-3.5105,-3.4787,-3.4448,-3.3891,0.0,0.0,0.0,0.0,0.0,0.0,0.0,0.0,0.0,0.0,0.0,0.0,0.0,0.0,0.0,0.0,0.0,0.0,0.0,0.0,0.0,0.0,0.0,0.0,0.0,0.0,0.0,0.0,0.0,0.0,0.0,0.0,-3.8642,-3.9521,0.0,0.0,0.0,0.0,0.0,0.0,0.0,0.0,0.0,0.0,0.0,0.0,0.0,-4.6455,-4.7142,-4.7262,-4.7676,-4.837,-4.837,-4.7883,-4.703,-4.703,-4.6543,-4.568,-4.5468,0.0,-4.402,-4.3885,0.0,0.0,0.0,0.0,0.0,0.0,0.0,0.0,0.0,0.0,0.0,0.0,0.0,0.0,0.0,0.0,0.0,0.0,0.0,0.0,0.0,0.0,-3.9451,-3.937,-3.9346,-3.921,-3.8754,-3.8233,-3.7579,-3.6748,-3.6301,-3.5842,0.0,0.0,0.0,0.0,0.0,0.0,-3.4966,-3.5488,-3.5861,-3.5861,-3.5622,-3.5441,-3.5337,-3.5088,-3.4804,-3.4399,-3.4201,-3.3866,-3.3271,-3.2494,0.0,0.0,0.0,0.0,0.0,0.0,0.0,0.0,0.0,0.0,0.0,0.0,0.0,0.0,0.0,0.0,0.0,0.0,0.0,0.0,0.0,0.0,0.0,0.0,0.0,0.0,0.0,0.0,0.0,-3.9349,-4.0234,-4.1097,-4.1641,-4.2247,0.0,0.0,0.0,0.0,0.0,0.0,0.0,0.0,0.0,-4.5731,-4.658,-4.719,-4.7493,-4.7995,-4.8385,-4.8701,-4.8701,-4.8174,-4.7204,-4.7204,-4.664,-4.57,-4.57,-4.5389,-4.4882,-4.4785,-4.4431,-4.3977,0.0,0.0,0.0,0.0,-4.2816,-4.2247,-4.2143,-4.1986,-4.1713,-4.1141,0.0,0.0,0.0,0.0,0.0,0.0,0.0,-3.9359,0.0,-4.0147,-4.0127,-4.0394,-4.0412,-4.0079,-3.8989,-3.8538,-3.813,-3.7299,-3.6586,-3.6045,-3.5719,-3.5497,0.0,0.0,0.0,-3.5128,-3.4677,-3.4871,-3.4817,-3.4334,-3.4046,-3.3868,-3.3839,-3.3472,-3.3353,-3.3567,-3.3353,-3.3243,-3.3293,-3.2814,-3.2376,0.0,0.0,0.0,0.0,0.0,0.0,0.0,0.0,0.0,0.0,0.0,0.0,0.0,0.0,0.0,0.0,0.0,0.0,0.0,0.0,0.0,0.0,0.0,0.0,0.0,0.0,0.0,0.0,-4.0902,-4.1638,-4.2532,-4.3208,-4.3715,0.0,0.0,0.0,0.0,0.0,0.0,-4.533,-4.5957,-4.6307,-4.6303,-4.6922,-4.7334,-4.7504,-4.8137,-4.8555,-4.8699,-4.8701,-4.8185,-4.7236,-4.7204,-4.664,-4.57,-4.57,-4.5582,-4.54,-4.5319,-4.5213,-4.5057,-4.4815,-4.4282,-4.3697,-4.4148,-4.3774,-4.3021,-4.2945,-4.275,-4.2438,-4.1663,-4.1088,-4.0673,-4.04,0.0,0.0,0.0,0.0,-3.937,-4.0063,-4.0147,-4.0158,-4.0558,-4.0589,-4.0186,-3.8791,-3.8305,-3.7944,-3.7249,-3.6456,-3.5888,-3.5888,-3.5773,0.0,-3.5684,-3.5425,-3.5015,-3.4387,-3.4108,-3.3728,-3.3044,-3.2741,-3.2607,-3.2545,-3.218,-3.219,-3.2579,-3.2492,-3.2574,-3.2903,-3.2841,-3.2664,-3.2287,0.0,0.0,0.0,0.0,0.0,0.0,0.0,0.0,0.0,0.0,0.0,0.0,0.0,0.0,0.0,0.0,0.0,0.0,0.0,0.0,0.0,0.0,0.0,0.0,0.0,0.0,0.0,0.0,0.0,-4.3419,-4.3576,0.0,0.0,0.0,0.0,-4.6105,-4.6206,-4.6234,-4.6229,-4.6289,-4.6308,-4.6307,-4.6339,-4.6736,-4.7487,-4.7543,-4.7944,-4.8702,-4.8699,-4.8214,-4.7292,-4.7236,-4.664,-4.57,-4.57,-4.5582,-4.54,-4.5319,-4.517,-4.4967,-4.477,-4.456,-4.4355,-4.4296,-4.4085,-4.3749,-4.3749,-4.3582,-4.3321,-4.3141,-4.2304,-4.1169,-4.0298,-3.9394,0.0,0.0,-3.84,-3.8357,-3.9171,-3.9231,-3.9034,-3.8787,-3.876,-3.8636,-3.8391,-3.7563,-3.6741,-3.618,-3.5817,-3.5622,-3.5622,0.0,-3.5337,-3.5337,-3.4734,-3.422,-3.4034,-3.3311,-3.2746,-3.2656,-3.2521,-3.2321,-3.2057,-3.201,-3.1838,-3.15,-3.1956,-3.2116,-3.1867,-3.2346,-3.2428,-3.2053,-3.1996,0.0,0.0,0.0,0.0,0.0,0.0,0.0,0.0,0.0,0.0,0.0,0.0,0.0,0.0,0.0,0.0,0.0,0.0,0.0,0.0,0.0,0.0,0.0,0.0,0.0,0.0,0.0,0.0,-4.4249,-4.4869,0.0,-4.5709,-4.5742,-4.5877,-4.6221,-4.6273,-4.6303,-4.6293,-4.6305,-4.6308,-4.6308,-4.683,-4.7249,-4.751,-4.805,-4.847,-4.8702,-4.8699,-4.8214,-4.7295,-4.7229,-4.6673,-4.5765,-4.5715,-4.5582,-4.54,-4.5319,-4.517,-4.4967,-4.4789,-4.4578,-4.4383,-4.4218,-4.4023,-4.3771,-4.3652,-4.3463,-4.3142,-4.2303,-4.1335,-4.0423,-4.0,-3.9558,-3.9186,-3.9047,-3.8866,-3.8793,-3.9048,-3.8921,-3.8728,-3.8639,-3.8522,-3.822,-3.7466,-3.7068,-3.6552,-3.5701,-3.5458,-3.5429,-3.5429,-3.5182,-3.4875,-3.4409,-3.3955,-3.3367,-3.2397,-3.1989,-3.1616,-3.1112,-3.0871,-3.0677,-3.0571,-3.0406,-3.0384,-3.0608,-3.0732,-3.1052,-3.1632,-3.1858,-3.1982,-3.1981,-3.1996,-3.1826,0.0,0.0,0.0,0.0,0.0,0.0,0.0,0.0,0.0,0.0,0.0,0.0,0.0,0.0,0.0,0.0,0.0,0.0,0.0,0.0,0.0,0.0,0.0,0.0,0.0,-4.3291,-4.4167,-4.5052,-4.5696,-4.6085,-4.613,-4.6174,-4.6203,-4.6189,-4.6236,-4.6288,-4.63,-4.6295,-4.6305,-4.6308,-4.6854,-4.7141,-4.7107,-4.765,-4.7897,-4.7866,-4.7832,-4.7495,-4.6881,-4.6795,-4.6242,-4.5356,-4.5326,-4.5004,-4.4557,-4.4459,-4.4312,-4.4128,-4.426,-4.3995,-4.3483,-4.3349,-4.3157,-4.2922,-4.2671,-4.2465,-4.2141,-4.1284,-4.0554,-3.9914,-3.9473,-3.9244,-3.9012,-3.8585,-3.8391,-3.8265,-3.8138,-3.7923,-3.7792,-3.7703,-3.7524,-3.7194,-3.6518,-3.6308,-3.5933,-3.4964,-3.4968,-3.5068,-3.4864,-3.4565,-3.4129,-3.3466,-3.2935,-3.2351,-3.1356,-3.0969,-3.0598,-3.0082,-2.9842,-2.9694,-2.9633,-2.938,-2.9357,-2.9738,-2.9814,-3.0198,-3.0897,-3.1272,-3.152,-3.1647,-3.1762,-3.1697,-3.1482,0.0,0.0,0.0,0.0,0.0,0.0,0.0,0.0,0.0,0.0,0.0,0.0,0.0,0.0,0.0,0.0,0.0,0.0,0.0,0.0,0.0,0.0,0.0,-4.3245,-4.416,-4.4994,-4.5808,-4.5964,-4.5997,-4.5997,-4.6123,-4.6193,-4.6196,-4.6196,-4.6226,-4.6296,-4.63,-4.6293,-4.6307,-4.6308,-4.6307,-4.6301,-4.6202,-4.6162,-4.6167,-4.6057,-4.6026,-4.6018,-4.5875,-4.5312,-4.4448,-4.4457,-4.3869,-4.2889,-4.2757,-4.2555,-4.2427,-4.3158,-4.2784,-4.1773,-4.1716,-4.1523,-4.123,-4.0891,-4.0633,-4.0402,-4.0256,-4.007,-3.9736,-3.8756,-3.8373,-3.8038,-3.7061,-3.6766,-3.6643,-3.6326,-3.6199,-3.6088,-3.5793,-3.5616,-3.5509,-3.5424,-3.5224,-3.4758,-3.3935,-3.4336,-3.4601,-3.3889,-3.3524,-3.3137,-3.2449,-3.1745,0.0,-3.1075,-3.0308,-2.9782,-2.9697,-2.9563,-2.9412,-2.9305,-2.9167,-2.9029,-2.8904,-2.9323,-2.958,-2.9596,-3.0622,-3.1128,-3.1025,-3.1324,-3.1482,-3.1482,0.0,0.0,0.0,0.0,0.0,0.0,0.0,0.0,0.0,0.0,0.0,0.0,0.0,0.0,0.0,0.0,0.0,0.0,0.0,0.0,0.0,-4.1266,-4.2163,-4.3115,-4.4059,-4.4937,-4.5744,-4.5893,-4.5953,-4.5997,-4.6017,-4.6095,-4.6193,-4.6196,-4.6203,-4.6236,-4.6273,-4.6309,-4.6303,-4.6308,-4.6307,-4.6301,-4.5643,-4.5312,-4.525,-4.4591,-4.4292,-4.4275,-4.4159,-4.393,-4.3639,-4.3569,-4.331,-4.2889,-4.2757,-4.2252,-4.1598,-4.2289,-4.2258,-4.1792,-4.1678,-4.1329,-4.0924,-4.0842,-4.0218,-3.9482,-3.9409,-3.8793,-3.7975,-3.7724,-3.7422,-3.7131,-3.6818,-3.6643,-3.6381,-3.5638,-3.5359,-3.5095,-3.438,-3.4092,-3.3876,-3.3789,-3.3551,-3.3271,-3.2937,-3.2902,-3.2908,-3.2787,-3.2662,-3.2278,-3.156,-3.1131,0.0,-3.0125,-2.9794,-2.9592,-2.9563,-2.9457,-2.9305,-2.9167,-2.9013,-2.8873,-2.87,-2.8792,-2.9036,-2.9446,-3.0124,-3.083,-3.1554,-3.1507,-3.1482,0.0,0.0,0.0,0.0,0.0,0.0,0.0,0.0,0.0,0.0,0.0,0.0,0.0,0.0,0.0,0.0,0.0,0.0,0.0,0.0,0.0,0.0,-4.1085,-4.1867,-4.245,-4.337,-4.4279,-4.5109,-4.4982,-4.4969,-4.5374,-4.511,-4.4938,-4.5053,-4.5068,-4.5078,-4.5117,-4.5163,-4.5203,-4.5202,-4.5211,-4.5215,-4.5212,-4.4714,-4.4442,-4.4382,-4.3864,-4.3588,-4.3603,-4.3451,-4.3179,-4.2776,-4.2695,-4.2345,-4.1833,-4.1705,-4.1281,0.0,0.0,0.0,0.0,0.0,-4.0173,-3.9786,-3.9786,-3.9277,-3.86,-3.86,-3.7792,-3.6801,-3.6801,-3.6344,-3.5811,-3.5767,-3.5607,-3.5324,-3.4672,-3.4445,-3.4218,-3.3626,-3.3355,-3.3201,-3.3054,-3.2802,-3.2508,-3.2077,-3.1863,0.0,-3.129,-3.144,-3.1345,-3.0632,-3.0338,-2.9945,-2.9299,-2.9086,-2.8997,-2.8997,-2.8846,-2.8805,-2.8997,-2.8873,0.0,0.0,0.0,-2.8876,-2.9644,-2.9938,0.0,0.0,0.0,-3.1482,-3.1482,0.0,0.0,0.0,-3.3993,-3.4637,0.0,0.0,0.0,0.0,0.0,0.0,0.0,0.0,0.0,0.0,0.0,0.0,0.0,0.0,0.0,0.0,-4.0749,-4.1323,-4.1399,-4.2192,-4.3118,-4.4116,-4.368,-4.3581,-4.4374,-4.3788,-4.341,-4.3491,-4.349,-4.3522,-4.3604,-4.3655,0.0,0.0,0.0,-4.3707,-4.3691,-4.3607,-4.3554,-4.3552,-4.3395,-4.3311,-4.3292,-4.317,-4.264,-4.1807,-4.1666,-4.105,-4.0101,-3.9964,-3.9814,-3.9764,-4.0438,-4.0034,-3.9059,-3.8748,-3.8407,-3.8109,-3.8109,0.0,0.0,-3.7629,-3.6881,-3.5969,-3.5969,-3.5254,-3.4466,-3.4425,-3.4233,-3.4019,-3.3659,-3.3536,-3.3413,-3.3094,-3.2949,-3.277,-3.2584,-3.2332,-3.1879,-3.1057,-3.0794,-3.0449,-2.9613,-3.0019,-3.0261,-2.9665,-2.9371,-2.901,-2.843,-2.822,-2.8148,-2.8132,0.0,0.0,-2.8701,-2.8591,-2.8496,-2.8573,-2.8444,-2.8863,-2.9947,-3.0008,-3.0467,-3.1509,-3.1482,-3.1482,-3.1482,-3.2856,-3.3499,-3.3514,-3.4247,-3.4921,0.0,0.0,0.0,0.0,0.0,0.0,0.0,0.0,0.0,0.0,0.0,0.0,0.0,0.0,0.0,-3.9832,-4.0025,-4.0182,-4.0305,-4.0519,-4.1323,-4.3054,-4.3188,-4.3231,-4.3434,-4.3382,-4.3349,-4.3408,-4.3461,-4.3519,-4.3603,-4.3604,-4.3641,-4.3704,-4.3707,-4.37,-4.3691,-4.3006,-4.2646,-4.2646,-4.193,0.0,-4.1505,-4.1412,-4.0876,-4.0006,-3.9928,-3.9316,-3.8373,-3.8242,-3.8023,-3.7888,-3.8517,-3.8109,-3.7195,-3.7026,-3.6754,-3.645,-3.645,-3.6232,-3.5975,-3.5975,-3.5631,-3.5208,-3.5208,-3.483,0.0,-3.4387,-3.4194,-3.3762,-3.3026,-3.2753,-3.2479,-3.1645,-3.1372,-3.1098,-3.031,-2.9955,-2.9517,-2.8715,-2.8461,-2.8288,-2.8049,-2.8581,-2.8957,-2.8774,-2.8115,-2.7599,-2.7471,-2.7359,-2.7288,-2.7186,-2.7142,-2.7277,-2.7782,-2.7798,-2.8,-2.8414,-2.8299,-2.8747,-2.9947,-2.9917,-3.0373,-3.1509,-3.1482,-3.1482,-3.1482,-3.2856,-3.3499,-3.3529,-3.4741,-3.5385,0.0,0.0,0.0,0.0,0.0,0.0,0.0,0.0,0.0,0.0,0.0,-3.8521,-3.8585,0.0,-3.9427,-3.9452,-3.9526,-3.9665,-3.9781,-3.9848,-4.0494,-4.2067,-4.1961,-4.1966,-4.2437,-4.217,-4.1969,-4.2039,-4.2106,-4.2189,-4.2244,-4.2291,-4.2305,-4.2344,-4.2385,-4.2405,-4.2396,-4.1562,-4.1129,-4.1099,-4.0216,-3.9769,-3.9754,-3.968,-3.9364,-3.8896,-3.8793,-3.8444,-3.7943,-3.7729,-3.7262,-3.6715,-3.6961,-3.6943,-3.6731,-3.6545,-3.6305,-3.6054,-3.6024,-3.5779,-3.5508,-3.5508,-3.5005,-3.4376,-3.4376,-3.3863,-3.3239,-3.3239,-3.2738,-3.2055,-3.1585,-3.1151,-3.0586,-2.9967,-2.9805,-2.9627,-2.8986,-2.8688,-2.8412,-2.7972,-2.7786,-2.7664,-2.7531,-2.7458,-2.7512,-2.7812,-2.746,-2.7026,-2.6646,-2.653,-2.6461,-2.6419,-2.6291,-2.6427,-2.7007,-2.7319,-2.7767,-2.8365,-2.8284,-2.8595,-2.9462,-2.9682,-3.0153,-3.1001,-3.1302,-3.1482,-3.1482,-3.2527,-3.317,-3.3514,-3.4517,-3.5175,0.0,0.0,0.0,0.0,0.0,0.0,0.0,-3.676,-3.7374,-3.7503,-3.8077,-3.8579,-3.8725,-3.8873,-3.897,-3.8998,-3.9165,-3.935,-3.9502,-3.9575,-4.0008,-4.1033,-4.0673,-4.0628,-4.1404,-4.0931,-4.0583,-4.0675,-4.0732,-4.0812,-4.0878,-4.0932,-4.0901,-4.0753,-4.0803,-4.0769,-4.06,-3.9957,-3.9609,-3.9566,-3.8846,-3.8506,-3.8505,-3.8435,-3.8274,-3.8026,-3.7735,-3.7552,-3.7463,-3.7217,-3.6616,-3.5853,-3.573,-3.5946,-3.6348,-3.6118,-3.5855,-3.5637,-3.5568,-3.5307,-3.504,-3.504,-3.438,-3.356,-3.3419,-3.2651,-3.1847,-3.1708,-3.0939,-3.0187,-3.0187,-2.9598,-2.8938,-2.8753,-2.8716,-2.8553,-2.8081,-2.7892,-2.7741,-2.7492,-2.738,-2.7219,-2.7032,-2.6494,-2.6294,-2.6888,-2.6794,-2.6483,-2.5882,-2.5705,-2.5623,-2.5654,-2.5446,-2.5629,-2.6435,-2.7026,-2.7688,-2.8365,-2.8284,-2.8442,-2.8976,-2.9516,-3.0003,-3.0492,-3.118,-3.1482,-3.1482,-3.2198,-3.2856,-3.3514,-3.4173,-3.4846,-3.3201,-3.3706,-3.4202,-3.4227,-3.5259,-3.6251,0.0,-3.6916,-3.7524,-3.7666,-3.7807,-3.7964,-3.8168,-3.8332,-3.851,-3.8646,-3.8815,-3.9017,-3.921,-3.9298,-3.9471,-3.9872,-4.0053,-4.0215,-4.0367,-4.04,-4.0444,-4.0519,-4.064,-4.0739,-4.0812,-4.0878,-4.0582,-3.9877,-3.9902,-3.9565,-3.8804,-3.8703,-3.867,-3.873,-3.858,-3.8498,-3.8493,-3.8436,-3.7941,-3.7094,-3.618,-3.5732,-3.5584,-3.5441,-3.5246,-3.5021,-3.4881,-3.4811,-3.4731,-3.4451,-3.4197,-3.3973,-3.3889,-3.3658,-3.3355,-3.3355,-3.3062,-3.2606,-3.1951,-3.1421,-3.0889,-3.0245,-2.9696,-2.933,-2.933,-2.9153,-2.8938,-2.8753,-2.8716,-2.8419,-2.7356,-2.7131,-2.6875,-2.601,-2.5859,-2.5766,-2.5573,-2.547,-2.5568,-2.605,-2.5638,-2.5227,-2.5132,-2.5012,-2.4892,-2.4755,-2.4688,-2.5091,-2.6317,-2.7011,-2.7688,-2.8365,-2.8284,-2.8442,-2.8976,-2.9516,-3.0003,-3.0492,-3.118,-3.1482,-3.1482,-3.2198,-3.2856,-3.3514,-3.4173,-3.4846,-3.202,-3.2634,-3.3263,-3.3752,-3.4676,-3.5654,-3.6068,-3.6536,-3.6882,-3.7017,-3.717,-3.7321,-3.7487,-3.7703,-3.7913,-3.805,-3.83,-3.8585,-3.8826,-3.8998,-3.9219,-3.9452,-3.9647,-3.9848,-4.0118,-4.0234,-4.0342,-4.0427,-4.0539,-4.0626,-4.0739,-4.0308,-3.9947,-3.9649,-3.9208,-3.8837,-3.8497,-3.8043,-3.7823,-3.7849,-3.7301,-3.705,-3.7043,-3.698,-3.6701,-3.6222,-3.5717,-3.5457,-3.5311,-3.4725,-3.4385,-3.4206,-3.3601,-3.3217,-3.3144,-3.3844,-3.3972,-3.3733,-3.3113,-3.2754,-3.2498,-3.1959,-3.1541,-3.1253,-3.092,-3.056,-3.0193,-2.9897,-2.9196,-2.8562,-2.8562,-2.8117,-2.762,-2.7477,-2.7406,-2.725,-2.6517,-2.6339,-2.622,-2.5702,-2.5616,-2.554,-2.5333,-2.5294,-2.5313,-2.5401,-2.5195,-2.5005,-2.5005,-2.4902,-2.4742,-2.4564,-2.4441,-2.476,-2.5672,-2.638,-2.7072,-2.7765,-2.8069,-2.8308,-2.8499,-2.8949,-2.947,-3.0078,-3.0668,-3.1135,-3.1482,-3.175,-3.2273,-3.2931,-3.32,-3.3965,-3.0723,-3.1392,-3.215,-3.3017,-3.3914,-3.4754,-3.5501,-3.5864,-3.6062,-3.6232,-3.6399,-3.662,-3.6856,-3.7055,-3.7321,-3.7504,-3.7827,-3.815,-3.841,-3.8707,-3.8942,-3.9165,-3.9324,-3.9551,-3.9889,-4.0039,-4.0158,-4.0308,-4.0411,-4.0392,-4.0284,-3.9767,-3.929,-3.8889,-3.8319,-3.7936,-3.7779,-3.7199,-3.6911,-3.6923,-3.6309,-3.6007,-3.5991,-3.5671,-3.5482,-3.5359,-3.4997,-3.4795,-3.4672,-3.3963,-3.3576,-3.3386,-3.2673,-3.226,-3.2154,-3.3152,-3.3364,-3.3132,-3.2363,-3.1992,-3.1753,-3.1052,-3.0635,-3.0373,-3.0052,-2.9751,-2.951,-2.9236,-2.8522,-2.7827,-2.781,-2.73,-2.6725,-2.6554,-2.6485,-2.638,-2.599,-2.5917,-2.586,-2.5659,-2.56,-2.5524,-2.5371,-2.5333,-2.5256,-2.5045,-2.5005,-2.5005,-2.5005,-2.4902,-2.4742,-2.4539,-2.44,-2.4636,-2.5256,-2.5949,-2.6641,-2.7349,-2.7915,-2.8235,-2.8186,-2.8677,-2.9206,-2.9848,-3.0373,-3.0964,-3.1655,-3.1655,-3.1985,-3.2631,-3.2631,-3.3292,-2.9278,-3.0077,-3.103,-3.187,-3.2869,-3.3829,-3.4475,-3.4847,-3.5115,-3.5374,-3.5554,-3.5793,-3.6259,-3.6474,-3.6759,-3.7052,-3.7431,-3.781,-3.8068,-3.8332,-3.8603,-3.8862,-3.9073,-3.9245,-3.942,-3.9712,-3.9954,-4.0098,-4.0234,-4.0015,-3.9292,-3.9355,-3.8691,-3.714,-3.7065,-3.6709,-3.5982,-3.5948,-3.5978,-3.6033,-3.6013,-3.5995,-3.597,-3.5061,-3.4593,-3.4489,-3.3577,-3.3128,-3.306,-3.2897,-3.2756,-3.2613,-3.2477,-3.2317,-3.2182,-3.2019,-3.1797,-3.155,-3.1407,-3.12,-3.1002,-3.0844,-3.0664,-3.0339,-2.9396,-2.9052,-2.8741,-2.7836,-2.7407,-2.7201,-2.7074,-2.6959,-2.6826,-2.6554,-2.6485,-2.6415,-2.6063,-2.5954,-2.5844,-2.5738,-2.5659,-2.5562,-2.5432,-2.5355,-2.524,-2.5107,-2.5045,-2.5005,-2.5005,-2.4902,-2.4742,-2.4539,-2.4498,-2.472,-2.5256,-2.5964,-2.6672,-2.7349,-2.8042,-2.8348,-2.8186,-2.8828,-2.9465,-2.9993,-3.0661,-3.1329,-3.1996,-3.1996,-3.233,-3.2983,-3.2983,-3.3332,-2.7678,-2.8526,-2.9357,-2.9853,-3.1105,-3.2406,-3.2828,-3.353,-3.4169,-3.4448,-3.4738,-3.5052,-3.5391,-3.5793,-3.6182,-3.6492,-3.6917,-3.7301,-3.7703,-3.8034,-3.8332,-3.8603,-3.8844,-3.9045,-3.9183,-3.9551,-3.9826,-3.9973,-4.0078,-3.9852,-3.9097,-3.8639,-3.7949,-3.6957,-3.6424,-3.6047,-3.585,-3.5885,-3.5909,-3.5939,-3.5974,-3.57,-3.5123,-3.4768,-3.4269,-3.3672,-3.3313,-3.3112,-3.2945,-3.2333,-3.1966,-3.1726,-3.1115,-3.076,-3.0584,-3.0432,-3.0232,-3.0072,-3.0459,-3.0465,-3.022,-2.9564,-2.9197,-2.8979,-2.8561,-2.8299,-2.8022,-2.7626,-2.7355,-2.7166,-2.704,-2.6959,-2.6859,-2.6623,-2.652,-2.6415,-2.6203,-2.6043,-2.5901,-2.5738,-2.5663,-2.5605,-2.5416,-2.5394,-2.5317,-2.5146,-2.5029,-2.5005,-2.5005,-2.4902,-2.4782,-2.4701,-2.4605,-2.4657,-2.4834,-2.5834,-2.6547,-2.6778,-2.7828,-2.8396,-2.8348,-2.8449,-2.8843,-2.9465,-3.0046,-3.0661,-3.1329,-3.1784,-3.2103,-3.233,-3.233,-3.2737,-2.6115,-2.6857,-2.7568,-2.8106,-2.9282,-3.0494,-3.1281,-3.2138,-3.2898,-3.3495,-3.3951,-3.4301,-3.4706,-3.5131,-3.5605,-3.6002,-3.6451,-3.6895,-3.7281,-3.7685,-3.8034,-3.8267,-3.8572,-3.8833,-3.896,-3.9298,-3.9575,-3.9735,-3.9911,-3.9543,-3.8517,-3.8068,-3.7375,-3.6395,-3.589,-3.5669,-3.5756,-3.5838,-3.5883,-3.5931,-3.5659,-3.5233,-3.4673,-3.4004,-3.34,-3.2855,-3.247,-3.2231,-3.2104,-3.1518,-3.1168,-3.0958,-3.0338,-2.9991,-2.9823,-2.9701,-2.9531,-2.9407,-2.9701,-2.9722,-2.9484,-2.8826,-2.8484,-2.83,-2.8182,-2.7996,-2.776,-2.763,-2.7448,-2.7261,-2.712,-2.7007,-2.6893,-2.6691,-2.6572,-2.645,-2.6258,-2.6099,-2.5974,-2.5811,-2.5738,-2.5663,-2.5513,-2.5454,-2.5339,-2.5185,-2.5123,-2.5084,-2.5005,-2.4926,-2.4862,-2.4822,-2.4726,-2.4645,-2.4589,-2.5606,-2.6324,-2.6557,-2.7504,-2.8198,-2.8444,-2.8332,-2.8606,-2.923,-2.9867,-3.0487,-3.1143,-3.1814,-3.215,-3.215,-3.215,-3.242,-2.4614,-2.5148,-2.5758,-2.6637,-2.7345,-2.8238,-2.9766,-3.0679,-3.1428,-3.2493,-3.3124,-3.3591,-3.4151,-3.4594,-3.5024,-3.5532,-3.6105,-3.6568,-3.6873,-3.741,-3.7793,-3.8003,-3.834,-3.8578,-3.8762,-3.896,-3.9192,-3.9433,-3.967,-3.9126,-3.7639,-3.7642,-3.7001,-3.5494,-3.547,-3.555,-3.5688,-3.5752,-3.5866,-3.5978,-3.5105,-3.4687,-3.4584,-3.2865,-3.2077,-3.1973,-3.1099,-3.0649,-3.0602,-3.053,-3.0414,-3.0279,-3.0152,-3.0034,-2.9888,-2.9753,-2.9626,-2.9472,-2.92,-2.9021,-2.8881,-2.8687,-2.851,-2.838,-2.8237,-2.8126,-2.7968,-2.776,-2.76,-2.7465,-2.7244,-2.7103,-2.6975,-2.6775,-2.6589,-2.6468,-2.6347,-2.6154,-2.601,-2.601,-2.5848,-2.5701,-2.5701,-2.5551,-2.5378,-2.5333,-2.5294,-2.524,-2.5045,-2.5005,-2.4966,-2.4822,-2.4822,-2.4766,-2.463,-2.53,-2.5987,-2.6658,-2.7208,-2.786,-2.8605,-2.8493,-2.8704,-2.935,-3.0027,-3.0689,-3.1336,-3.2013,-3.2367,-3.2398,-3.2398,-3.2398,-2.3242,-2.3846,-2.4408,-2.5013,-2.595,-2.699,-2.7891,-2.9166,-3.0425,-3.1146,-3.2122,-3.298,-3.3591,-3.4201,-3.4787,-3.5274,-3.58,-3.6465,-3.7422,-3.7954,-3.834,-3.8653,-3.8903,-3.894,-3.8533,-3.8683,-3.8892,-3.911,-3.9427,-3.9213,-3.835,-3.783,-3.7146,-3.6246,-3.5686,-3.5502,-3.5623,-3.5732,-3.5846,-3.5919,-3.509,-3.4367,-3.3691,-3.2594,-3.1755,-3.1122,-3.0837,-3.0651,-3.0602,-3.0521,-3.0447,-3.0355,-3.0221,-3.0123,-3.0022,-2.9841,-2.9719,-2.9626,-2.9332,-2.9138,-2.8952,-2.8785,-2.8662,-2.851,-2.8327,-2.8209,-2.8099,-2.7789,-2.763,-2.7526,-2.7261,-2.7135,-2.7055,-2.6876,-2.6759,-2.6623,-2.6468,-2.6312,-2.6189,-2.601,-2.5917,-2.5828,-2.5738,-2.5663,-2.5551,-2.5394,-2.5378,-2.5355,-2.5256,-2.5201,-2.5162,-2.5029,-2.5029,-2.4989,-2.4926,-2.5434,-2.6083,-2.6804,-2.7344,-2.8,-2.8716,-2.87,-2.8729,-2.8788,-2.9453,-3.0083,-3.0674,-3.132,-3.1905,-3.2398,-3.2398,-3.2398,-2.2051,-2.2725,-2.3374,-2.3872,-2.4807,-2.5807,-2.6722,-2.8111,-2.9418,-3.0321,-3.148,-3.2508,-3.3102,-3.3729,-3.4349,-3.4851,-3.5648,-3.6502,-3.737,-3.8185,-3.8823,-3.9174,-3.9155,-3.9047,-3.8816,-3.8652,-3.864,-3.8833,-3.9183,-3.9096,-3.8497,-3.7799,-3.711,-3.6436,-3.5729,-3.5435,-3.5601,-3.5708,-3.5787,-3.5844,-3.4679,-3.3868,-3.3355,-3.2109,-3.126,-3.0807,-3.075,-3.0703,-3.0637,-3.0557,-3.0491,-3.0433,-3.0305,-3.0199,-3.0132,-2.9907,-2.9808,-2.9701,-2.9454,-2.927,-2.9093,-2.8952,-2.8761,-2.8562,-2.8432,-2.83,-2.8154,-2.7893,-2.7748,-2.76,-2.7386,-2.723,-2.7135,-2.7023,-2.6842,-2.6674,-2.6589,-2.6486,-2.6312,-2.6115,-2.599,-2.5917,-2.5791,-2.5791,-2.5754,-2.5659,-2.5621,-2.5621,-2.5562,-2.541,-2.5294,-2.5201,-2.5201,-2.5162,-2.5123,-2.5338,-2.592,-2.6988,-2.724,-2.7809,-2.8811,-2.8842,-2.8747,-2.8684,-2.9368,-2.9847,-3.0134,-3.1093,-3.1743,-3.2129,-3.2493,-3.2578,-2.1135,-2.1877,-2.2665,-2.3173,-2.3872,-2.4771,-2.5931,-2.7158,-2.8426,-2.9677,-3.0926,-3.2028,-3.268,-3.3298,-3.3848,-3.4399,-3.5607,-3.6692,-3.716,-3.8399,-3.9361,-3.9693,-3.9409,-3.921,-3.9228,-3.8782,-3.8542,-3.8645,-3.895,-3.892,-3.8458,-3.7683,-3.6933,-3.6159,-3.5592,-3.5393,-3.5581,-3.5658,-3.5735,-3.5774,-3.416,-3.3383,-3.335,-3.1582,-3.0797,-3.0801,-3.0798,-3.0765,-3.0697,-3.0622,-3.0577,-3.0499,-3.0367,-3.0266,-3.0185,-3.0003,-2.9799,-2.9621,-2.942,-2.921,-2.8994,-2.8993,-2.8852,-2.8612,-2.8536,-2.838,-2.8209,-2.8071,-2.7864,-2.7672,-2.7569,-2.7386,-2.7198,-2.7117,-2.6923,-2.6758,-2.6691,-2.6589,-2.645,-2.6274,-2.6151,-2.6026,-2.597,-2.5934,-2.5917,-2.5897,-2.5897,-2.5897,-2.5897,-2.56,-2.5371,-2.5333,-2.5333,-2.5333,-2.5294,-2.5201,-2.5751,-2.7153,-2.7051,-2.7551,-2.8904,-2.8905,-2.8842,-2.8826,-2.9372,-2.9715,-2.9824,-3.1072,-3.1727,-3.1836,-3.2569,-3.2843,-2.0571,-2.1388,-2.2199,-2.2836,-2.3603,-2.4376,-2.507,-2.6188,-2.7428,-2.8666,-3.0056,-3.1369,-3.2439,-3.3208,-3.3848,-3.4399,-3.5592,-3.6801,-3.7957,-3.9133,-4.0019,-4.0235,-4.0529,-4.0221,-3.8919,-3.8995,-3.8946,-3.8427,-3.8627,-3.8865,-3.9032,-3.7834,-3.6562,-3.5341,-3.5299,-3.5369,-3.5526,-3.5637,-3.5737,-3.5788,-3.4114,-3.3346,-3.334,-3.1592,-3.0801,-3.0793,-3.0791,0.0,-3.0697,-3.0625,-3.0593,-3.0579,-3.0447,-3.0336,-3.0253,-3.0113,-2.9573,-2.8855,-2.8667,-2.8072,-2.7568,-2.8647,-2.8929,-2.8791,-2.8637,-2.8484,-2.8345,-2.8209,-2.7979,-2.776,-2.7701,-2.7526,-2.7327,-2.723,-2.7085,-2.6956,-2.6758,-2.6589,-2.6485,-2.645,-2.6347,-2.6241,-2.6168,-2.6079,-2.5954,-2.5917,-2.5897,-2.5897,-2.5897,-2.586,-2.5749,-2.5578,-2.554,-2.5486,-2.5333,-2.5294,-2.5847,-2.7269,-2.7322,-2.7901,-2.9196,-2.9213,-2.9121,-2.8873,-2.8999,-2.9311,-2.9824,-3.0588,-3.1259,-3.1836,-3.2569,-3.2897,-2.0442,-2.1262,-2.2075,-2.2714,-2.3543,-2.435,-2.4948,-2.6148,-2.7384,-2.8562,-2.9892,-3.1177,-3.2314,-3.3049,-3.3658,-3.4201,-3.5663,-3.7066,-3.7851,-3.9409,-4.0504,-4.0804,-4.076,-4.0347,-3.9429,-3.9118,-3.8761,-3.8225,-3.8401,-3.8713,-3.9073,-3.7841,-3.6465,-3.504,-3.5141,-3.5266,-3.5378,-3.5526,-3.5648,-3.5726,-3.4081,-3.3345,-3.3333,-3.1582,-3.0818,-3.0858,-3.0829,-3.0785,-3.0745,-3.0671,-3.0622,-3.0586,-3.05,-3.0125,-2.9658,-2.953,-2.8884,-2.8059,-2.7886,-2.7505,-2.7176,-2.7746,-2.811,-2.8301,-2.8118,-2.8286,-2.8458,-2.8264,-2.8126,-2.795,-2.776,-2.763,-2.7526,-2.7341,-2.7198,-2.707,-2.6875,-2.6725,-2.6589,-2.6589,-2.6486,-2.6399,-2.6345,-2.6293,-2.6258,-2.6222,-2.6222,-2.6222,-2.6222,-2.6222,-2.6079,-2.5787,-2.5749,-2.5712,-2.5637,-2.5524,-2.606,-2.7476,-2.7448,-2.7987,-2.9348,-2.9412,-2.935,-2.9213,-2.9213,-2.9342,-2.9549,-3.0242,-3.0885,-3.1526,-3.2233,-3.2767,-2.0506,-2.1313,-2.2199,-2.2836,-2.3649,-2.4523,-2.5104,-2.6301,-2.7621,-2.8729,-2.9948,-3.1177,-3.2275,-3.2958,-3.3503,-3.4,-3.581,-3.727,-3.7646,-3.9433,-4.0823,-4.1071,-4.0866,-4.0433,-3.9824,-3.9266,-3.8687,-3.8038,-3.8252,-3.8425,-3.8489,-3.7567,-3.6362,-3.4926,-3.5037,-3.5155,-3.53,-3.5438,-3.5562,-3.565,-3.4043,-3.3303,-3.3317,-3.1588,-3.0829,-3.0879,-3.0818,-3.0808,-3.0798,-3.0735,-3.0672,-3.0599,-3.0337,-2.9785,-2.9074,-2.8753,-2.8057,-2.7252,-2.7097,-2.6908,-2.666,-2.6487,-2.6947,-2.7585,-2.7634,-2.7967,-2.8345,-2.8291,-2.8237,-2.8154,-2.7893,-2.776,-2.7642,-2.7452,-2.7279,-2.7103,-2.7055,-2.6892,-2.6775,-2.6775,-2.6657,-2.6537,-2.6537,-2.652,-2.6485,-2.6485,-2.6485,-2.6485,-2.6485,-2.6485,-2.638,-2.6079,-2.6007,-2.5934,-2.5897,-2.5896,-2.6454,-2.7705,-2.7743,-2.8276,-2.9499,-2.9563,-2.9518,-2.9518,-2.9518,-2.9473,-2.935,-3.0083,-3.0625,-3.1051,-3.1956,-3.255,-2.0869,-2.169,-2.2494,-2.3173,-2.393,-2.4624,-2.5231,-2.6398,-2.7677,-2.891,-3.0168,-3.1311,-3.2353,-3.3049,-3.3607,-3.405,-3.581,-3.727,-3.7646,-3.9433,-4.0745,-4.0918,-4.1265,-4.092,-3.9487,-3.9625,-3.9182,-3.7757,-3.8119,-3.7961,-3.6968,-3.6845,-3.6222,-3.4865,-3.5002,-3.516,-3.53,-3.543,-3.5546,-3.5599,-3.3983,-3.3235,-3.3258,-3.1582,-3.0799,-3.0818,-3.08,-3.081,0.0,-3.0793,-3.0753,-3.06,-2.9753,-2.9321,-2.907,-2.8142,-2.7254,-2.6473,-2.6346,-2.5754,-2.5009,-2.4933,-2.5762,-2.6921,-2.7585,-2.7638,-2.7646,-2.8363,-2.8398,-2.8182,-2.8154,-2.7922,-2.7672,-2.7509,-2.7324,-2.7181,-2.7181,-2.7087,-2.6975,-2.6975,-2.6808,-2.6674,-2.6674,-2.6572,-2.6485,-2.6485,-2.6485,-2.6485,-2.6485,-2.6485,-2.6485,-2.645,-2.6274,-2.6096,-2.5934,-2.6503,-2.7169,-2.7921,-2.8518,-2.9134,-2.9733,-2.971,-2.9608,-2.9518,-2.9518,-2.9473,-2.9473,-3.016,-3.0511,-3.0607,-3.1965,-3.252,-2.1553,-2.2249,-2.2992,-2.3649,-2.4408,-2.5104,-2.5701,-2.6852,-2.8155,-2.9307,-3.044,-3.1597,-3.2671,-3.324,-3.3658,-3.4151,-3.586,-3.722,-3.7517,-3.9287,-4.0648,-4.0745,-4.1134,-4.0814,-3.9421,-3.9534,-3.9195,-3.7935,-3.7652,-3.7228,-3.6426,-3.666,-3.6166,-3.4722,-3.4831,-3.5001,-3.5176,-3.5315,-3.5438,-3.5512,-3.3945,-3.3242,-3.3252,-3.1554,-3.0798,-3.0806,-3.0799,-3.08,0.0,-3.0801,-3.076,-3.0607,-2.9717,-2.8996,-2.8357,-2.7391,-2.6461,-2.5654,-2.552,-2.5219,-2.4889,-2.4753,-2.5026,-2.5652,-2.6792,-2.7358,-2.7765,-2.842,-2.851,-2.8406,-2.8237,-2.7979,-2.773,-2.7642,-2.7539,-2.7417,-2.7386,-2.723,-2.7103,-2.7103,-2.699,-2.6892,-2.6892,-2.6842,-2.6792,-2.6792,-2.6792,-2.6792,-2.6792,-2.6759,-2.6708,-2.6623,-2.6468,-2.6345,-2.6274,-2.6829,-2.7465,-2.8135,-2.8715,-2.9368,-3.0011,-3.0017,-2.9989,-2.9902,-2.9858,-2.9754,-2.9694,-2.991,-3.0172,-3.0526,-3.1055,-3.1773,-2.2421,-2.304,-2.3649,-2.4337,-2.4978,-2.5661,-2.6432,-2.7681,-2.8934,-3.0008,-3.1106,-3.2166,-3.3002,-3.345,-3.3877,-3.4543,-3.6058,-3.7303,-3.7786,-3.9374,-4.0534,-4.0648,-4.0948,-4.0635,-3.9318,-3.9047,-3.862,-3.7935,-3.7313,-3.6712,-3.6179,-3.626,-3.5783,-3.4595,-3.471,-3.4889,-3.5092,-3.5223,-3.5374,-3.5489,-3.3914,-3.3208,-3.3208,-3.1526,-3.0774,-3.0807,-3.0808,-3.08,0.0,-3.0801,-3.0615,-3.0258,-2.9389,-2.8473,-2.7539,-2.6583,-2.5813,-2.5222,-2.5099,-2.5032,-2.4972,-2.4827,-2.4726,-2.4897,-2.6358,-2.7085,-2.761,-2.847,-2.8662,-2.8536,-2.8273,-2.8081,-2.7893,-2.7818,-2.7748,-2.763,-2.7569,-2.7448,-2.7307,-2.7276,-2.7215,-2.7105,-2.7072,-2.7023,-2.704,-2.7007,-2.7007,-2.7007,-2.7007,-2.6959,-2.6876,-2.6808,-2.6691,-2.6707,-2.6821,-2.7364,-2.8023,-2.8716,-2.923,-2.9732,-3.0258,-3.0231,-3.0189,-3.0189,-3.0103,-3.0017,-2.9897,-2.9886,-3.0012,-3.036,-3.0569,-3.1277,-2.3458,-2.4047,-2.4624,-2.5231,-2.5756,-2.6429,-2.7598,-2.8758,-2.9862,-3.0945,-3.2191,-3.315,-3.3256,-3.3745,-3.4378,-3.5261,-3.6488,-3.7586,-3.8489,-3.9713,-4.0485,-4.0485,-4.084,-4.0533,-3.9042,-3.794,-3.739,-3.7594,-3.7091,-3.6584,-3.6036,-3.5487,-3.4969,-3.4423,-3.4666,-3.4888,-3.5092,-3.5223,-3.5364,-3.5488,-3.3878,-3.3132,-3.314,-3.1462,-3.0745,-3.0802,-3.0799,-3.0795,0.0,-3.0796,-3.0294,-2.9432,-2.8549,-2.7634,-2.6706,-2.5749,-2.5351,-2.5293,-2.5225,-2.5106,-2.5013,-2.5004,-2.4861,-2.4976,-2.6523,-2.6819,-2.6961,-2.8535,-2.881,-2.8562,-2.8353,-2.8264,-2.8182,-2.8099,-2.795,-2.7789,-2.7701,-2.7659,-2.7587,-2.7496,-2.7434,-2.7355,-2.7213,-2.7149,-2.707,-2.7007,-2.7007,-2.7007,-2.7007,-2.7007,-2.7007,-2.7007,-2.6992,-2.7148,-2.7561,-2.828,-2.8996,-2.9733,-3.0251,-3.0468,-3.0526,-3.0316,-3.0189,-3.0189,-3.0189,-3.0189,-3.0205,-3.0205,-3.0103,-3.0006,-3.0766,-3.1362,-2.4279,-2.4781,-2.5342,-2.5892,-2.6773,-2.7686,-2.8368,-2.9826,-3.1189,-3.1706,-3.2735,-3.3607,-3.3797,-3.4455,-3.5165,-3.5729,-3.7053,-3.822,-3.8656,-3.9763,-4.0485,-4.0485,-3.991,-3.9415,-3.9188,-3.7883,-3.7259,-3.7577,-3.6416,-3.5741,-3.5779,-3.4728,-3.4144,-3.4264,-3.4517,-3.4728,-3.4888,-3.5073,-3.4939,-3.4534,-3.353,-3.2742,-3.2203,-3.1173,-3.071,-3.0725,-3.0774,-3.0801,-3.0795,-3.08,-3.0284,-2.9408,-2.854,-2.7659,-2.6741,-2.5815,-2.5437,-2.5351,-2.5282,-2.5206,-2.5125,-2.5025,-2.4931,-2.5114,-2.6662,-2.6972,-2.7112,-2.858,-2.8834,-2.8644,-2.8536,-2.8458,-2.838,-2.8273,-2.8164,-2.8053,-2.7996,-2.7836,-2.7719,-2.7642,-2.7569,-2.7496,-2.7417,-2.7386,-2.7373,-2.7341,-2.7341,-2.7327,-2.7282,-2.7184,-2.7103,-2.707,-2.704,-2.7248,-2.7809,-2.8463,-2.913,-2.9816,-3.0453,-3.0773,-3.0773,-3.0692,-3.0651,-3.0526,-3.0443,-3.0401,-3.0333,-3.0231,-3.0189,-3.0162,-3.0898,-3.1283,-2.5453,-2.5728,-2.6272,-2.705,-2.7943,-2.8793,-2.9739,-3.1042,-3.2159,-3.2633,-3.3339,-3.4081,-3.4592,-3.5217,-3.5909,-3.6754,-3.782,-3.874,-3.916,-3.99,-4.0436,-4.0534,-3.9543,-3.8894,-3.9093,-3.7819,-3.7087,-3.7354,-3.6025,-3.5305,-3.562,-3.4316,-3.3726,-3.4049,-3.434,-3.4623,-3.4788,-3.5002,-3.4742,-3.4044,-3.3301,-3.2532,-3.1748,-3.0989,-3.0683,-3.071,-3.074,-3.0778,0.0,-3.0799,-3.0115,-2.8992,-2.8424,-2.7472,-2.6334,-2.5719,-2.5464,-2.5432,-2.5351,-2.5301,-2.5225,-2.5113,-2.5416,-2.6023,-2.6919,-2.7475,-2.799,-2.8835,-2.8952,-2.881,-2.8737,-2.8644,-2.8543,-2.8432,-2.8353,-2.8291,-2.8209,-2.8053,-2.7922,-2.7864,-2.7795,-2.7736,-2.763,-2.76,-2.7569,-2.7557,-2.7526,-2.7465,-2.7452,-2.7373,-2.7293,-2.7261,-2.7215,-2.7549,-2.8494,-2.8849,-2.9454,-3.0451,-3.0802,-3.1032,-3.1032,-3.0952,-3.0871,-3.0773,-3.0692,-3.0609,-3.0584,-3.0401,-3.0316,-3.0333,-3.0707,-3.0833,0.0,-2.6841,-2.738,-2.8574,-2.9109,-2.9878,-3.1592,-3.2317,0.0,-3.3617,-3.4083,-3.4676,-3.5481,-3.5927,-3.6671,-3.8152,-3.8673,-3.9093,-3.98,-4.0155,-4.0404,-4.0648,-3.9543,-3.8745,-3.8789,-3.7696,-3.6952,-3.69,-3.5828,-3.522,-3.5403,-3.4147,-3.3577,-3.378,-3.4173,-3.4495,-3.4768,-3.4983,-3.4689,-3.3891,-3.3215,-3.2435,-3.1579,-3.0907,-3.0629,-3.069,-3.0703,-3.0745,-3.0798,-3.0808,-2.9804,-2.8298,-2.8223,-2.714,-2.5604,-2.5529,-2.5499,-2.5495,-2.5434,-2.537,-2.5301,-2.5214,-2.6192,-2.7384,-2.7236,-2.8204,-2.9312,-2.9243,-2.9112,-2.9017,-2.8929,-2.8834,-2.8694,-2.8637,-2.8562,-2.8466,-2.8353,-2.8291,-2.8209,-2.8126,-2.8071,-2.7968,-2.7847,-2.776,-2.7701,-2.7647,-2.7587,-2.7526,-2.7526,-2.7526,-2.7526,-2.7496,-2.7496,-2.8025,-2.9333,-2.9282,-2.986,-3.1414,-3.1308,-3.123,-3.123,-3.1032,-3.0952,-3.0912,-3.0912,-3.0912,-3.0912,-3.0651,-3.0526,-3.051,-3.0316,-3.0231,-2.8415,0.0,-2.8763,-2.9304,-3.0441,-3.162,0.0,-3.3155,-3.379,-3.4118,-3.4923,-3.5646,-3.5877,-3.7037,-3.8137,-3.8623,-3.9211,-3.975,-4.0003,-4.0205,-4.0337,-4.0534,-3.923,-3.8414,-3.8629,-3.7301,-3.6348,-3.6089,-3.5254,-3.4659,-3.4434,-3.3643,-3.3327,-3.3643,-3.3947,-3.4221,-3.4495,-3.4749,-3.4188,-3.2844,-3.2775,-3.2026,-3.0702,-3.0577,-3.0558,-3.0626,-3.0685,-3.0734,-3.0793,-3.081,-2.9812,-2.8299,-2.8279,-2.721,-2.5678,-2.5595,-2.5549,-2.5499,-2.5472,-2.5434,-2.5361,-2.5236,-2.6225,-2.7447,-2.7377,-2.833,-2.9433,-2.9312,-2.9246,-2.9197,-2.9067,-2.8975,-2.8905,-2.8858,-2.8743,-2.8619,-2.8562,-2.8484,-2.8388,-2.8273,-2.8209,-2.8126,-2.8025,-2.7968,-2.794,-2.7911,-2.7882,-2.7853,-2.773,-2.7672,-2.763,-2.7587,-2.7526,-2.7879,-2.8737,-2.9195,-3.002,-3.1414,-3.1479,-3.144,-3.144,-3.1385,-3.1286,-3.1112,-3.0992,-3.0912,-3.0912,-3.0831,-3.0831,-3.0814,-3.0749,-3.0609,-2.9409,-2.947,-2.9741,-3.0333,-3.1478,-3.2634,-3.3304,-3.3925,-3.4497,-3.4956,-3.5629,-3.6322,-3.7135,-3.8037,-3.8858,-3.9328,-3.9716,-4.0037,-4.007,-4.0188,-4.0218,-3.9927,-3.8884,-3.8123,-3.795,-3.6895,-3.6049,-3.5553,-3.4868,-3.4284,-3.3879,-3.3262,-3.3068,-3.3415,-3.368,-3.3998,-3.434,-3.4229,-3.3582,-3.2422,-3.2206,-3.1484,-3.0362,-3.0425,-3.051,-3.0595,-3.0634,-3.0685,-3.0759,-3.0786,-2.9796,-2.8252,-2.8281,-2.7221,-2.5698,-2.5668,-2.561,-2.5549,-2.5511,-2.5456,-2.538,-2.528,-2.6319,-2.7565,-2.7481,-2.8499,-2.9664,-2.9531,-2.9451,-2.9349,-2.9225,-2.9156,-2.9108,-2.9021,-2.8905,-2.881,-2.8761,-2.8644,-2.8543,-2.8458,-2.838,-2.8318,-2.8264,-2.8164,-2.8109,-2.8099,-2.8071,-2.7996,-2.7893,-2.7864,-2.7806,-2.7795,-2.7736,-2.8022,-2.8683,-2.9042,-2.9814,-3.1143,-3.1499,-3.1651,-3.1651,-3.1555,-3.144,-3.1363,-3.123,-3.119,-3.119,-3.1072,-3.1032,-3.1032,-3.0952,-3.0831,-3.0103,-3.0245,-3.0625,-3.1486,-3.2402,-3.3307,-3.417,-3.4546,-3.5002,-3.5859,-3.6254,-3.69,-3.8521,-3.8924,-3.9244,-3.9935,-4.0037,-4.0037,-4.0037,-4.0036,-3.9798,-3.9171,-3.8401,-3.7712,-3.7081,-3.6378,-3.5642,-3.5036,-3.4402,-3.385,-3.3389,-3.2908,-3.2798,-3.3129,-3.3415,-3.3707,-3.4011,-3.3596,-3.2937,-3.209,-3.1599,-3.0992,-3.0266,-3.0362,-3.0455,-3.0559,0.0,0.0,-3.0691,-3.0755,-2.9757,-2.8218,-2.8277,-2.7226,-2.5694,-2.569,-2.5664,-2.5591,-2.5537,-2.5456,-2.5407,-2.5351,-2.64,-2.7695,-2.7559,-2.8669,-2.9924,-2.9809,-2.9645,-2.9493,-2.9373,-2.9349,-2.9304,-2.9156,-2.8997,-2.8815,-2.8769,-2.8565,-2.8355,-2.83,-2.8316,-2.8355,-2.8278,-2.8308,-2.83,-2.8264,-2.8182,-2.8126,-2.8071,-2.8053,-2.8025,-2.8042,-2.8014,-2.8222,-2.8727,-2.8873,-2.9425,-3.0557,-3.1271,-3.1716,-3.1819,-3.1651,-3.1538,-3.1538,-3.1538,-3.1517,-3.15,-3.1346,-3.123,-3.123,-3.1072,-3.0992,-3.0651,-3.1401,-3.2278,-3.215,-3.3112,-3.417,-3.4578,-3.4739,-3.5098,-3.6004,-3.6865,-3.7732,-3.8622,-3.9379,-3.9902,-3.9935,-3.9833,-3.9781,-3.9781,-3.9244,-3.8824,-3.8724,-3.753,-3.6686,-3.6679,-3.5476,-3.4474,-3.3984,-3.3368,-3.2803,-3.237,-3.2458,-3.2657,-3.2948,-3.322,-3.3156,-3.2771,-3.3064,-3.255,-3.1186,-3.1235,-3.0836,-3.0138,-3.0253,-3.0367,-3.0439,0.0,-3.0613,-3.0618,-3.0691,-2.9723,-2.8216,-2.8266,-2.7224,-2.5703,-2.5691,-2.569,-2.5679,-2.5549,-2.5485,-2.5472,-2.5415,-2.6468,-2.7758,-2.7692,-2.8836,-3.0128,-3.0072,-2.9857,-2.9645,-2.9569,-2.9511,-2.9433,-2.9312,-2.8709,-2.8125,-2.8077,-2.746,-2.6903,-2.6849,-2.7328,-2.7713,-2.7665,-2.811,-2.8484,-2.8458,-2.8406,-2.8353,-2.8345,-2.8273,-2.8219,-2.8182,-2.8126,-2.8096,-2.8145,-2.8718,-2.9165,-2.9364,-3.0415,-3.1324,-3.202,-3.1912,-3.1839,-3.1839,-3.1654,-3.1579,-3.1579,-3.15,-3.144,-3.144,-3.144,-3.1346,-3.1157,-3.2034,-3.2944,-3.2785,-3.3713,-3.4707,-3.4899,-3.5214,-3.5743,-3.662,-3.7452,-3.8305,-3.9143,-3.9597,-3.9884,-3.9781,-3.9694,-3.959,-3.959,-3.8904,-3.8235,-3.7852,-3.6837,-3.5902,-3.5165,-3.4526,-3.3789,-3.284,-3.2615,-3.2308,-3.1854,-3.2108,-3.2422,-3.269,-3.2563,-3.2202,-3.1647,-3.1587,-3.1321,-3.0826,-3.0563,-3.0303,-3.0049,-3.0185,-3.0273,-3.0352,0.0,-3.0521,-3.0593,-3.0637,-2.9674,-2.8199,-2.8236,-2.719,-2.5702,-2.5697,-2.5696,-2.5687,-2.56,-2.5531,-2.5485,-2.5456,-2.6215,-2.7237,-2.7668,-2.8617,-2.9633,-3.0042,-2.9988,-2.9787,-2.9737,-2.9664,-2.957,-2.9492,-2.8798,-2.8143,-2.8081,-2.7354,-2.6682,-2.6618,-2.6848,-2.7185,-2.7533,-2.7869,-2.8179,-2.8565,-2.8569,-2.8536,-2.8458,-2.8432,-2.838,-2.8318,-2.8291,-2.8219,-2.8164,-2.8447,-2.9089,-3.0211,-3.0775,-3.1393,-3.2109,-3.2073,-3.202,-3.202,-3.1929,-3.1875,-3.1875,-3.1783,-3.1709,-3.1709,-3.1688,-3.1651,-3.1617,-3.244,-3.3305,-3.3305,-3.4125,-3.4994,-3.5105,-3.5575,-3.6306,-3.7136,-3.792,-3.8705,-3.9492,-3.9573,-3.952,-3.952,-3.9415,-3.9206,-3.911,-3.8272,-3.7477,-3.6717,-3.5877,-3.4871,-3.3766,-3.3429,-3.2918,-3.1891,-3.1875,-3.1805,-3.1462,-3.1765,-3.2021,-3.2124,-3.1835,-3.1356,-3.0613,-3.0287,-3.024,-3.0365,-2.9945,-2.9825,-2.9959,-3.0098,-3.0194,-3.0279,-3.0352,-3.0439,-3.0559,-3.0593,-2.964,-2.817,-2.8179,-2.7189,-2.5697,-2.5701,-2.5703,-2.5681,-2.5636,-2.5581,-2.5517,-2.5518,-2.6037,-2.6774,-2.7422,-2.8285,-2.9166,-2.9774,-2.9971,-2.9953,-2.9857,-2.9806,-2.9678,-2.942,-2.869,-2.7998,-2.7718,-2.6953,-2.6284,-2.6188,-2.6296,-2.6567,-2.7126,-2.7504,-2.7917,-2.8427,-2.8658,-2.8694,-2.8594,-2.8569,-2.8543,-2.8484,-2.8458,-2.8406,-2.8327,-2.8291,-2.8991,-3.0783,-3.0941,-3.123,-3.1723,-3.1899,-3.1952,-3.1952,-3.2127,-3.2179,-3.2179,-3.2055,-3.2002,-3.2002,-3.1948,-3.1893,-3.193,-3.2754,-3.3639,-3.359,-3.432,-3.5105,-3.5088,-3.5671,-3.6404,-3.7136,-3.797,-3.8789,-3.9404,-3.9255,-3.9023,-3.9023,-3.886,-3.8466,-3.7829,-3.6918,-3.6064,-3.5451,-3.4136,-3.3259,-3.3145,-3.2004,-3.1324,-3.1347,-3.1032,-3.0864,-3.1015,-3.1428,-3.1455,-3.1029,-3.1293,-3.0866,-2.9701,-2.9904,-2.98,-2.9397,-2.9547,-2.9682,-2.9825,-2.994,-3.0083,-3.0213,-3.0267,-3.0352,-3.0419,-3.054,-2.9613,-2.8099,-2.8188,-2.7179,-2.5696,-2.5703,-2.5701,-2.5709,-2.5693,-2.5648,-2.5595,-2.5585,-2.612,-2.6781,-2.6787,-2.7913,-2.9175,-2.9167,-2.9704,-3.0226,-3.0038,-2.994,-2.9666,-2.8789,-2.7966,-2.7125,-2.6236,-2.5433,-2.4802,-2.4681,-2.5262,-2.5746,-2.5764,-2.694,-2.7908,-2.7963,-2.8476,-2.8863,-2.8863,-2.881,-2.8761,-2.8687,-2.8637,-2.8536,-2.8406,-2.8398,-2.8775,-2.9663,-3.0125,-3.0384,-3.0419,-3.1158,-3.1547,-3.1547,-3.2137,-3.2456,-3.2456,-3.2335,-3.2283,-3.2283,-3.2283,-3.2232,-3.2214,-3.2962,-3.3778,-3.3598,-3.4391,-3.5245,-3.5245,-3.5972,-3.6704,-3.6985,-3.7961,-3.8764,-3.892,-3.8766,-3.86,-3.86,-3.8042,-3.7415,-3.7229,-3.5909,-3.4899,-3.4659,-3.3451,-3.2428,-3.1932,-3.115,-3.0534,-3.0235,-3.0234,-3.017,-3.0009,-3.0408,-3.0407,-2.9989,-2.9839,-2.9629,-2.9312,-2.9089,-2.9003,-2.8975,-2.931,-2.9569,-2.9738,-2.9895,-2.9991,-3.0083,-3.018,-3.0286,-3.0352,-3.043,-2.9516,-2.7947,-2.6957,-2.6209,-2.5696,-2.5696,-2.5703,-2.5701,-2.5696,-2.5679,-2.5652,-2.5656,-2.5839,-2.6145,-2.6624,-2.7207,-2.7795,-2.8222,-2.8574,-2.9017,-2.9904,-2.9703,-2.9163,-2.873,-2.76,-2.6514,-2.6098,-2.5355,-2.4726,-2.4645,-2.4877,-2.52,-2.5596,-2.6599,-2.7488,-2.7906,-2.8639,-2.913,-2.9044,-2.8998,-2.8952,-2.8858,-2.8761,-2.8687,-2.8594,-2.8587,-2.8688,-2.8943,-2.949,-3.0006,-3.0451,-3.0742,-3.0889,-3.0889,-3.1142,-3.1253,-3.1253,-3.17,-3.1898,-3.1865,-3.2393,-3.2557,-3.2454,-3.3149,-3.39,-3.3564,-3.4391,-3.5198,-3.5152,-3.5811,-3.6551,-3.673,-3.7682,-3.8511,-3.8399,-3.8068,-3.7753,-3.7696,-3.6917,-3.619,-3.5911,-3.4849,-3.3858,-3.3419,-3.2421,-3.1448,-3.0691,-3.0147,-2.9579,-2.8973,-2.9251,-2.9274,-2.8885,-2.9271,-2.933,-2.8903,-2.8743,-2.8679,-2.8659,-2.8441,-2.8484,-2.8743,-2.9093,-2.9372,-2.9645,-2.9774,-2.9876,-2.9972,-3.0113,-3.0213,-3.0286,-3.0371,-2.9438,-2.7838,-2.6209,-2.5619,-2.5664,-2.5696,-2.5694,-2.5702,-2.5703,-2.5698,-2.5701,-2.571,-2.5671,-2.5721,-2.6254,-2.6612,-2.6927,-2.7409,-2.773,-2.8163,-2.9205,-2.9002,-2.8425,-2.8065,-2.7091,-2.6138,-2.5816,-2.5286,-2.485,-2.4768,-2.4742,-2.4885,-2.5327,-2.6318,-2.7196,-2.766,-2.8641,-2.9304,-2.92,-2.9197,-2.9112,-2.8975,-2.8929,-2.8858,-2.881,-2.8791,-2.8761,-2.8712,-2.9086,-2.9494,-2.996,-3.0173,-3.0288,-3.0288,-3.0539,-3.0664,-3.0664,-3.119,-3.1535,-3.1737,-3.2277,-3.2588,-3.2623,-3.3279,-3.4007,-3.3605,-3.433,-3.5041,-3.4739,-3.5169,-3.574,-3.6254,-3.7157,-3.787,-3.787,-3.7064,-3.6316,-3.62,-3.543,-3.4613,-3.383,-3.3527,-3.2936,-3.1551,-3.0782,-3.0104,-2.9477,-2.8832,-2.8279,-2.7719,-2.7987,-2.8046,-2.7688,-2.8112,-2.8219,-2.7806,-2.8168,-2.8167,-2.7701,-2.8035,-2.8335,-2.8601,-2.8791,-2.9115,-2.9492,-2.9645,-2.9773,-2.9924,-3.0038,-3.0147,-3.0218,-3.033,-2.9436,-2.7838,-2.6158,-2.5549,-2.561,-2.5664,-2.571,-2.5709,-2.5698,-2.5703,-2.5699,-2.5691,-2.5701,-2.5684,-2.5624,-2.6198,-2.6876,-2.6817,-2.7354,-2.7969,-2.7894,-2.778,-2.7471,-2.6606,-2.6339,-2.606,-2.5196,-2.5004,-2.4977,-2.4898,-2.4846,-2.4806,-2.4806,-2.608,-2.7099,-2.7099,-2.8409,-2.9394,-2.9412,-2.9328,-2.924,-2.913,-2.9089,-2.9085,-2.9017,-2.9017,-2.8975,-2.8905,-2.8887,-2.8791,-2.8612,-2.9365,-2.9781,-2.9781,-3.0559,-3.0975,-3.0975,-3.091,-3.1261,-3.1982,-3.1995,-3.2355,-3.283,-3.3388,-3.4007,-3.3581,-3.4303,-3.4994,-3.4497,-3.487,-3.5432,-3.5792,-3.5816,-3.5817,-3.5849,-3.5446,-3.5015,-3.4914,-3.4152,-3.3456,-3.3099,-3.2163,-3.1268,-3.0704,-2.972,-2.9033,-2.8748,-2.7845,-2.7281,-2.7209,-2.71,-2.6875,-2.6532,-2.6888,-2.7027,-2.6751,-2.7097,-2.7358,-2.7539,-2.7911,-2.8191,-2.8458,-2.8712,-2.9021,-2.9368,-2.9491,-2.9626,-2.9774,-2.9891,-2.9988,-2.9988,-2.8995,-2.8324,-2.7769,-2.6146,-2.5518,-2.5537,-2.5605,-2.564,-2.5642,-2.5681,-2.5697,-2.5703,-2.5702,-2.5696,-2.5705,-2.5684,-2.5855,-2.6048,-2.5979,-2.6094,-2.6241,-2.6219,-2.6155,-2.616,-2.6411,-2.5991,-2.5459,-2.5194,-2.5101,-2.5051,-2.498,-2.494,-2.4945,-2.4879,-2.5729,-2.6591,-2.7161,-2.8123,-2.8951,-2.9475,-2.9451,-2.937,-2.931,-2.927,-2.9225,-2.9218,-2.9197,-2.9175,-2.9112,-2.9112,-2.8998,-2.8737,-2.8973,-2.91,-2.91,-2.9337,-2.9446,-2.9464,-2.9984,-3.0648,-3.1374,-3.1944,-3.2593,-3.2983,-3.3318,-3.3761,-3.3571,-3.3996,-3.4376,-3.3935,-3.429,-3.4809,-3.4841,-3.4675,-3.4574,-3.4605,-3.4097,-3.356,-3.3456,-3.269,-3.1973,-3.1617,-3.0745,-2.9879,-2.9278,-2.8582,-2.7918,-2.7365,-2.6817,-2.6329,-2.5948,-2.5879,-2.5713,-2.5425,-2.5783,-2.6043,-2.6134,-2.6453,-2.6858,-2.731,-2.7647,-2.794,-2.8246,-2.851,-2.881,-2.9108,-2.933,-2.9492,-2.9664,-2.9823,-2.9956,-2.992,-2.8396,-2.7785,-2.7659,-2.6071,-2.5453,-2.5471,-2.5537,-2.5576,-2.5604,-2.5652,-2.5676,-2.5694,-2.5702,-2.5703,-2.57,-2.5709,-2.5693,-2.5694,-2.5652,-2.5581,-2.5543,-2.5538,-2.5498,-2.5553,-2.5957,-2.5638,-2.5231,-2.5248,-2.5184,-2.5137,-2.5082,-2.5069,-2.5025,-2.4987,-2.5649,-2.6346,-2.6794,-2.7808,-2.8813,-2.9588,-2.9589,-2.9531,-2.9531,-2.9472,-2.9433,-2.9409,-2.9409,-2.9388,-2.9286,-2.9286,-2.9203,-2.9026,-2.8957,-2.8952,-2.8952,-2.8952,-2.8952,-2.8952,-2.9423,-3.0204,-3.1269,-3.1735,-3.252,-3.3118,-3.3153,-3.336,-3.3407,-3.3506,-3.3452,-3.3135,-3.3513,-3.3826,-3.3578,-3.364,-3.3757,-3.3757,-3.2856,-3.2048,-3.1957,-3.1188,-3.0367,-2.9595,-2.9319,-2.8713,-2.7535,-2.7348,-2.6845,-2.5638,-2.5734,-2.5409,-2.4334,-2.4522,-2.4605,-2.4446,-2.4831,-2.5301,-2.586,-2.6189,-2.6572,-2.6975,-2.731,-2.7647,-2.7986,-2.8246,-2.851,-2.8785,-2.9141,-2.9412,-2.9607,-2.9806,-2.9918,-2.984,-2.833,-2.765,-2.7436,-2.5967,-2.5397,-2.5401,-2.5464,-2.5538,-2.5599,-2.5591,-2.5644,-2.569,-2.5707,-2.5698,-2.5703,-2.5702,-2.5694,-2.5698,-2.5704,-2.566,-2.561,-2.5618,-2.557,-2.5485,-2.5429,-2.536,-2.5313,-2.5302,-2.5261,-2.5228,-2.5209,-2.5168,-2.5115,-2.5106,-2.573,-2.6205,-2.6227,-2.7597,-2.8877,-2.9599,-2.9715,-2.9736,-2.9719,-2.972,-2.9683,-2.9626,-2.9607,-2.955,-2.9433,-2.9433,-2.9412,-2.9334,-2.9246,-2.92,-2.92,-2.92,-2.92,-2.92,-2.9156,-2.9922,-3.1409,-3.1415,-3.221,-3.3429,-3.338,-3.3351,-3.296,-3.2896,-3.2948,-3.2861,-3.2671,-3.242,-3.2379,-3.1998,-3.1679,-3.1679,-3.1144,-3.0696,-3.0574,-2.986,-2.9209,-2.8947,-2.7921,-2.7044,-2.6665,-2.6315,-2.5727,-2.4878,-2.4773,-2.4509,-2.3902,-2.3776,-2.3876,-2.4082,-2.4467,-2.4934,-2.5492,-2.5901,-2.6279,-2.6775,-2.7103,-2.743,-2.776,-2.8091,-2.8353,-2.8569,-2.8957,-2.9307,-2.9607,-2.9701,-2.9466,-2.8932,-2.7956,-2.7203,-2.6579,-2.5614,-2.5274,-2.5322,-2.5401,-2.5468,-2.5531,-2.5574,-2.5615,-2.5621,-2.5687,-2.5707,-2.5697,-2.5702,-2.5703,-2.5696,-2.5709,-2.5696,-2.5675,-2.5671,-2.563,-2.556,-2.5557,-2.5468,-2.5376,-2.5369,-2.5361,-2.5332,-2.5293,-2.5283,-2.5262,-2.5261,-2.5362,-2.5643,-2.627,-2.7728,-2.881,-2.9,-2.9507,-2.9855,-2.9857,-2.9859,-2.9844,-2.9755,-2.9718,-2.9664,-2.9645,-2.9645,-2.9626,-2.9608,-2.9412,-2.9291,-2.9291,-2.9291,-2.9291,-2.9291,-2.9251,-2.9746,-3.072,-3.1348,-3.2114,-3.368,-3.3314,-3.295,-3.2304,-3.2159,-3.2123,-3.181,-3.1267,-3.0734,-3.0567,-3.0659,-3.0732,-3.0613,-2.9947,-2.9383,-2.9247,-2.8498,-2.7815,-2.7391,-2.6693,-2.601,-2.5666,-2.5422,-2.4874,-2.3945,-2.3913,-2.3695,-2.2923,-2.3047,-2.3304,-2.3696,-2.412,-2.4655,-2.5224,-2.5642,-2.6066,-2.6556,-2.6908,-2.7261,-2.76,-2.795,-2.8273,-2.8562,-2.8957,-2.9265,-2.9472,-2.9626,-2.9493,-2.9091,-2.7922,-2.722,-2.677,-2.5631,-2.522,-2.5262,-2.5322,-2.5385,-2.5461,-2.5538,-2.5562,-2.5605,-2.5636,-2.5662,-2.5701,-2.5709,-2.57,-2.5703,-2.57,-2.5694,-2.5705,-2.5701,-2.5668,-2.5636,-2.56,-2.5518,-2.5441,-2.5456,-2.5459,-2.5434,-2.5406,-2.5397,-2.5388,-2.5351,-2.5293,-2.5521,-2.637,-2.7172,-2.7994,-2.8796,-2.9203,-2.9578,-2.9996,-3.0003,-2.9991,-2.9943,-2.9874,-2.9841,-2.9808,-2.979,-2.979,-2.979,-2.9664,-2.957,-2.9492,-2.9492,-2.9472,-2.9453,-2.9453,-2.9841,-3.0618,-3.1455,-3.2247,-3.3899,-3.3189,-3.2441,-3.1716,-3.1482,-3.1277,-3.0725,-3.0015,-2.9357,-2.8931,-2.9551,-3.0055,-2.9679,-2.8844,-2.8158,-2.7933,-2.7148,-2.6424,-2.5851,-2.5512,-2.5213,-2.4731,-2.457,-2.4102,-2.2964,-2.3185,-2.2972,-2.2033,-2.2388,-2.2889,-2.3377,-2.3809,-2.4369,-2.4974,-2.54,-2.5848,-2.6314,-2.6691,-2.7055,-2.7434,-2.7795,-2.8191,-2.8587,-2.8952,-2.9181,-2.9312,-2.9531,-2.957,-2.9382,-2.7956,-2.7301,-2.7062,-2.5698,-2.518,-2.5217,-2.5262,-2.5341,-2.5385,-2.5472,-2.5524,-2.5576,-2.559,-2.5624,-2.5691,-2.5707,-2.5707,-2.5699,-2.5703,-2.5703,-2.57,-2.5703,-2.5698,-2.569,-2.5625,-2.5576,-2.5525,-2.5524,-2.5522,-2.5507,-2.5507,-2.5507,-2.5472,-2.544,-2.5369,-2.5582,-2.6294,-2.6484,-2.7017,-2.8418,-2.8664,-2.9046,-2.992,-2.9956,-2.9971,-3.0113,-3.0068,-3.0003,-2.9956,-2.9937,-2.9956,-2.9956,-2.9924,-2.9876,-2.9774,-2.9738,-2.9683,-2.9645,-2.9645,-2.9926,-3.056,-3.1549,-3.2328,-3.4152,-3.3146,-3.2106,-3.184,-3.1254,-3.0719,-3.06,-3.0015,-2.9357,-2.8834,-2.8512,-2.8266,-2.7914,-2.7368,-2.6952,-2.6647,-2.5935,-2.5355,-2.5156,-2.4543,-2.4086,-2.4008,-2.3553,-2.3037,-2.2439,-2.2325,-2.2142,-2.1848,-2.2324,-2.2828,-2.3304,-2.3754,-2.4219,-2.467,-2.5107,-2.5546,-2.5954,-2.633,-2.6674,-2.7072,-2.7707,-2.8136,-2.845,-2.8712,-2.8998,-2.9222,-2.9312,-2.9062,-2.8501,-2.7597,-2.6887,-2.6271,-2.5384,-2.5095,-2.5203,-2.5217,-2.5262,-2.5313,-2.5387,-2.5464,-2.5517,-2.5518,-2.556,-2.5619,-2.5679,-2.5701,-2.5698,-2.5694,-2.5699,-2.5703,-2.57,-2.5698,-2.5694,-2.5693,-2.5681,-2.5664,-2.5604,-2.5595,-2.5589,-2.5589,-2.5544,-2.5505,-2.5485,-2.548,-2.5514,-2.563,-2.6178,-2.666,-2.6892,-2.7525,-2.8269,-2.9144,-2.918,-2.9462,-3.0209,-3.0199,-3.0157,-3.0157,-3.0157,-3.0142,-3.0079,-3.0079,-3.0049,-3.0057,-2.9876,-2.979,-2.9773,-2.9773,-2.9793,-2.9869,-3.1371,-3.2119,-3.3963,-3.3064,-3.2179,-3.1652,-3.0898,-3.0148,-2.9752,-2.9092,-2.839,-2.7686,-2.7209,-2.6905,-2.7183,-2.6557,-2.5982,-2.5694,-2.4784,-2.418,-2.412,-2.3735,-2.3509,-2.3582,-2.3141,-2.2621,-2.2208,-2.1944,-2.1672,-2.1464,-2.1902,-2.2356,-2.2873,-2.3363,-2.3882,-2.4426,-2.4855,-2.5323,-2.5881,-2.6208,-2.6691,-2.7296,-2.7766,-2.8099,-2.8291,-2.8562,-2.8834,-2.9089,-2.9249,-2.889,-2.8166,-2.749,-2.6766,-2.6016,-2.5272,-2.505,-2.5095,-2.518,-2.5217,-2.5252,-2.5322,-2.5387,-2.5456,-2.5495,-2.5525,-2.5568,-2.562,-2.5643,-2.5648,-2.5696,-2.5705,-2.5691,-2.5702,-2.5703,-2.5703,-2.5694,-2.5691,-2.5685,-2.5658,-2.5632,-2.561,-2.561,-2.559,-2.5554,-2.5554,-2.5564,-2.5557,-2.5557,-2.5793,-2.6149,-2.6644,-2.6996,-2.7528,-2.8396,-2.8865,-2.9275,-2.964,-3.0074,-3.0305,-3.0305,-3.0292,-3.0228,-3.0215,-3.0194,-3.0152,-3.0171,-3.0038,-2.9943,-2.9907,-2.9907,-2.9893,-2.9844,-3.1506,-3.2241,-3.3887,-3.3141,-3.2433,-3.164,-3.0771,-2.9908,-2.9182,-2.8446,-2.766,-2.693,-2.6312,-2.6064,-2.6394,-2.5778,-2.5084,-2.4679,-2.3897,-2.333,-2.3283,-2.309,-2.3017,-2.321,-2.2652,-2.2185,-2.1975,-2.1509,-2.1208,-2.1158,-2.1568,-2.2044,-2.2555,-2.3053,-2.3566,-2.4219,-2.4599,-2.5114,-2.5749,-2.6173,-2.6725,-2.7373,-2.7707,-2.7968,-2.8154,-2.845,-2.8662,-2.8905,-2.9119,-2.8806,-2.805,-2.7382,-2.6683,-2.5941,-2.52,-2.495,-2.5023,-2.5107,-2.518,-2.5206,-2.5271,-2.5313,-2.5397,-2.5451,-2.548,-2.5511,-2.5556,-2.5579,-2.5605,-2.5668,-2.5701,-2.571,-2.5691,-2.5696,-2.5699,-2.5703,-2.5702,-2.5701,-2.5691,-2.5654,-2.5636,-2.5636,-2.5621,-2.5628,-2.5628,-2.5605,-2.5604,-2.5604,-2.5562,-2.5751,-2.6404,-2.6447,-2.6753,-2.7605,-2.824,-2.8772,-2.9197,-2.9783,-3.0213,-3.0417,-3.0383,-3.0352,-3.034,-3.0279,-3.0241,-3.0247,-3.0199,-3.0128,-3.0053,-3.0019,-3.0007,-2.9981,-3.165,-3.2409,-3.4128,-3.3469,-3.2773,-3.1969,-3.1077,-3.0218,-2.9454,-2.8669,-2.7879,-2.7056,-2.6457,-2.5907,-2.5256,-2.4717,-2.4229,-2.3726,-2.3343,-2.3078,-2.2969,-2.28,-2.2739,-2.2751,-2.1894,-2.1338,-2.1493,-2.0872,-2.0612,-2.0997,-2.152,-2.2044,-2.2555,-2.3053,-2.3538,-2.3982,-2.4385,-2.4831,-2.5333,-2.603,-2.6607,-2.704,-2.7373,-2.7707,-2.8014,-2.8273,-2.8484,-2.8637,-2.8905,-2.8673,-2.803,-2.7231,-2.6543,-2.5906,-2.5061,-2.4832,-2.501,-2.501,-2.5082,-2.5191,-2.5203,-2.525,-2.5313,-2.537,-2.5443,-2.5499,-2.5505,-2.5538,-2.5593,-2.5605,-2.5648,-2.5707,-2.5707,-2.5696,-2.5705,-2.5699,-2.5701,-2.5703,-2.5693,-2.5707,-2.5685,-2.5685,-2.5696,-2.5687,-2.5687,-2.5632,-2.5598,-2.5598,-2.56,-2.5605,-2.5664,-2.5657,-2.5964,-2.6773,-2.6895,-2.7563,-2.9159,-2.933,-2.967,-3.0453,-3.0482,-3.05,-3.0499,-3.0428,-3.0394,-3.0398,-3.0386,-3.0305,-3.0204,-3.0142,-3.0094,-3.0132,-3.1749,-3.2495,-3.4379,-3.3836,-3.3171,-3.24,-3.1534,-3.0697,-2.9837,-2.9012,-2.8255,-2.7327,-2.6721,-2.6136,-2.5412,-2.4681,-2.4073,-2.3675,-2.315,-2.286,-2.28,-2.2567,-2.2432,-2.2494,-2.1942,-2.1584,-2.1518,-2.1138,-2.0836,-2.0848,-2.1264,-2.1793,-2.2324,-2.2768,-2.3304,-2.3839,-2.4317,-2.4926,-2.5659,-2.6137,-2.6607,-2.7007,-2.7341,-2.763,-2.7893,-2.8136,-2.8371,-2.8525,-2.8143,-2.7661,-2.7106,-2.6988,-2.6154,-2.5011,-2.4792,-2.4738,-2.4832,-2.495,-2.5037,-2.507,-2.5168,-2.5214,-2.5239,-2.5302,-2.5351,-2.5369,-2.5421,-2.5488,-2.5543,-2.5544,-2.5574,-2.5639,-2.5648,-2.564,-2.5655,-2.5701,-2.5707,-2.5693,-2.5701,-2.5703,-2.5701,-2.5701,-2.5697,-2.5693,-2.5693,-2.5683,-2.5654,-2.5654,-2.5662,-2.5652,-2.5652,-2.5632,-2.5707,-2.5989,-2.6532,-2.7317,-2.843,-2.905,-2.9726,-3.0571,-3.0585,-3.0558,-3.0559,-3.0492,-3.0452,-3.0462,-3.046,-3.0394,-3.0254,-3.0241,-3.0202,-3.0185,-3.187,-3.2607,-3.4636,-3.4134,-3.3561,-3.2836,-3.2039,-3.121,-3.0335,-2.954,-2.8764,-2.7815,-2.7122,-2.6496,-2.5783,-2.4964,-2.4261,-2.3747,-2.321,-2.28,-2.2678,-2.2432,-2.2309,-2.242,-2.2054,-2.1679,-2.1419,-2.1221,-2.1017,-2.0749,-2.1166,-2.1616,-2.2184,-2.2618,-2.3157,-2.3867,-2.44,-2.5045,-2.5807,-2.6154,-2.6538,-2.6892,-2.7215,-2.7478,-2.773,-2.7996,-2.8076,-2.7957,-2.7561,-2.7105,-2.6576,-2.6443,-2.5653,-2.4517,-2.4599,-2.466,-2.4723,-2.4846,-2.4936,-2.5023,-2.5095,-2.5156,-2.5222,-2.5258,-2.5282,-2.5303,-2.5351,-2.5415,-2.5476,-2.5476,-2.5518,-2.557,-2.5574,-2.5576,-2.5619,-2.5668,-2.5678,-2.5668,-2.5673,-2.5673,-2.5702,-2.5702,-2.5703,-2.5703,-2.5703,-2.57,-2.5696,-2.5696,-2.5709,-2.5703,-2.5703,-2.5651,-2.5636,-2.5629,-2.6143,-2.6812,-2.7634,-2.8493,-2.9376,-3.0231,-3.0501,-3.0622,-3.0626,-3.0582,-3.0565,-3.0576,-3.0577,-3.0511,-3.0398,-3.0364,-3.0316,-3.0305,-3.1999,-3.303,0.0,0.0,0.0,-3.3234,-3.2494,-3.1737,-3.092,-3.0126,-2.9342,-2.8497,-2.7685,-2.6886,-2.6215,-2.5536,-2.4778,-2.4067,-2.345,-2.303,-2.2739,-2.2555,-2.242,-2.242,-2.2066,-2.1703,-2.1237,-2.1167,-2.0978,-2.0612,-2.1118,-2.1616,-2.2184,-2.2526,-2.3143,-2.4078,-2.467,-2.5201,-2.5605,-2.599,-2.6365,-2.6691,-2.6973,-2.7261,-2.7617,-2.7853,-2.7627,-2.7022,-2.7259,-2.7045,-2.6481,-2.5713,-2.5041,-2.45,-2.45,-2.4582,-2.4692,-2.4707,-2.4832,-2.4996,-2.4996,-2.5101,-2.5191,-2.521,-2.5248,-2.5292,-2.5293,-2.5341,-2.5395,-2.5393,-2.5449,-2.5492,-2.5492,-2.555,-2.5604,-2.56,-2.5595,-2.5604,-2.5598,-2.5648,-2.5705,-2.5705,-2.5694,-2.5699,-2.5699,-2.5702,-2.5703,-2.5703,-2.5702,-2.57,-2.57,-2.5694,-2.5705,-2.5701,-2.5696,-2.6038,-2.6825,-2.769,-2.8578,-2.9454,-3.0261,-3.0697,-3.0698,-3.0704,-3.0703,-3.07,-3.07,-3.0665,-3.0604,-3.0481,-3.0398,-3.0436,-3.2115,-3.3755,-3.5083,0.0,0.0,0.0,0.0,0.0,-2.9829,-2.9087,-2.8493,-2.8218,-2.7643,-2.7079,-2.6761,-2.6162,-2.5536,-2.4835,-2.391,-2.321,-2.303,-2.2787,-2.2616,-2.2616,-2.2591,-2.23,-2.1512,-2.1576,-2.1403,0.0,-2.1166,-2.1616,-2.2044,-2.2723,-2.3392,-2.4009,-2.4467,-2.491,-2.5355,-2.577,-2.6154,-2.6487,-2.6842,-2.7184,-2.7526,-2.7719,-2.7508,-2.696,-2.6466,-2.5937,-2.5445,-2.5395,-2.4963,-2.4303,-2.4447,-2.4534,-2.4566,-2.466,-2.4738,-2.4798,-2.495,-2.5018,-2.5057,-2.5114,-2.5168,-2.5225,-2.5236,-2.5271,-2.5332,-2.5332,-2.5387,-2.5437,-2.548,-2.551,-2.5538,-2.5538,-2.5537,-2.5529,-2.5585,-2.562,-2.5639,-2.5632,-2.5671,-2.5701,-2.5701,-2.5709,-2.5694,-2.5694,-2.57,-2.5703,-2.5703,-2.5703,-2.5701,-2.5697,-2.5696,-2.6042,-2.6908,-2.7764,-2.8616,-2.9457,-3.0295,-3.0769,-3.0764,-3.0759,-3.0773,-3.0761,-3.073,-3.0691,-3.0664,-3.0585,-3.053,-3.0501,-3.2185,-3.3525,-3.5262,-3.4583,-3.3761,-3.2876,0.0,0.0,-2.9804,-2.9073,-2.8527,-2.8199,-2.7644,-2.7102,-2.6699,-2.6147,-2.5635,-2.5174,-2.4388,-2.3683,-2.3339,-2.315,-2.3042,-2.2982,-2.3042,-2.2711,-2.1749,-2.1937,-2.1718,-2.0838,-2.1215,-2.1712,-2.2231,-2.2963,-2.3538,-2.3897,-2.4343,-2.4846,-2.5294,-2.5696,-2.6063,-2.6418,-2.6759,-2.7087,-2.7386,-2.7569,-2.719,-2.6348,-2.5964,-2.5297,-2.4476,-2.4668,-2.4514,-2.4209,-2.4321,-2.443,-2.4517,-2.4582,-2.4645,-2.4723,-2.4832,-2.4936,-2.501,-2.505,-2.5114,-2.5163,-2.5156,-2.5214,-2.5269,-2.5252,-2.5303,-2.537,-2.5406,-2.5432,-2.5456,-2.5461,-2.5464,-2.5478,-2.5538,-2.5557,-2.5577,-2.5581,-2.5632,-2.5668,-2.5668,-2.5662,-2.5673,-2.5696,-2.5705,-2.5693,-2.5694,-2.5698,-2.5702,-2.5703,-2.5703,-2.5917,-2.64,-2.7259,-2.8115,-2.8942,-2.9821,-3.0459,-3.079,-3.079,-3.0806,-3.0789,-3.0765,-3.075,-3.0742,-3.0676,-3.0784,-3.1118,-3.2425,-3.3484,-3.5372,-3.5057,-3.4491,-3.3237,-3.2502,0.0,-3.0255,-2.9458,-2.8886,-2.8315,-2.7671,-2.7047,-2.6419,-2.5818,-2.5431,-2.5307,-2.4812,-2.4314,-2.382,-2.3675,-2.3628,-2.3509,-2.3399,-2.3,-2.2069,-2.2133,-2.1865,-2.0938,-2.1348,-2.1935,-2.2601,-2.3142,-2.3538,-2.3797,-2.4302,-2.4791,-2.5256,-2.5675,-2.6046,-2.6383,-2.6725,-2.699,-2.7181,-2.7465,-2.6819,-2.5482,-2.5674,-2.4974,-2.3678,-2.375,-2.3937,-2.417,-2.419,-2.4321,-2.4482,-2.45,-2.4582,-2.4692,-2.4692,-2.4817,-2.4964,-2.4983,-2.5037,-2.5089,-2.5088,-2.5144,-2.518,-2.5195,-2.5239,-2.5282,-2.5293,-2.5341,-2.5389,-2.5397,-2.5395,-2.5412,-2.5448,-2.5476,-2.5499,-2.557,-2.5574,-2.5581,-2.5581,-2.56,-2.5617,-2.5683,-2.5697,-2.5687,-2.5693,-2.5681,-2.5687,-2.5697,-2.5698,-2.57,-2.5703,-2.6504,-2.7363,-2.824,-2.9118,-2.9954,-3.0767,-3.0804,-3.0799,-3.0804,-3.0801,-3.079,-3.0808,-3.0736,-3.1079,-3.1786,-3.2695,-3.3529,-3.5509,-3.4793,-3.3832,-3.2656,-3.156,0.0,-2.9119,-2.8475,-2.8141,-2.8101,-2.7693,-2.7279,-2.7073,-2.6611,-2.6077,-2.5482,-2.5063,-2.4765,-2.456,-2.4305,-2.4131,-2.3956,-2.3553,-2.302,-2.2507,-2.2062,-2.169,-2.1318,-2.1793,-2.2263,-2.2663,-2.2994,-2.3348,-2.3797,-2.4177,-2.4589,-2.5045,-2.5454,-2.5864,-2.6225,-2.6572,-2.6875,-2.7135,-2.7386,-2.6731,-2.5428,-2.5579,-2.4846,-2.3562,-2.3678,-2.3831,-2.4054,-2.4151,-2.4266,-2.4358,-2.4465,-2.4515,-2.4545,-2.4657,-2.4723,-2.4768,-2.4827,-2.4917,-2.5023,-2.5018,-2.5076,-2.5126,-2.5125,-2.5172,-2.5228,-2.5209,-2.5271,-2.5331,-2.5312,-2.5313,-2.5313,-2.5332,-2.5341,-2.5351,-2.5434,-2.5483,-2.5518,-2.5511,-2.5568,-2.5604,-2.5615,-2.5615,-2.5628,-2.5617,-2.5629,-2.5639,-2.5696,-2.5698,-2.5703,-2.5693,-2.6493,-2.7376,-2.8241,-2.912,-2.9961,-3.0761,-3.08,-3.0798,-3.0792,-3.0804,-3.0796,-3.0791,-3.0784,-3.082,-3.0976,-3.2531,-3.3332,-3.5581,-3.4789,-3.3727,-3.2646,-3.1487,0.0,0.0,-2.8529,-2.8191,-2.8032,-2.7681,-2.7283,-2.6874,-2.6421,-2.605,-2.5687,-2.5304,-2.5047,-2.508,-2.454,-2.4014,-2.3754,-2.3445,-2.3044,-2.2523,-2.2253,-2.2024,-2.1801,-2.2137,-2.2449,-2.2799,-2.3127,-2.3451,-2.3797,-2.4177,-2.4605,-2.5021,-2.5378,-2.5791,-2.6206,-2.6521,-2.6792,-2.7038,-2.6913,-2.6295,-2.5347,-2.5095,-2.4417,-2.3517,-2.3567,-2.3725,-2.3917,-2.4054,-2.4152,-2.4247,-2.4358,-2.4446,-2.4497,-2.458,-2.4642,-2.4707,-2.4753,-2.4813,-2.4903,-2.4903,-2.4977,-2.5063,-2.5051,-2.5101,-2.5156,-2.5156,-2.5172,-2.5206,-2.5206,-2.5209,-2.5192,-2.5192,-2.5222,-2.5262,-2.5293,-2.536,-2.5401,-2.5437,-2.5517,-2.5557,-2.5544,-2.5562,-2.5554,-2.5595,-2.56,-2.5615,-2.564,-2.5644,-2.5652,-2.5648,-2.6058,-2.6866,-2.8168,-2.8658,-2.9462,-3.0757,-3.0796,-3.0798,-3.0801,-3.08,-3.0797,-3.0796,-3.0799,-3.0774,-3.0784,-3.2083,-3.2908,-3.5435,-3.4762,-3.3824,-3.2615,-3.1644,-3.0659,0.0,0.0,0.0,-2.8156,-2.7794,-2.7361,-2.6723,-2.6265,-2.5999,-2.5934,-2.5544,-2.5284,-2.5304,-2.4528,-2.3865,-2.3575,-2.3389,-2.3077,-2.256,-2.2473,-2.2394,-2.2273,-2.2402,-2.2632,-2.2934,-2.3319,-2.3625,-2.3824,-2.4276,-2.4661,-2.5005,-2.5432,-2.5791,-2.6206,-2.6468,-2.6742,-2.699,-2.6423,-2.5843,-2.5237,-2.4638,-2.4038,-2.3453,-2.3494,-2.3616,-2.3774,-2.3917,-2.4074,-2.4209,-2.4266,-2.4358,-2.4482,-2.4497,-2.4561,-2.4657,-2.4676,-2.4738,-2.4779,-2.4798,-2.4875,-2.4964,-2.4953,-2.5012,-2.5057,-2.5057,-2.5051,-2.5057,-2.5057,-2.5063,-2.508,-2.508,-2.5122,-2.5164,-2.5179,-2.522,-2.5292,-2.5367,-2.544,-2.5484,-2.549,-2.5478,-2.5511,-2.5577,-2.5583,-2.5582,-2.5571,-2.5576,-2.5586,-2.5604,-2.5609,-2.626,-2.7842,-2.8119,-2.8906,-3.0479,-3.0716,-3.0801,-3.0792,-3.0796,-3.0798,-3.08,-3.08,-3.0793,-3.0827,-3.1683,-3.2454,-3.4749,-3.4364,-3.3769,-3.2048,-3.1424,-3.0942,-2.9795,0.0,-2.9086,-2.87,0.0,-2.7946,-2.7465,0.0,0.0,-2.6241,-2.5749,-2.5342,-2.4988,-2.4581,-2.4326,-2.4382,-2.3814,-2.3348,-2.3188,-2.2729,-2.2441,-2.2569,-2.2723,-2.2934,-2.3231,-2.348,-2.3739,-2.4078,-2.4359,-2.4686,-2.5091,-2.5448,-2.5787,-2.6206,-2.6468,-2.6742,-2.699,-2.6361,-2.5784,-2.5181,-2.4559,-2.394,-2.3336,-2.3448,-2.3589,-2.3721,-2.3792,-2.3976,-2.419,-2.4209,-2.4303,-2.443,-2.4482,-2.4497,-2.4528,-2.458,-2.466,-2.4723,-2.4772,-2.4817,-2.4808,-2.4808,-2.487,-2.4912,-2.4912,-2.4921,-2.4915,-2.4915,-2.4929,-2.4942,-2.5006,-2.5019,-2.5032,-2.5094,-2.5125,-2.5153,-2.5293,-2.537,-2.5416,-2.5404,-2.5401,-2.5437,-2.5499,-2.5515,-2.5517,-2.5506,-2.5499,-2.5537,-2.5587,-2.5593,-2.6007,-2.6987,-2.7775,-2.8642,-2.9615,-3.0388,-3.0794,-3.0804,-3.0794,-3.0799,-3.0806,-3.0795,-3.0801,-3.0814,-3.1699,-3.214,-3.3799,-3.3267,-3.2609,-3.177,-3.1128,-3.0562,-2.9964,-2.9717,-2.9513,-2.9169,0.0,0.0,0.0,0.0,0.0,0.0,-2.6437,-2.6068,-2.5652,-2.5259,-2.4836,-2.4194,-2.3761,-2.3478,-2.3325,-2.3078,-2.2949,-2.3068,-2.3157,-2.329,-2.3581,-2.3754,-2.3967,-2.4219,-2.4523,-2.4806,-2.5091,-2.5454,-2.5791,-2.6099,-2.6399,-2.6691,-2.6908,-2.5822,-2.5281,-2.5136,-2.4034,-2.3443,-2.3313,-2.336,-2.3494,-2.3652,-2.3703,-2.3852,-2.4036,-2.4151,-2.4228,-2.4284,-2.4358,-2.4446,-2.4515,-2.4582,-2.4631,-2.4663,-2.4679,-2.4711,-2.4742,-2.4742,-2.4753,-2.4783,-2.4783,-2.4779,-2.4794,-2.4827,-2.4842,-2.4856,-2.4884,-2.4912,-2.494,-2.4966,-2.4974,-2.5013,-2.5099,-2.5209,-2.5273,-2.5284,-2.5322,-2.5341,-2.5388,-2.5415,-2.544,-2.5445,-2.5441,-2.5464,-2.5536,-2.5536,-2.5899,-2.678,-2.8126,-2.9266,-3.0108,-3.0541,-3.0734,-3.0745,-3.074,-3.0735,-3.0743,-3.0791,-3.0804,-3.0813,-3.1172,-3.1616,-3.2908,-3.2339,-3.1727,-3.1391,-3.0809,-3.0279,-3.0128,-2.9972,-2.9787,-2.957,-2.9314,0.0,0.0,0.0,-2.7964,-2.7542,0.0,-2.6791,-2.6386,-2.5999,-2.5411,-2.4364,-2.3979,-2.3739,-2.3581,-2.3538,-2.3523,-2.3595,-2.358,-2.3681,-2.3909,-2.4067,-2.4193,-2.4385,-2.4686,-2.4926,-2.5146,-2.5513,-2.5811,-2.601,-2.6329,-2.6657,-2.6842,-2.5658,-2.5136,-2.5118,-2.3833,-2.3288,-2.3265,-2.3289,-2.3407,-2.3585,-2.3652,-2.3747,-2.3894,-2.4054,-2.4151,-2.4209,-2.4247,-2.4339,-2.4446,-2.4515,-2.4532,-2.4549,-2.4549,-2.4582,-2.4615,-2.465,-2.4647,-2.466,-2.4676,-2.4676,-2.4676,-2.4726,-2.476,-2.4742,-2.4768,-2.4798,-2.4846,-2.4842,-2.4851,-2.4879,-2.4945,-2.5057,-2.5145,-2.5168,-2.522,-2.5241,-2.5243,-2.5303,-2.5351,-2.5351,-2.5359,-2.5395,-2.5432,-2.5451,-2.5912,-2.7028,-2.828,-2.9458,-3.0524,-3.0626,-3.0649,-3.0664,-3.0665,-3.0665,-3.0664,-3.074,-3.0778,-3.0763,-3.079,-3.1132,-3.2164,-3.1884,-3.1602,-3.0741,-3.0475,-3.0386,-3.0312,-3.0133,-2.9946,-2.9817,-2.9626,-2.9394,-2.9107,-2.8795,-2.8496,-2.821,-2.7776,0.0,0.0,-2.669,-2.6106,-2.5169,-2.4589,-2.4261,-2.4261,-2.4094,-2.4009,0.0,-2.4078,-2.412,-2.4261,-2.44,-2.4539,-2.4589,-2.4846,-2.5084,-2.5294,-2.5567,-2.5811,-2.601,-2.6329,-2.6657,-2.6876,-2.6175,-2.5622,-2.5153,-2.4416,-2.3737,-2.3217,-2.3265,-2.3383,-2.3517,-2.3585,-2.3696,-2.3807,-2.3876,-2.4036,-2.419,-2.419,-2.4266,-2.4321,-2.4303,-2.4358,-2.4412,-2.4412,-2.441,-2.4407,-2.4495,-2.4512,-2.4512,-2.4599,-2.4615,-2.4615,-2.4615,-2.4615,-2.4615,-2.4682,-2.4698,-2.4698,-2.4707,-2.4757,-2.4806,-2.4806,-2.4926,-2.5038,-2.5082,-2.5111,-2.5115,-2.5115,-2.516,-2.5212,-2.5212,-2.5264,-2.5293,-2.5313,-2.5313,-2.6044,-2.7749,-2.7914,-2.8724,-3.0424,-3.0511,-3.0539,-3.0604,-3.0602,-3.0599,-3.0603,-3.0665,-3.0704,-3.0709,-3.0762,-3.0806,0.0,0.0,-3.0927,-3.0588,-3.0479,-3.0455,-3.0386,-3.0292,-3.0147,-3.003,-2.9872,-2.9681,-2.9418,-2.9172,-2.8902,-2.8633,-2.8308,-2.7982,0.0,-2.7112,-2.659,-2.6227,-2.5572,-2.513,-2.5036,-2.4855,-2.4735,-2.4775,-2.4695,0.0,-2.5425,-2.5456,-2.5759,-2.6356,-2.6045,-2.595,-2.6163,-2.5961,-2.5881,-2.601,-2.6329,-2.6554,-2.6691,-2.616,-2.5596,-2.504,-2.4378,-2.3728,-2.3144,-2.3265,-2.336,-2.343,-2.3562,-2.3629,-2.3696,-2.3792,-2.3896,-2.4016,-2.4094,-2.419,-2.4228,-2.4229,-2.4284,-2.4339,-2.4339,-2.4339,-2.4338,-2.4375,-2.4375,-2.4375,-2.4393,-2.4393,-2.441,-2.4446,-2.4482,-2.4481,-2.4495,-2.4495,-2.4512,-2.4493,-2.4561,-2.4613,-2.4663,-2.4742,-2.4827,-2.494,-2.4974,-2.4981,-2.4981,-2.5031,-2.5068,-2.5068,-2.5126,-2.5171,-2.5171,-2.5696,-2.6539,-2.7692,-2.8272,-2.9094,-3.0309,-3.0364,-3.0398,-3.0458,-3.051,-3.0521,-3.053,-3.0593,-3.0634,-3.063,-3.0659,-3.0721,-3.0559,-3.0569,0.0,-3.051,-3.049,0.0,-3.0414,-3.0355,-3.026,-3.0166,-3.0064,-2.9905,-2.9681,-2.9475,-2.9254,-2.9012,-2.8749,-2.8422,0.0,-2.75,-2.7147,-2.6989,-2.6262,-2.5758,-2.5668,-2.546,-2.5323,-2.5323,-2.5502,-2.5775,0.0,-2.6411,-2.6802,-2.7306,-2.6967,-2.672,-2.6581,-2.6412,-2.6253,-2.6063,-2.6364,-2.6554,-2.6607,-2.6383,-2.5805,-2.4971,-2.4629,-2.3946,-2.3095,-2.3241,-2.3313,-2.3383,-2.3517,-2.3585,-2.3607,-2.3747,-2.3834,-2.3917,-2.4016,-2.4094,-2.4133,-2.4134,-2.4172,-2.4191,-2.4191,-2.4191,-2.4191,-2.421,-2.4228,-2.4229,-2.4266,-2.4266,-2.4266,-2.4321,-2.4321,-2.4321,-2.4321,-2.432,-2.4338,-2.4338,-2.4409,-2.4479,-2.4515,-2.4566,-2.4663,-2.4798,-2.4823,-2.4818,-2.4818,-2.4888,-2.4929,-2.4929,-2.4994,-2.5024,-2.5024,-2.5831,-2.6694,-2.7527,-2.8368,-2.9235,-3.0194,-3.0234,-3.026,-3.0337,-3.039,-3.0444,-3.0444,-3.05,-3.055,-3.0558,-3.0557,-3.061]},{"header":{"parameterUnit":"m.s-1","parameterCategory":1,"la1":30.6,"la2":29.2853,"lo1":-89.7004,"lo2":-87.6739,"dy":0.0162,"dx":0.0183,"nx":112,"ny":82,"refTime":"2023-07-01T06:00:00:Z","depth":0,"parameterNumber":3,"parameterNumberName":"V-component_of_WINDS"},"data":[0.0,0.0,0.0,0.0,0.0,0.0,0.0,0.0,0.0,0.0,0.0,0.0,0.0,0.0,0.0,0.0,0.0,0.0,0.0,0.0,0.0,0.0,0.0,0.0,0.0,0.0,0.0,0.0,0.0,0.0,0.0,0.0,0.0,0.0,0.0,0.0,0.0,0.0,0.0,0.0,0.0,0.0,0.0,0.0,0.0,0.0,0.0,0.0,0.0,0.0,0.0,0.0,0.0,0.0,0.0,0.0,0.0,0.0,0.0,0.0,0.0,0.0,0.0,0.0,0.0,0.0,0.0,0.0,0.0,0.0,0.0,0.0,0.0,0.0,0.0,0.0,0.0,0.0,0.0,0.0,0.0,0.0,0.0,0.0,0.0,0.0,0.0,0.0,0.0,0.0,-1.1799,-1.2072,-1.2454,-1.2875,-1.3483,-1.4496,-1.5567,-1.6617,0.0,0.0,0.0,0.0,0.0,0.0,0.0,0.0,0.0,0.0,0.0,0.0,0.0,0.0,0.0,0.0,0.0,0.0,0.0,0.0,0.0,0.0,0.0,0.0,0.0,0.0,0.0,0.0,0.0,0.0,0.0,0.0,0.0,0.0,0.0,0.0,0.0,0.0,0.0,0.0,0.0,0.0,0.0,0.0,0.0,0.0,0.0,0.0,0.0,0.0,0.0,0.0,0.0,0.0,0.0,0.0,0.0,0.0,0.0,0.0,0.0,0.0,0.0,0.0,0.0,0.0,0.0,0.0,0.0,0.0,0.0,0.0,0.0,0.0,0.0,0.0,0.0,0.0,0.0,0.0,0.0,0.0,0.0,0.0,0.0,0.0,0.0,0.0,0.0,0.0,0.0,0.0,0.0,0.0,0.0,0.0,0.0,0.0,0.0,0.0,0.0,0.0,0.0,0.0,-1.2044,-1.2565,-1.2619,-1.3052,-1.3913,-1.4824,-1.5726,-1.6617,0.0,0.0,0.0,0.0,0.0,0.0,0.0,0.0,0.0,0.0,0.0,0.0,0.0,0.0,0.0,0.0,0.0,0.0,0.0,0.0,0.0,0.0,0.0,0.0,0.0,0.0,0.0,0.0,0.0,0.0,0.0,0.0,0.0,0.0,0.0,0.0,0.0,0.0,0.0,0.0,0.0,0.0,0.0,0.0,0.0,0.0,0.0,0.0,0.0,0.0,0.0,0.0,0.0,0.0,0.0,0.0,0.0,0.0,0.0,0.0,0.0,0.0,0.0,0.0,0.0,0.0,0.0,0.0,0.0,0.0,0.0,0.0,0.0,0.0,0.0,0.0,0.0,0.0,0.0,0.0,0.0,0.0,0.0,0.0,0.0,0.0,0.0,0.0,0.0,0.0,0.0,0.0,0.0,0.0,0.0,0.0,0.0,0.0,0.0,0.0,0.0,0.0,0.0,-1.2376,-1.2618,-1.3008,-1.3307,-1.3737,-1.4412,-1.5242,-1.6229,-1.7196,-1.745,0.0,0.0,0.0,0.0,0.0,0.0,0.0,0.0,0.0,0.0,0.0,0.0,0.0,0.0,0.0,0.0,0.0,0.0,0.0,0.0,0.0,0.0,0.0,0.0,0.0,0.0,0.0,0.0,0.0,0.0,0.0,0.0,0.0,0.0,0.0,0.0,0.0,0.0,0.0,0.0,0.0,0.0,0.0,0.0,0.0,0.0,0.0,0.0,0.0,0.0,0.0,0.0,0.0,0.0,0.0,0.0,0.0,0.0,0.0,0.0,0.0,0.0,0.0,0.0,0.0,0.0,0.0,0.0,0.0,0.0,0.0,0.0,0.0,0.0,0.0,0.0,0.0,0.0,0.0,0.0,0.0,0.0,0.0,0.0,0.0,0.0,0.0,0.0,0.0,0.0,0.0,0.0,0.0,0.0,0.0,0.0,0.0,0.0,0.0,0.0,0.0,0.0,-1.2894,-1.3176,-1.3535,-1.3913,-1.4334,-1.4817,-1.5658,-1.6648,-1.7691,-1.7835,0.0,0.0,0.0,0.0,0.0,0.0,0.0,0.0,0.0,0.0,0.0,0.0,0.0,0.0,0.0,0.0,0.0,0.0,0.0,0.0,0.0,0.0,0.0,0.0,0.0,0.0,0.0,0.0,0.0,0.0,0.0,0.0,0.0,0.0,0.0,0.0,0.0,0.0,0.0,0.0,0.0,0.0,0.0,0.0,0.0,0.0,0.0,0.0,0.0,0.0,0.0,0.0,0.0,0.0,0.0,0.0,0.0,0.0,0.0,0.0,0.0,0.0,0.0,0.0,0.0,0.0,0.0,0.0,0.0,0.0,0.0,0.0,0.0,0.0,0.0,0.0,0.0,0.0,0.0,0.0,0.0,0.0,0.0,0.0,0.0,0.0,0.0,0.0,0.0,0.0,0.0,0.0,0.0,0.0,0.0,0.0,0.0,0.0,0.0,0.0,0.0,0.0,-1.3056,-1.3258,-1.3971,-1.4088,-1.4412,-1.5311,-1.5974,-1.6878,-1.7917,-1.8141,0.0,0.0,0.0,0.0,0.0,0.0,0.0,0.0,0.0,0.0,0.0,0.0,0.0,0.0,0.0,0.0,0.0,0.0,0.0,0.0,0.0,0.0,0.0,0.0,0.0,0.0,0.0,0.0,0.0,0.0,0.0,0.0,0.0,0.0,0.0,0.0,0.0,0.0,0.0,0.0,0.0,0.0,0.0,0.0,0.0,0.0,0.0,0.0,0.0,0.0,0.0,0.0,0.0,0.0,0.0,0.0,0.0,0.0,0.0,0.0,0.0,0.0,0.0,0.0,0.0,0.0,0.0,0.0,0.0,0.0,0.0,0.0,0.0,0.0,0.0,0.0,0.0,0.0,0.0,0.0,0.0,0.0,0.0,0.0,0.0,0.0,0.0,0.0,0.0,0.0,0.0,0.0,0.0,0.0,0.0,0.0,0.0,0.0,0.0,0.0,0.0,0.0,-1.3525,-1.3784,-1.4441,-1.4741,-1.5159,-1.5748,-1.6566,-1.7456,-1.8407,0.0,0.0,0.0,0.0,0.0,0.0,0.0,0.0,0.0,0.0,0.0,0.0,0.0,0.0,0.0,0.0,0.0,0.0,0.0,0.0,0.0,0.0,0.0,0.0,0.0,0.0,0.0,0.0,0.0,0.0,0.0,0.0,0.0,0.0,0.0,0.0,0.0,0.0,0.0,0.0,0.0,0.0,0.0,0.0,0.0,0.0,0.0,0.0,0.0,0.0,0.0,0.0,0.0,0.0,0.0,0.0,0.0,0.0,0.0,0.0,0.0,0.0,0.0,0.0,0.0,0.0,0.0,0.0,0.0,0.0,0.0,0.0,0.0,0.0,0.0,0.0,0.0,0.0,0.0,0.0,0.0,0.0,0.0,0.0,0.0,0.0,0.0,0.0,0.0,0.0,0.0,0.0,0.0,0.0,0.0,0.0,0.0,0.0,0.0,0.0,0.0,0.0,-1.4044,-1.4052,-1.4214,-1.492,-1.5401,-1.5824,-1.6252,-1.7066,-1.787,-1.8745,0.0,0.0,0.0,0.0,0.0,0.0,0.0,0.0,0.0,0.0,0.0,0.0,0.0,0.0,0.0,0.0,0.0,0.0,0.0,0.0,0.0,0.0,0.0,0.0,0.0,0.0,0.0,0.0,0.0,0.0,0.0,0.0,0.0,0.0,0.0,0.0,0.0,0.0,0.0,0.0,0.0,0.0,0.0,0.0,0.0,0.0,0.0,0.0,0.0,0.0,0.0,0.0,0.0,0.0,0.0,0.0,0.0,0.0,0.0,0.0,0.0,0.0,0.0,0.0,0.0,0.0,0.0,0.0,0.0,0.0,0.0,0.0,0.0,0.0,0.0,0.0,0.0,0.0,0.0,0.0,0.0,0.0,0.0,0.0,0.0,0.0,0.0,0.0,0.0,0.0,0.0,0.0,0.0,0.0,0.0,0.0,0.0,0.0,0.0,0.0,0.0,0.0,-1.4657,-1.4521,-1.4778,-1.5584,-1.5914,-1.6245,-1.6656,-1.7294,-1.8103,0.0,0.0,0.0,0.0,0.0,0.0,0.0,0.0,0.0,0.0,0.0,0.0,0.0,0.0,0.0,0.0,0.0,0.0,0.0,0.0,0.0,0.0,0.0,0.0,0.0,0.0,0.0,0.0,0.0,0.0,0.0,0.0,0.0,0.0,0.0,0.0,0.0,0.0,0.0,0.0,0.0,0.0,0.0,0.0,0.0,0.0,0.0,0.0,0.0,0.0,0.0,0.0,0.0,0.0,0.0,0.0,0.0,0.0,0.0,0.0,0.0,0.0,0.0,0.0,0.0,0.0,0.0,0.0,0.0,0.0,0.0,0.0,0.0,0.0,0.0,0.0,0.0,0.0,0.0,0.0,0.0,0.0,0.0,0.0,0.0,0.0,0.0,0.0,0.0,0.0,0.0,0.0,0.0,0.0,0.0,0.0,0.0,0.0,0.0,0.0,0.0,0.0,0.0,-1.4904,-1.5072,-1.541,-1.616,-1.6558,-1.6976,-1.7375,-1.8014,-1.8745,-1.9548,0.0,0.0,0.0,0.0,0.0,0.0,0.0,0.0,0.0,0.0,0.0,0.0,0.0,0.0,0.0,0.0,0.0,0.0,0.0,0.0,0.0,0.0,0.0,0.0,0.0,0.0,0.0,0.0,0.0,0.0,0.0,0.0,0.0,0.0,0.0,0.0,0.0,0.0,0.0,0.0,0.0,0.0,0.0,0.0,0.0,0.0,0.0,0.0,0.0,0.0,0.0,0.0,0.0,0.0,0.0,0.0,0.0,0.0,0.0,0.0,0.0,0.0,0.0,0.0,0.0,0.0,0.0,0.0,0.0,0.0,0.0,0.0,0.0,0.0,0.0,0.0,0.0,0.0,0.0,0.0,0.0,0.0,0.0,0.0,0.0,0.0,0.0,0.0,0.0,0.0,0.0,0.0,0.0,0.0,0.0,0.0,0.0,0.0,0.0,0.0,0.0,0.0,-1.5549,-1.5817,-1.6189,-1.6822,-1.7212,-1.7619,-1.8095,-1.8656,-1.9222,-2.002,0.0,0.0,0.0,0.0,0.0,0.0,0.0,0.0,0.0,0.0,0.0,0.0,0.0,0.0,0.0,0.0,0.0,0.0,0.0,0.0,0.0,0.0,0.0,0.0,0.0,0.0,0.0,0.0,0.0,0.0,0.0,0.0,0.0,0.0,0.0,0.0,0.0,0.0,0.0,0.0,0.0,0.0,0.0,0.0,0.0,0.0,0.0,0.0,0.0,0.0,0.0,0.0,0.0,0.0,0.0,0.0,0.0,0.0,0.0,0.0,0.0,0.0,0.0,0.0,0.0,0.0,0.0,0.0,0.0,0.0,0.0,0.0,0.0,0.0,0.0,0.0,0.0,0.0,0.0,0.0,0.0,0.0,0.0,0.0,0.0,0.0,0.0,0.0,0.0,0.0,0.0,0.0,0.0,0.0,0.0,0.0,0.0,0.0,0.0,0.0,0.0,0.0,-1.6345,-1.6702,-1.7217,-1.7738,-1.7951,-1.8273,-1.8736,-1.9143,-1.9706,-2.0342,0.0,0.0,0.0,0.0,0.0,0.0,0.0,0.0,0.0,0.0,0.0,0.0,0.0,0.0,0.0,0.0,0.0,0.0,0.0,0.0,0.0,0.0,0.0,0.0,0.0,0.0,0.0,0.0,0.0,0.0,0.0,0.0,0.0,0.0,0.0,0.0,0.0,0.0,0.0,0.0,0.0,0.0,0.0,0.0,0.0,0.0,0.0,0.0,0.0,0.0,0.0,0.0,0.0,0.0,0.0,0.0,0.0,0.0,0.0,0.0,-0.6983,-0.7454,0.0,0.0,0.0,0.0,0.0,0.0,0.0,0.0,0.0,0.0,0.0,0.0,0.0,0.0,0.0,0.0,0.0,0.0,0.0,0.0,0.0,0.0,0.0,0.0,0.0,0.0,0.0,0.0,0.0,0.0,0.0,0.0,0.0,0.0,0.0,0.0,0.0,0.0,0.0,0.0,-1.6716,-1.7235,-1.7761,-1.823,-1.8594,-1.8913,-1.9143,-1.9696,-2.0342,-2.0974,-2.1148,0.0,0.0,0.0,0.0,0.0,0.0,0.0,0.0,0.0,0.0,0.0,0.0,0.0,0.0,0.0,0.0,0.0,0.0,0.0,0.0,0.0,0.0,0.0,0.0,0.0,0.0,0.0,0.0,0.0,0.0,0.0,0.0,0.0,0.0,0.0,0.0,0.0,0.0,0.0,0.0,0.0,0.0,0.0,0.0,0.0,0.0,0.0,0.0,0.0,0.0,0.0,0.0,0.0,0.0,0.0,0.0,0.0,0.0,0.0,-0.7178,-0.7546,0.0,0.0,0.0,0.0,0.0,0.0,0.0,0.0,0.0,0.0,0.0,0.0,0.0,0.0,0.0,0.0,0.0,0.0,0.0,0.0,0.0,0.0,0.0,0.0,0.0,0.0,0.0,0.0,0.0,0.0,0.0,0.0,0.0,0.0,0.0,0.0,0.0,0.0,0.0,0.0,-1.7608,-1.8046,-1.8522,-1.8895,-1.9231,-1.9548,-1.9932,-2.042,-2.0964,-2.1436,-2.1805,0.0,0.0,0.0,0.0,0.0,0.0,0.0,0.0,0.0,0.0,0.0,0.0,0.0,0.0,0.0,0.0,0.0,0.0,0.0,0.0,0.0,0.0,0.0,0.0,0.0,0.0,0.0,0.0,0.0,0.0,0.0,0.0,0.0,0.0,0.0,0.0,0.0,0.0,0.0,0.0,0.0,0.0,0.0,0.0,0.0,0.0,0.0,0.0,0.0,0.0,0.0,0.0,0.0,-0.4072,-0.457,-0.5663,-0.5663,-0.6255,-0.7226,-0.7196,-0.7651,-0.8381,-0.9133,0.0,0.0,0.0,0.0,0.0,0.0,0.0,0.0,0.0,0.0,0.0,0.0,0.0,0.0,0.0,0.0,0.0,0.0,0.0,0.0,0.0,0.0,-1.7661,-1.8399,-1.8646,-1.8479,-1.7953,0.0,0.0,0.0,0.0,0.0,0.0,0.0,0.0,0.0,0.0,0.0,-1.8543,-1.8976,-1.932,-1.9724,-1.9942,-2.0255,-2.0644,-2.1041,-2.1512,-2.1949,-2.2478,-2.2752,0.0,0.0,0.0,0.0,0.0,0.0,0.0,0.0,0.0,0.0,0.0,0.0,0.0,0.0,0.0,0.0,0.0,0.0,0.0,0.0,0.0,0.0,0.0,0.0,0.0,0.0,0.0,0.0,0.0,0.0,0.0,0.0,0.2617,0.2331,0.0,0.0,0.0,0.0,0.0,0.0,0.0,0.0,0.0,0.0,0.0,0.0,0.0,-0.213,-0.2471,-0.2787,-0.3334,-0.4232,-0.4232,-0.4822,-0.5774,-0.5774,-0.6334,-0.7235,-0.7201,0.0,-0.8557,-0.9128,0.0,0.0,0.0,0.0,0.0,0.0,0.0,0.0,0.0,0.0,0.0,0.0,0.0,0.0,0.0,0.0,0.0,0.0,0.0,0.0,0.0,0.0,-1.8501,-1.899,-1.9084,-1.923,-1.9534,-1.8958,-1.843,-1.8523,-1.8797,-1.8957,0.0,0.0,0.0,0.0,0.0,0.0,-1.9183,-1.9773,-2.0186,-2.0186,-2.0566,-2.0876,-2.1128,-2.1502,-2.1959,-2.2553,-2.2852,-2.3276,-2.3952,-2.3826,0.0,0.0,0.0,0.0,0.0,0.0,0.0,0.0,0.0,0.0,0.0,0.0,0.0,0.0,0.0,0.0,0.0,0.0,0.0,0.0,0.0,0.0,0.0,0.0,0.0,0.0,0.0,0.0,0.0,0.3356,0.3078,0.2784,0.2547,0.2214,0.0,0.0,0.0,0.0,0.0,0.0,0.0,0.0,0.0,-0.0998,-0.1423,-0.1854,-0.2489,-0.262,-0.3277,-0.4261,-0.4261,-0.4851,-0.5796,-0.5796,-0.6347,-0.7238,-0.7238,-0.7799,-0.8724,-0.9213,-0.9749,-1.0254,0.0,0.0,0.0,0.0,-1.3397,-1.3829,-1.4203,-1.4662,-1.5079,-1.528,0.0,0.0,0.0,0.0,0.0,0.0,0.0,-1.8145,0.0,-1.9042,-1.9355,-1.992,-2.0149,-2.0202,-2.0189,-1.9955,-1.9638,-1.9417,-1.9556,-1.9571,-1.9394,-1.9676,0.0,0.0,0.0,-1.9976,-1.982,-2.0031,-2.0203,-2.0023,-2.0356,-2.0653,-2.0737,-2.1324,-2.1867,-2.2429,-2.2816,-2.3385,-2.4189,-2.4281,-2.4508,0.0,0.0,0.0,0.0,0.0,0.0,0.0,0.0,0.0,0.0,0.0,0.0,0.0,0.0,0.0,0.0,0.0,0.0,0.0,0.0,0.0,0.0,0.0,0.0,0.0,0.0,0.0,0.0,0.3758,0.3643,0.3254,0.3116,0.2865,0.0,0.0,0.0,0.0,0.0,0.0,0.0396,0.0,-0.0404,-0.0707,-0.1024,-0.1653,-0.2282,-0.2523,-0.3076,-0.4047,-0.4261,-0.4746,-0.5695,-0.5796,-0.6347,-0.7238,-0.7238,-0.7832,-0.8825,-0.9426,-0.992,-1.0609,-1.159,-1.2073,-1.2427,-1.3182,-1.3802,-1.429,-1.4578,-1.5139,-1.5656,-1.5889,-1.6289,-1.6743,-1.6941,0.0,0.0,0.0,0.0,-1.8673,-1.9217,-1.9581,-1.9913,-2.0554,-2.0793,-2.0808,-2.0734,-2.069,-2.0495,-2.0014,-2.0,-2.0098,-2.0098,-2.0342,0.0,-2.0498,-2.0556,-2.0523,-2.0357,-2.0292,-2.0166,-2.0052,-2.0359,-2.0573,-2.0634,-2.1199,-2.1712,-2.2286,-2.2857,-2.345,-2.4126,-2.4636,-2.5064,-2.5453,0.0,0.0,0.0,0.0,0.0,0.0,0.0,0.0,0.0,0.0,0.0,0.0,0.0,0.0,0.0,0.0,0.0,0.0,0.0,0.0,0.0,0.0,0.0,0.0,0.0,0.0,0.0,0.0,0.0,0.3894,0.343,0.0,0.0,0.0,0.0,0.161,0.1513,0.1211,0.0403,0.0101,-0.0101,-0.0404,-0.091,-0.1428,-0.1762,-0.2284,-0.2827,-0.3512,-0.4047,-0.4643,-0.5388,-0.5695,-0.6347,-0.7238,-0.7238,-0.7832,-0.8825,-0.9426,-1.0117,-1.09,-1.1683,-1.2462,-1.3033,-1.3437,-1.4112,-1.5064,-1.5064,-1.554,-1.6197,-1.6452,-1.6985,-1.7581,-1.7627,-1.7642,0.0,0.0,-1.8213,-1.8708,-1.8999,-1.9453,-1.9889,-2.0407,-2.0501,-2.0651,-2.1062,-2.1144,-2.0893,-2.0055,-2.0264,-2.0566,-2.0566,0.0,-2.1128,-2.1128,-2.0767,-2.0561,-2.0754,-2.0513,-2.0462,-2.0605,-2.0818,-2.109,-2.142,-2.149,-2.1779,-2.2365,-2.3005,-2.3548,-2.4014,-2.4708,-2.5336,-2.584,-2.591,0.0,0.0,0.0,0.0,0.0,0.0,0.0,0.0,0.0,0.0,0.0,0.0,0.0,0.0,0.0,0.0,0.0,0.0,0.0,0.0,0.0,0.0,0.0,0.0,0.0,0.0,0.0,0.0,0.4456,0.4123,0.0,0.3196,0.2998,0.2706,0.2119,0.1818,0.1516,0.1212,0.0606,0.0101,-0.0101,-0.0715,-0.1237,-0.1659,-0.2308,-0.2858,-0.3512,-0.4047,-0.4643,-0.518,-0.559,-0.6248,-0.6942,-0.7138,-0.7832,-0.8825,-0.9426,-1.0117,-1.09,-1.1688,-1.2467,-1.3147,-1.3624,-1.4304,-1.5178,-1.5458,-1.5927,-1.656,-1.7091,-1.7439,-1.7681,-1.7914,-1.8132,-1.8377,-1.8625,-1.8956,-1.9236,-1.9469,-1.9938,-2.0268,-2.0437,-2.0698,-2.0968,-2.1197,-2.1186,-2.1103,-2.082,-2.0886,-2.0974,-2.0974,-2.1349,-2.1476,-2.1189,-2.1217,-2.1053,-2.054,-2.038,-2.0239,-2.0012,-2.024,-2.0497,-2.062,-2.0897,-2.1374,-2.2035,-2.243,-2.3082,-2.4163,-2.4446,-2.4987,-2.5898,-2.591,-2.6119,0.0,0.0,0.0,0.0,0.0,0.0,0.0,0.0,0.0,0.0,0.0,0.0,0.0,0.0,0.0,0.0,0.0,0.0,0.0,0.0,0.0,0.0,0.0,0.0,0.0,0.5124,0.5032,0.5033,0.4702,0.4336,0.3833,0.3533,0.313,0.2724,0.2221,0.192,0.1617,0.1111,0.0606,0.0101,-0.0307,-0.0823,-0.1439,-0.208,-0.2615,-0.3137,-0.3869,-0.4364,-0.4824,-0.5435,-0.6088,-0.6778,-0.6976,-0.7733,-0.8661,-0.9247,-0.9925,-1.0798,-1.1549,-1.2304,-1.3087,-1.346,-1.4127,-1.4884,-1.5531,-1.6088,-1.66,-1.7206,-1.7528,-1.7771,-1.7989,-1.83,-1.8608,-1.8819,-1.9037,-1.9287,-1.9537,-1.9952,-2.02,-2.0365,-2.0693,-2.1043,-2.1084,-2.1174,-2.1272,-2.1217,-2.1324,-2.1385,-2.1156,-2.1494,-2.1638,-2.1115,-2.1185,-2.1009,-2.046,-2.0304,-2.0157,-1.9911,-2.0129,-2.0313,-2.0366,-2.0764,-2.1232,-2.1705,-2.2162,-2.2756,-2.3708,-2.4214,-2.4848,-2.5628,-2.5951,-2.6245,-2.6533,0.0,0.0,0.0,0.0,0.0,0.0,0.0,0.0,0.0,0.0,0.0,0.0,0.0,0.0,0.0,0.0,0.0,0.0,0.0,0.0,0.0,0.0,0.0,0.5501,0.5422,0.5525,0.5625,0.5135,0.4834,0.4834,0.4137,0.3534,0.323,0.2927,0.2423,0.1718,0.1617,0.1212,0.0404,0.0101,-0.0303,-0.0808,-0.1613,-0.2116,-0.242,-0.3524,-0.4128,-0.4431,-0.5227,-0.5965,-0.6643,-0.6843,-0.7538,-0.8337,-0.8893,-0.9727,-1.0677,-1.1363,-1.2066,-1.2871,-1.3053,-1.3592,-1.4398,-1.539,-1.6006,-1.6426,-1.6881,-1.7319,-1.7691,-1.7867,-1.7995,-1.8245,-1.8377,-1.8531,-1.8772,-1.9213,-1.945,-1.9696,-2.0148,-2.0459,-2.0605,-2.0867,-2.1165,-2.1404,-2.1102,-2.1455,-2.1621,-2.1176,-2.146,-2.152,-2.1073,-2.0615,0.0,-2.0568,-2.0347,-2.0183,-2.041,-2.0604,-2.0786,-2.0903,-2.1094,-2.1285,-2.1388,-2.2197,-2.2698,-2.271,-2.4032,-2.4871,-2.5124,-2.6052,-2.6533,-2.6533,0.0,0.0,0.0,0.0,0.0,0.0,0.0,0.0,0.0,0.0,0.0,0.0,0.0,0.0,0.0,0.0,0.0,0.0,0.0,0.0,0.0,0.6998,0.6961,0.6444,0.6192,0.6116,0.6124,0.5737,0.5236,0.4834,0.4634,0.4236,0.3534,0.323,0.2826,0.2221,0.1818,0.1314,0.0707,0.0202,-0.0303,-0.0808,-0.1395,-0.1879,-0.2371,-0.3216,-0.3778,-0.3971,-0.4934,-0.5686,-0.623,-0.6706,-0.7442,-0.8337,-0.8893,-0.9561,-1.0371,-1.1134,-1.1918,-1.2877,-1.3241,-1.4231,-1.5301,-1.5575,-1.6045,-1.6556,-1.6728,-1.7069,-1.7507,-1.7491,-1.795,-1.8412,-1.8558,-1.8772,-1.8939,-1.9049,-1.9198,-1.9354,-1.9353,-1.9584,-1.9955,-2.0102,-2.0459,-2.0689,-2.0782,-2.1163,-2.1371,-2.109,-2.1211,-2.1263,-2.079,-2.0801,0.0,-2.0512,-2.0477,-2.0529,-2.0604,-2.0722,-2.0903,-2.1094,-2.1273,-2.1463,-2.1726,-2.1993,-2.2381,-2.2903,-2.3748,-2.4743,-2.5896,-2.6321,-2.6533,0.0,0.0,0.0,0.0,0.0,0.0,0.0,0.0,0.0,0.0,0.0,0.0,0.0,0.0,0.0,0.0,0.0,0.0,0.0,0.0,0.0,0.0,0.7893,0.7854,0.7485,0.6966,0.6716,0.6842,0.6222,0.5721,0.5471,0.504,0.4624,0.4041,0.3646,0.3251,0.2661,0.2169,0.1677,0.1085,0.0592,0.0099,-0.0493,-0.1073,-0.1649,-0.2132,-0.2971,-0.3526,-0.3815,-0.4759,-0.5397,-0.5917,-0.6476,-0.7181,-0.8037,-0.8675,-0.9341,0.0,0.0,0.0,0.0,0.0,-1.4226,-1.5273,-1.5273,-1.5769,-1.6385,-1.6385,-1.6727,-1.7161,-1.7161,-1.7531,-1.7952,-1.8126,-1.8437,-1.8683,-1.8825,-1.8995,-1.9163,-1.9219,-1.9452,-1.9753,-1.9959,-2.0298,-2.0511,-2.0534,-2.0791,0.0,-2.0809,-2.1007,-2.1043,-2.0564,-2.0754,-2.0774,-2.0231,-2.0366,-2.0493,-2.0493,-2.0671,-2.0928,-2.1262,-2.1463,0.0,0.0,0.0,-2.2459,-2.3474,-2.392,0.0,0.0,0.0,-2.6533,-2.6533,0.0,0.0,0.0,-2.8524,-2.9063,0.0,0.0,0.0,0.0,0.0,0.0,0.0,0.0,0.0,0.0,0.0,0.0,0.0,0.0,0.0,0.0,0.9034,0.8878,0.8611,0.782,0.7409,0.7481,0.6625,0.6222,0.6335,0.557,0.4946,0.4571,0.4188,0.3616,0.3049,0.2574,0.0,0.0,0.0,0.0572,0.0,-0.0761,-0.1331,-0.1902,-0.2654,-0.3314,-0.3788,-0.4633,-0.5141,-0.5504,-0.6227,-0.6869,-0.7523,-0.8222,-0.9009,-0.973,-1.0647,-1.1385,-1.2128,-1.2965,-1.3884,-1.4629,-1.4629,0.0,0.0,-1.5973,-1.6324,-1.6773,-1.6773,-1.7004,-1.7278,-1.7446,-1.7821,-1.8184,-1.8561,-1.8781,-1.9,-1.9397,-1.9603,-1.9788,-1.987,-2.0203,-2.0407,-2.0169,-2.0285,-2.0346,-2.0257,-2.0632,-2.0798,-2.0388,-2.047,-2.0407,-1.9907,-2.0036,-2.0171,-2.0159,0.0,0.0,-2.1335,-2.1643,-2.1865,-2.1925,-2.2123,-2.2856,-2.4251,-2.43,-2.5004,-2.644,-2.6533,-2.6533,-2.6533,-2.757,-2.8109,-2.8122,-2.8737,-2.9302,0.0,0.0,0.0,0.0,0.0,0.0,0.0,0.0,0.0,0.0,0.0,0.0,0.0,0.0,0.0,1.0024,0.9979,0.9832,0.9398,0.9076,0.8595,0.7882,0.7227,0.6847,0.6685,0.6097,0.5611,0.5138,0.4664,0.4095,0.3336,0.3049,0.2478,0.1526,0.1431,0.0954,0.0,-0.0375,-0.0931,-0.1582,-0.2289,0.0,-0.3358,-0.4353,-0.4928,-0.5267,-0.5967,-0.6579,-0.7199,-0.7867,-0.8866,-0.9975,-1.0863,-1.156,-1.1996,-1.2569,-1.3287,-1.3992,-1.3992,-1.4547,-1.5271,-1.5271,-1.5771,-1.6418,-1.6418,-1.6894,0.0,-1.7521,-1.7895,-1.8331,-1.8212,-1.8342,-1.8469,-1.8547,-1.8664,-1.8778,-1.8757,-1.8992,-1.9169,-1.8826,-1.8927,-1.908,-1.9188,-1.9552,-1.9902,-1.9961,-1.9778,-1.9595,-1.9505,-1.9696,-1.9826,-1.9934,-1.9993,-2.0369,-2.1126,-2.1234,-2.1485,-2.2099,-2.2309,-2.2969,-2.4251,-2.4443,-2.5149,-2.644,-2.6533,-2.6533,-2.6533,-2.757,-2.8109,-2.8134,-2.9151,-2.9691,0.0,0.0,0.0,0.0,0.0,0.0,0.0,0.0,0.0,0.0,0.0,1.2146,1.2073,0.0,1.1585,1.1499,1.1241,1.0814,1.0381,1.012,0.9535,0.8463,0.7777,0.7305,0.7102,0.6679,0.6179,0.5535,0.517,0.462,0.3882,0.3328,0.2866,0.2219,0.1758,0.1203,0.074,0.0091,-0.0538,-0.1076,-0.1756,-0.2432,-0.2954,-0.3821,-0.4398,-0.4862,-0.5625,-0.6347,-0.6947,-0.7934,-0.886,-0.9752,-1.0337,-1.1031,-1.1846,-1.2406,-1.3035,-1.366,-1.3738,-1.4365,-1.5072,-1.5072,-1.5494,-1.603,-1.603,-1.6425,-1.6936,-1.6936,-1.7224,-1.7586,-1.7508,-1.7445,-1.757,-1.774,-1.782,-1.789,-1.8112,-1.8364,-1.8539,-1.8427,-1.8566,-1.8747,-1.901,-1.9048,-1.9175,-1.9565,-1.9587,-1.9456,-1.9182,-1.9275,-1.9402,-1.946,-1.9632,-2.0005,-2.0629,-2.1057,-2.1499,-2.2161,-2.2297,-2.2847,-2.3858,-2.436,-2.5078,-2.6013,-2.6382,-2.6533,-2.6533,-2.7293,-2.7833,-2.8122,-2.8963,-2.9515,0.0,0.0,0.0,0.0,0.0,0.0,0.0,1.4111,1.4253,1.4022,1.4047,1.4041,1.3808,1.3385,1.3039,1.2954,1.2443,1.1843,1.1327,1.1068,1.044,0.9285,0.8553,0.7989,0.7674,0.7217,0.67,0.5988,0.5725,0.5282,0.4567,0.3851,0.3309,0.2939,0.2138,0.1602,0.1418,0.0523,-0.0086,-0.0604,-0.1272,-0.1934,-0.2608,-0.3278,-0.3938,-0.4417,-0.5303,-0.6116,-0.6859,-0.7996,-0.8791,-0.9189,-0.9657,-1.0477,-1.1373,-1.2085,-1.2785,-1.3324,-1.3564,-1.4176,-1.4874,-1.4874,-1.5217,-1.556,-1.5495,-1.5837,-1.6139,-1.6069,-1.6364,-1.6647,-1.6647,-1.6661,-1.6792,-1.7106,-1.7169,-1.7326,-1.7718,-1.7941,-1.8102,-1.8197,-1.8295,-1.8533,-1.884,-1.8552,-1.8497,-1.9179,-1.9377,-1.9241,-1.8804,-1.8848,-1.896,-1.8983,-1.9262,-1.9666,-2.0284,-2.102,-2.1632,-2.2161,-2.2297,-2.2725,-2.3464,-2.4223,-2.4953,-2.5586,-2.6163,-2.6533,-2.6533,-2.7017,-2.757,-2.8122,-2.8674,-2.9239,1.3078,1.3447,1.3992,1.444,1.5057,1.5668,0.0,1.6147,1.6316,1.6085,1.5854,1.5628,1.5228,1.481,1.4398,1.3971,1.3555,1.296,1.2363,1.2015,1.1505,1.0497,0.9616,0.8915,0.8488,0.8036,0.7496,0.6962,0.6346,0.5816,0.5282,0.4567,0.3818,0.3138,0.279,0.2247,0.1355,0.076,0.0337,-0.0084,-0.101,-0.1681,-0.2186,-0.3025,-0.3737,-0.4308,-0.5407,-0.622,-0.6917,-0.7614,-0.8218,-0.8813,-0.9428,-0.99,-1.0453,-1.1277,-1.2026,-1.2702,-1.2924,-1.3513,-1.4244,-1.4244,-1.472,-1.5204,-1.4899,-1.524,-1.5739,-1.5411,-1.579,-1.6258,-1.6258,-1.6494,-1.6792,-1.7106,-1.7169,-1.7245,-1.7511,-1.7535,-1.7536,-1.7462,-1.7442,-1.7544,-1.7824,-1.7835,-1.807,-1.884,-1.8542,-1.8244,-1.8176,-1.834,-1.8503,-1.8654,-1.8774,-1.934,-2.0469,-2.1103,-2.1632,-2.2161,-2.2297,-2.2725,-2.3464,-2.4223,-2.4953,-2.5586,-2.6163,-2.6533,-2.6533,-2.7017,-2.757,-2.8122,-2.8674,-2.9239,1.5704,1.6005,1.6584,1.6828,1.7383,1.7873,1.818,1.8117,1.7989,1.7755,1.7432,1.7107,1.6788,1.6296,1.5801,1.547,1.4894,1.4139,1.3464,1.2954,1.2272,1.1499,1.0809,1.012,0.9078,0.8552,0.8025,0.7584,0.6966,0.6435,0.5816,0.5217,0.4463,0.373,0.3172,0.2631,0.2102,0.1328,0.0825,0.0413,-0.0488,-0.1213,-0.186,-0.2586,-0.3372,-0.4367,-0.5338,-0.6093,-0.6784,-0.7223,-0.778,-0.837,-0.8768,-0.929,-0.9896,-1.0997,-1.1781,-1.2278,-1.2545,-1.2985,-1.3461,-1.3484,-1.396,-1.4408,-1.4336,-1.4823,-1.5384,-1.5233,-1.5524,-1.5832,-1.5832,-1.5908,-1.6027,-1.6347,-1.6467,-1.6536,-1.6974,-1.7105,-1.7109,-1.7255,-1.7278,-1.739,-1.7656,-1.7711,-1.7889,-1.837,-1.8221,-1.8084,-1.8084,-1.8259,-1.8476,-1.8679,-1.8839,-1.9258,-2.0057,-2.061,-2.1151,-2.1692,-2.2128,-2.2517,-2.2873,-2.3652,-2.4402,-2.5015,-2.5619,-2.6126,-2.6533,-2.676,-2.708,-2.7632,-2.7858,-2.8374,1.8188,1.8399,1.8844,1.9062,1.9383,1.9763,2.0188,1.9982,1.958,1.9265,1.8948,1.8559,1.8175,1.7674,1.7107,1.6796,1.6057,1.522,1.4552,1.3802,1.3124,1.2443,1.1929,1.1154,1.0038,0.9336,0.8811,0.8292,0.7672,0.7122,0.6471,0.5854,0.5173,0.4431,0.369,0.3152,0.2642,0.1868,0.1289,0.0886,0.0,-0.0786,-0.1335,-0.226,-0.3182,-0.4185,-0.4996,-0.5667,-0.627,-0.6756,-0.7367,-0.7938,-0.8222,-0.872,-0.9524,-1.0532,-1.1326,-1.1814,-1.21,-1.2522,-1.291,-1.3021,-1.34,-1.3842,-1.3934,-1.443,-1.4874,-1.4897,-1.5086,-1.5345,-1.5415,-1.5367,-1.543,-1.5798,-1.5914,-1.6087,-1.6637,-1.6751,-1.6874,-1.7145,-1.7267,-1.7379,-1.7601,-1.7656,-1.7767,-1.803,-1.8084,-1.8084,-1.8084,-1.8259,-1.8476,-1.8744,-1.8893,-1.9162,-1.9732,-2.0273,-2.0815,-2.1368,-2.2007,-2.2359,-2.242,-2.3119,-2.3862,-2.4496,-2.5149,-2.5752,-2.6327,-2.6327,-2.6602,-2.7139,-2.7139,-2.7566,2.0501,2.0479,2.0636,2.0995,2.1142,2.1345,2.1858,2.1669,2.1308,2.0837,2.0527,2.0148,1.9381,1.8886,1.8327,1.7772,1.696,1.6147,1.5477,1.481,1.4146,1.3476,1.279,1.2186,1.1677,1.0641,0.9777,0.9257,0.8552,0.7869,0.7282,0.6586,0.5782,0.489,0.4387,0.3696,0.2832,0.2199,0.1649,0.1258,0.0393,-0.0236,-0.0706,-0.2298,-0.3255,-0.3701,-0.4421,-0.4951,-0.5384,-0.6097,-0.6813,-0.738,-0.7872,-0.8508,-0.9076,-0.9637,-1.0408,-1.125,-1.1587,-1.2133,-1.2683,-1.3013,-1.3333,-1.3587,-1.363,-1.3857,-1.4096,-1.403,-1.4267,-1.4616,-1.493,-1.5098,-1.5332,-1.5798,-1.5914,-1.6029,-1.6524,-1.6694,-1.6864,-1.6955,-1.7145,-1.7323,-1.7479,-1.759,-1.7755,-1.7909,-1.803,-1.8084,-1.8084,-1.8259,-1.8476,-1.8744,-1.8798,-1.9054,-1.9732,-2.0286,-2.0839,-2.1368,-2.1909,-2.2247,-2.242,-2.2931,-2.3542,-2.4288,-2.4829,-2.5369,-2.591,-2.591,-2.6181,-2.6709,-2.6709,-2.6992,2.2614,2.2589,2.2731,2.2598,2.2912,2.3115,2.3093,2.2937,2.2723,2.2371,2.1918,2.1375,2.0847,2.0148,1.9441,1.8895,1.8006,1.7196,1.6394,1.556,1.481,1.4146,1.347,1.2875,1.2448,1.1154,1.0207,0.9781,0.9253,0.8562,0.7777,0.7161,0.635,0.5359,0.4795,0.4187,0.3452,0.2824,0.2196,0.1648,0.0392,-0.0467,-0.0996,-0.1974,-0.2697,-0.3242,-0.4017,-0.4654,-0.5365,-0.5701,-0.6286,-0.6961,-0.7183,-0.7741,-0.841,-0.8942,-0.9532,-1.0208,-1.0936,-1.1542,-1.1904,-1.202,-1.2393,-1.2751,-1.3016,-1.3347,-1.3743,-1.3925,-1.424,-1.4597,-1.4911,-1.5098,-1.5274,-1.5682,-1.5856,-1.6029,-1.6374,-1.6591,-1.674,-1.6955,-1.7067,-1.719,-1.7468,-1.7534,-1.7645,-1.7854,-1.8018,-1.8084,-1.8084,-1.8259,-1.8422,-1.853,-1.8625,-1.875,-1.897,-1.9912,-2.0555,-2.0734,-2.1644,-2.2185,-2.2247,-2.2528,-2.2943,-2.3542,-2.4222,-2.4829,-2.5369,-2.5738,-2.5996,-2.6181,-2.6181,-2.6392,2.446,2.4288,2.4283,2.4111,2.4139,2.4256,2.433,2.4108,2.3902,2.3672,2.3117,2.2596,2.2004,2.1318,2.0557,1.9854,1.8975,1.8095,1.7286,1.6386,1.556,1.4977,1.423,1.3561,1.313,1.2015,1.1068,1.0554,0.9951,0.9311,0.8363,0.7745,0.7011,0.5927,0.5364,0.4696,0.4153,0.3372,0.2588,0.1804,0.0622,-0.0307,-0.0984,-0.1633,-0.2262,-0.273,-0.3484,-0.4172,-0.4798,-0.5133,-0.5777,-0.6439,-0.6726,-0.7269,-0.7852,-0.8376,-0.8888,-0.9484,-1.0445,-1.0965,-1.1318,-1.15,-1.1872,-1.2305,-1.2621,-1.2981,-1.339,-1.37,-1.4061,-1.4419,-1.4725,-1.497,-1.5215,-1.5488,-1.573,-1.5972,-1.6249,-1.6467,-1.6627,-1.6842,-1.6955,-1.7067,-1.729,-1.7412,-1.7579,-1.7799,-1.792,-1.7975,-1.8084,-1.8193,-1.8313,-1.8367,-1.8464,-1.8572,-1.8614,-1.9471,-2.0108,-2.0286,-2.1296,-2.1932,-2.2123,-2.2235,-2.2551,-2.3147,-2.3758,-2.4359,-2.4883,-2.542,-2.5688,-2.5688,-2.5688,-2.5788,2.6051,2.5591,2.5312,2.5499,2.5057,2.4764,2.5535,2.5177,2.4776,2.4708,2.4288,2.374,2.2927,2.2252,2.1568,2.0722,1.9706,1.8834,1.8184,1.7147,1.6335,1.5839,1.5006,1.4328,1.3822,1.313,1.2357,1.1494,1.0722,1.0028,0.921,0.8518,0.7696,0.6659,0.6015,0.5392,0.4698,0.3837,0.2823,0.1649,0.0919,0.0227,-0.0604,-0.1291,-0.1821,-0.2236,-0.2858,-0.3424,-0.3825,-0.4495,-0.5226,-0.5954,-0.6478,-0.7003,-0.7521,-0.8042,-0.8495,-0.9081,-0.9983,-1.0491,-1.087,-1.1373,-1.1809,-1.212,-1.2498,-1.2744,-1.3042,-1.339,-1.3761,-1.407,-1.441,-1.4715,-1.5029,-1.5303,-1.5662,-1.5904,-1.6066,-1.6343,-1.657,-1.657,-1.6786,-1.7011,-1.7011,-1.7234,-1.7523,-1.7656,-1.7711,-1.7755,-1.803,-1.8084,-1.8139,-1.8367,-1.8367,-1.841,-1.856,-1.9065,-1.9582,-2.0088,-2.0784,-2.1378,-2.1851,-2.2061,-2.2426,-2.2931,-2.346,-2.3977,-2.4482,-2.5011,-2.5288,-2.5312,-2.5312,-2.5312,2.7333,2.6834,2.6404,2.6129,2.595,2.5724,2.5445,2.5691,2.5757,2.5222,2.4871,2.4515,2.374,2.2852,2.1949,2.1195,2.0255,1.9491,1.8965,1.8103,1.7271,1.6707,1.6015,1.5241,1.4503,1.3984,1.3392,1.2613,1.1585,1.0691,0.9829,0.917,0.832,0.7292,0.6695,0.5941,0.5165,0.3834,0.2821,0.204,0.1379,0.075,0.0147,-0.0498,-0.1178,-0.1767,-0.2495,-0.3222,-0.3825,-0.4425,-0.5027,-0.5557,-0.6148,-0.6609,-0.7138,-0.7787,-0.8312,-0.8705,-0.946,-1.0104,-1.0681,-1.1122,-1.1435,-1.1809,-1.2243,-1.256,-1.2805,-1.3329,-1.37,-1.395,-1.4419,-1.4656,-1.4843,-1.5205,-1.5371,-1.5604,-1.5904,-1.6124,-1.6285,-1.657,-1.6751,-1.6853,-1.6955,-1.7067,-1.7234,-1.7534,-1.7523,-1.759,-1.7767,-1.781,-1.7865,-1.8018,-1.8018,-1.8073,-1.8193,-1.8821,-1.9389,-1.9925,-2.0605,-2.1195,-2.1737,-2.1824,-2.1945,-2.219,-2.2703,-2.3293,-2.3965,-2.447,-2.4927,-2.5312,-2.5312,-2.5312,2.8352,2.7815,2.7246,2.6864,2.6486,2.6147,2.5805,2.5985,2.6142,2.5668,2.5492,2.517,2.4383,2.3508,2.2628,2.1883,2.1103,2.0442,1.987,1.9143,1.8414,1.775,1.6924,1.6074,1.529,1.474,1.4159,1.3561,1.2448,1.1395,1.0496,0.9776,0.8909,0.7911,0.7188,0.6328,0.5321,0.4226,0.3288,0.2585,0.1817,0.1109,0.0509,-0.014,-0.075,-0.1412,-0.2083,-0.2686,-0.3355,-0.4023,-0.4625,-0.5229,-0.5822,-0.635,-0.6749,-0.7526,-0.7987,-0.8376,-0.9075,-0.9652,-1.0231,-1.0681,-1.1185,-1.1685,-1.1996,-1.2305,-1.2683,-1.3155,-1.3459,-1.3761,-1.4181,-1.4478,-1.4656,-1.4902,-1.5186,-1.5478,-1.5662,-1.5836,-1.6124,-1.6477,-1.6637,-1.6751,-1.6909,-1.6909,-1.6965,-1.7145,-1.72,-1.72,-1.7323,-1.7545,-1.7711,-1.781,-1.781,-1.7865,-1.792,-1.8324,-1.8918,-1.9608,-2.0157,-2.0766,-2.1514,-2.1635,-2.1761,-2.1812,-2.2332,-2.2799,-2.3227,-2.3966,-2.4467,-2.4765,-2.4933,-2.5111,2.909,2.8511,2.7864,2.7494,2.6864,2.6332,2.6272,2.6226,2.6162,2.6026,2.595,2.5591,2.485,2.4082,2.3372,2.2553,2.1927,2.1291,2.0704,2.0096,1.9411,1.8721,1.7752,1.6846,1.6149,1.5375,1.4699,1.4257,1.3222,1.2178,1.121,1.0362,0.938,0.8431,0.7565,0.656,0.5318,0.4774,0.3992,0.3209,0.2314,0.1531,0.08,0.0138,-0.047,-0.1076,-0.1614,-0.2151,-0.2753,-0.3489,-0.4161,-0.4831,-0.5491,-0.602,-0.6416,-0.7134,-0.7637,-0.8006,-0.8645,-0.907,-0.9491,-1.0338,-1.1003,-1.156,-1.1747,-1.212,-1.256,-1.2867,-1.3216,-1.3571,-1.3821,-1.4181,-1.4538,-1.4647,-1.5001,-1.5294,-1.541,-1.5662,-1.5972,-1.6259,-1.642,-1.6581,-1.6705,-1.6761,-1.6751,-1.6818,-1.6818,-1.6818,-1.6818,-1.7267,-1.7601,-1.7656,-1.7656,-1.7656,-1.7711,-1.781,-1.8284,-1.9279,-1.9654,-2.0294,-2.129,-2.1486,-2.1635,-2.1624,-2.2133,-2.2392,-2.2474,-2.3414,-2.3908,-2.399,-2.4543,-2.4861,2.9515,2.8904,2.8286,2.7825,2.7152,2.6486,2.6075,2.596,2.5915,2.5811,2.5557,2.5289,2.5004,2.4238,2.3372,2.2553,2.2025,2.1569,2.104,2.0589,2.0062,1.9624,1.8684,1.7802,1.7125,1.6252,1.5439,1.4943,1.425,1.3288,1.2213,1.1117,0.9797,0.824,0.7342,0.6475,0.5547,0.4929,0.4309,0.3682,0.291,0.2186,0.1601,0.0758,0.0,-0.0672,-0.1344,0.0,-0.2753,-0.3286,-0.3892,-0.4434,-0.5027,-0.5554,-0.6086,-0.6745,-0.7168,-0.7462,-0.8085,-0.8382,-0.8758,-1.0145,-1.0744,-1.1052,-1.1498,-1.1872,-1.2251,-1.256,-1.2972,-1.339,-1.3511,-1.395,-1.4378,-1.4478,-1.4706,-1.4942,-1.5294,-1.5662,-1.5914,-1.5972,-1.6066,-1.6239,-1.6431,-1.6534,-1.6694,-1.6751,-1.6818,-1.6818,-1.6818,-1.6874,-1.7043,-1.7334,-1.739,-1.7434,-1.7656,-1.7711,-1.8182,-1.9182,-1.931,-1.981,-2.0921,-2.1031,-2.1158,-2.1463,-2.1556,-2.1888,-2.2474,-2.305,-2.3555,-2.399,-2.4543,-2.479,2.9605,2.8997,2.8383,2.7925,2.7203,2.6457,2.5948,2.5695,2.5648,2.5605,2.5418,2.5247,2.5133,2.4455,2.3677,2.2852,2.2611,2.2271,2.1744,2.1398,2.1085,2.0456,1.966,1.8707,1.7658,1.7009,1.6254,1.5347,1.4741,1.3899,1.279,1.1299,0.9856,0.8493,0.771,0.7015,0.6318,0.5547,0.4851,0.407,0.3282,0.2478,0.1747,0.1103,0.0403,-0.0269,-0.0807,-0.1479,-0.215,-0.2818,-0.3489,-0.4095,-0.4694,-0.5176,-0.5564,-0.6209,-0.6602,-0.6866,-0.7537,-0.7887,-0.8244,-0.9284,-1.0023,-1.0581,-1.1005,-1.1428,-1.1934,-1.2436,-1.2744,-1.3033,-1.339,-1.37,-1.395,-1.4309,-1.4538,-1.4775,-1.5128,-1.543,-1.5662,-1.5662,-1.5836,-1.6019,-1.6144,-1.6192,-1.6249,-1.6306,-1.6306,-1.6306,-1.6306,-1.6306,-1.6534,-1.6987,-1.7043,-1.7099,-1.7211,-1.7379,-1.791,-1.8884,-1.913,-1.9688,-2.0741,-2.0786,-2.0839,-2.1031,-2.1031,-2.122,-2.1666,-2.2174,-2.275,-2.3328,-2.3851,-2.4246,2.956,2.8935,2.8286,2.7825,2.7086,2.6297,2.577,2.551,2.5421,2.5418,2.5353,2.5247,2.5216,2.4611,2.3897,2.315,2.3034,2.2839,2.2175,2.2083,2.182,2.1266,2.0375,1.9394,1.8254,1.7688,1.6922,1.5756,1.5068,1.4176,1.2878,1.1396,1.0084,0.887,0.8169,0.7553,0.6942,0.6089,0.5315,0.4535,0.3653,0.2767,0.2038,0.1448,0.0807,0.0067,-0.0336,-0.0874,-0.1614,-0.2284,-0.3021,-0.3689,-0.4331,-0.4717,-0.5061,-0.5719,-0.6092,-0.6292,-0.7008,-0.7336,-0.7645,-0.8224,-0.9147,-1.004,-1.047,-1.1016,-1.1596,-1.2228,-1.2498,-1.2683,-1.3155,-1.339,-1.3631,-1.4139,-1.4428,-1.4715,-1.4843,-1.5137,-1.5303,-1.5303,-1.5546,-1.5788,-1.5788,-1.5856,-1.5914,-1.5914,-1.5914,-1.5914,-1.5914,-1.5914,-1.6087,-1.6534,-1.6648,-1.6761,-1.6818,-1.714,-1.7676,-1.8512,-1.8978,-1.9616,-2.056,-2.0604,-2.0669,-2.0669,-2.0669,-2.0733,-2.0839,-2.1359,-2.1945,-2.2456,-2.3005,-2.3649,2.9257,2.8654,2.8027,2.7494,2.6811,2.6176,2.5563,2.5382,2.5361,2.5242,2.509,2.5018,2.5051,2.4455,2.3751,2.3075,2.3034,2.2839,2.2175,2.2083,2.2008,2.1642,2.0799,1.9958,1.9153,1.8267,1.7445,1.6613,1.5401,1.3911,1.219,1.1617,1.0644,0.9261,0.8484,0.7714,0.6942,0.6247,0.555,0.4924,0.4173,0.3493,0.2837,0.1932,0.1143,0.0403,-0.0202,-0.0807,0.0,-0.2018,-0.2555,-0.3149,-0.3522,-0.4121,-0.4734,-0.5279,-0.5545,-0.5748,-0.6386,-0.666,-0.6877,-0.7149,-0.8185,-0.9401,-1.004,-1.0678,-1.124,-1.1603,-1.2127,-1.2621,-1.2683,-1.3094,-1.3571,-1.3941,-1.43,-1.4529,-1.4529,-1.4784,-1.5029,-1.5029,-1.5245,-1.5478,-1.5478,-1.573,-1.5914,-1.5914,-1.5914,-1.5914,-1.5914,-1.5914,-1.5914,-1.5972,-1.6259,-1.6545,-1.6761,-1.7211,-1.7728,-1.8219,-1.8876,-1.9467,-2.015,-2.0324,-2.054,-2.0669,-2.0669,-2.0733,-2.0733,-2.1216,-2.1464,-2.1531,-2.2486,-2.3089,2.8732,2.8222,2.7645,2.7086,2.6404,2.577,2.5147,2.493,2.48,2.481,2.476,2.4687,2.4732,2.4261,2.3677,2.2927,2.2955,2.292,2.2431,2.2341,2.2185,2.2008,2.1186,2.0349,1.9333,1.8646,1.7656,1.62,1.5308,1.4198,1.281,1.2,1.0971,0.9711,0.9008,0.8322,0.7638,0.6865,0.6089,0.5386,0.4469,0.3787,0.3129,0.2345,0.1614,0.0941,0.0336,-0.0269,0.0,-0.1547,-0.2218,-0.288,-0.332,-0.3753,-0.4238,-0.4707,-0.5024,-0.5278,-0.5892,-0.6229,-0.6495,-0.6923,-0.7592,-0.8335,-0.9356,-1.0093,-1.0728,-1.141,-1.1809,-1.2058,-1.2498,-1.2972,-1.345,-1.3631,-1.3881,-1.4121,-1.4181,-1.4478,-1.4715,-1.4715,-1.4961,-1.5137,-1.5137,-1.5264,-1.5391,-1.5391,-1.5391,-1.5391,-1.5391,-1.5449,-1.5498,-1.5604,-1.5904,-1.6144,-1.6259,-1.6846,-1.7413,-1.7924,-1.8647,-1.9254,-1.977,-1.9868,-1.9944,-2.0074,-2.014,-2.0259,-2.0313,-2.0653,-2.1029,-2.1375,-2.1846,-2.2351,2.8061,2.758,2.7086,2.6443,2.5865,2.5327,2.4865,2.4598,2.4495,2.4517,2.4522,2.446,2.442,2.397,2.3501,2.2972,2.2972,2.2971,2.2704,2.2504,2.2353,2.2185,2.1544,2.0704,1.9496,1.8625,1.76,1.6102,1.536,1.4554,1.3437,1.2397,1.1282,1.0084,0.9463,0.878,0.8102,0.7326,0.6556,0.578,0.4842,0.4077,0.3564,0.2689,0.2017,0.1412,0.0874,0.0269,0.0,-0.1076,-0.1738,-0.2381,-0.2895,-0.337,-0.3748,-0.421,-0.4551,-0.4846,-0.5449,-0.5837,-0.6168,-0.6652,-0.709,-0.7612,-0.8691,-0.9525,-1.0254,-1.1071,-1.1435,-1.1747,-1.2367,-1.2797,-1.3155,-1.3268,-1.3459,-1.37,-1.3821,-1.4061,-1.4291,-1.435,-1.4547,-1.4793,-1.4852,-1.4902,-1.4911,-1.497,-1.497,-1.497,-1.497,-1.5098,-1.5205,-1.5245,-1.5488,-1.5732,-1.6036,-1.6687,-1.7257,-1.777,-1.8532,-1.9124,-1.9462,-1.9539,-1.9605,-1.9605,-1.9736,-1.9868,-1.9977,-2.0064,-2.0435,-2.0964,-2.1108,-2.1698,2.7225,2.6707,2.6176,2.5563,2.509,2.4753,2.4632,2.4671,2.4726,2.4725,2.4589,2.4418,2.4273,2.3519,2.3079,2.3339,2.3022,2.292,2.3126,2.2698,2.2441,2.2441,2.183,2.0988,2.0,1.8402,1.7237,1.6738,1.584,1.4874,1.3923,1.2828,1.1701,1.0524,0.9695,0.8941,0.8102,0.7326,0.6714,0.6257,0.5214,0.4509,0.4143,0.3168,0.242,0.1884,0.1143,0.0605,0.0,-0.0538,-0.1058,-0.1542,-0.2184,-0.2783,-0.3338,-0.3848,-0.4242,-0.4574,-0.5132,-0.5508,-0.5832,-0.6119,-0.6603,-0.728,-0.8172,-0.9038,-0.9813,-1.0456,-1.1059,-1.1685,-1.2182,-1.2436,-1.2621,-1.2805,-1.3033,-1.3329,-1.3511,-1.364,-1.383,-1.401,-1.413,-1.424,-1.4469,-1.4588,-1.4775,-1.497,-1.497,-1.497,-1.497,-1.497,-1.497,-1.497,-1.5039,-1.5438,-1.6397,-1.6908,-1.7423,-1.7865,-1.8629,-1.9131,-1.9075,-1.9407,-1.9605,-1.9605,-1.9605,-1.9605,-1.9615,-1.9615,-1.9736,-1.9955,-2.0363,-2.1054,2.6496,2.6,2.5453,2.4894,2.4641,2.4387,2.4015,2.4153,2.4258,2.4001,2.3893,2.3751,2.3446,2.3349,2.3165,2.2762,2.3041,2.3193,2.2998,2.2611,2.2441,2.2441,2.1332,2.03,1.9539,1.8477,1.7473,1.673,1.6023,1.5171,1.4365,1.3244,1.2175,1.0968,1.0143,0.9468,0.8941,0.8097,0.7347,0.6479,0.5536,0.4893,0.4383,0.3483,0.2822,0.2418,0.168,0.1076,0.0605,-0.0134,-0.0727,-0.122,-0.1746,-0.2298,-0.287,-0.3227,-0.3688,-0.4242,-0.4743,-0.5128,-0.5513,-0.595,-0.6332,-0.6788,-0.7708,-0.8504,-0.9269,-1.0332,-1.0996,-1.1428,-1.1747,-1.1934,-1.212,-1.2367,-1.2613,-1.2858,-1.2981,-1.3277,-1.3519,-1.3631,-1.3821,-1.401,-1.4121,-1.4181,-1.4249,-1.4309,-1.4309,-1.4378,-1.4506,-1.4606,-1.4715,-1.4775,-1.4911,-1.526,-1.5974,-1.6599,-1.7159,-1.765,-1.8298,-1.8674,-1.8674,-1.8808,-1.8875,-1.9075,-1.9208,-1.9274,-1.9417,-1.9539,-1.9605,-1.9681,-2.0162,-2.0608,2.5342,2.5063,2.4607,2.4249,2.3971,2.3841,2.3762,2.3712,2.3688,2.3601,2.3453,2.3205,2.3005,2.2979,2.2987,2.2855,2.3063,2.3163,2.3067,2.2805,2.253,2.2353,2.1025,2.0032,1.9598,1.865,1.7789,1.7221,1.6228,1.5443,1.4754,1.3604,1.2526,1.1558,1.0663,0.9846,0.9322,0.8484,0.7702,0.6849,0.5947,0.5225,0.4674,0.3874,0.3293,0.2822,0.2217,0.1613,0.0,0.0336,-0.0329,-0.0822,-0.1365,-0.1921,-0.242,-0.2873,-0.3352,-0.3858,-0.4356,-0.4746,-0.5132,-0.5567,-0.6161,-0.6791,-0.7592,-0.84,-0.923,-1.014,-1.0681,-1.1059,-1.1247,-1.1428,-1.1677,-1.1996,-1.2182,-1.2375,-1.256,-1.2858,-1.3094,-1.3216,-1.3407,-1.3528,-1.37,-1.3761,-1.3821,-1.389,-1.395,-1.407,-1.4139,-1.4249,-1.4359,-1.4419,-1.4547,-1.4958,-1.5713,-1.6239,-1.6834,-1.7492,-1.8054,-1.8279,-1.8279,-1.8414,-1.8549,-1.8674,-1.8808,-1.8942,-1.9019,-1.9274,-1.9407,-1.9417,-1.9846,-2.0119,0.0,2.3956,2.3697,2.3555,2.3362,2.3239,2.3698,2.3372,0.0,2.343,2.3097,2.2735,2.2931,2.2668,2.2693,2.338,2.3123,2.3028,2.3444,2.3067,2.2627,2.2185,2.1025,2.0277,2.0192,1.8897,1.8023,1.7997,1.6612,1.5589,1.5119,1.397,1.2973,1.2378,1.1186,1.0218,0.9397,0.856,0.7849,0.7204,0.6306,0.5573,0.5002,0.4344,0.3761,0.3226,0.2686,0.215,0.1614,0.0874,0.0195,-0.037,-0.1047,-0.1601,-0.2015,-0.2627,-0.3074,-0.3413,-0.3971,-0.4359,-0.4746,-0.5187,-0.6107,-0.7146,-0.7617,-0.8555,-0.9524,-0.9856,-1.0238,-1.0561,-1.0744,-1.0996,-1.1303,-1.1498,-1.1685,-1.1864,-1.2182,-1.2375,-1.256,-1.2744,-1.2867,-1.3042,-1.3208,-1.339,-1.3511,-1.3709,-1.383,-1.395,-1.395,-1.395,-1.395,-1.401,-1.401,-1.4434,-1.5515,-1.5982,-1.6552,-1.7413,-1.7803,-1.794,-1.794,-1.8279,-1.8414,-1.8482,-1.8482,-1.8482,-1.8482,-1.8875,-1.9075,-1.9065,-1.9407,-1.9539,2.2002,0.0,2.3292,2.2895,2.3148,2.3398,0.0,2.3,2.3007,2.2905,2.2679,2.2491,2.2527,2.2807,2.3029,2.2978,2.3212,2.3298,2.3212,2.2979,2.2706,2.2353,2.1522,2.0857,2.0539,1.9625,1.862,1.7699,1.7004,1.6162,1.5241,1.4367,1.355,1.2746,1.1855,1.1037,1.0218,0.9392,0.8524,0.7507,0.6817,0.608,0.5276,0.4706,0.4159,0.3625,0.309,0.2554,0.2018,0.1345,0.0846,0.0309,-0.037,-0.095,-0.1514,-0.2127,-0.2629,-0.3074,-0.358,-0.3971,-0.4415,-0.5077,-0.5874,-0.6653,-0.7016,-0.8057,-0.921,-0.9524,-0.9786,-1.0053,-1.0364,-1.0618,-1.0807,-1.0933,-1.1178,-1.149,-1.1685,-1.1872,-1.205,-1.2367,-1.256,-1.2744,-1.292,-1.3042,-1.3103,-1.3164,-1.3224,-1.3285,-1.345,-1.3571,-1.37,-1.383,-1.395,-1.4205,-1.48,-1.5442,-1.63,-1.7413,-1.7539,-1.7608,-1.7608,-1.7666,-1.7881,-1.8144,-1.8347,-1.8482,-1.8482,-1.8617,-1.8617,-1.8607,-1.8751,-1.8942,2.0688,2.1707,2.2616,2.2445,2.2765,2.3063,2.2783,2.2668,2.2617,2.2592,2.2372,2.2367,2.2534,2.2855,2.3003,2.2935,2.3162,2.3232,2.3135,2.2969,2.2639,2.236,2.1665,2.1023,2.0605,1.9928,1.9067,1.8115,1.748,1.6721,1.5708,1.4896,1.4122,1.3331,1.2592,1.1706,1.0663,0.9734,0.8841,0.7934,0.714,0.6405,0.5627,0.516,0.4628,0.4028,0.3558,0.309,0.2488,0.1816,0.1301,0.074,0.0062,-0.0535,-0.1122,-0.1682,-0.2184,-0.2629,-0.3132,-0.3691,-0.4304,-0.4857,-0.5534,-0.6237,-0.6598,-0.7437,-0.8436,-0.8888,-0.9215,-0.9536,-0.9849,-1.011,-1.0308,-1.0491,-1.0807,-1.1059,-1.1185,-1.1428,-1.1677,-1.1934,-1.212,-1.2313,-1.2436,-1.2613,-1.2736,-1.2805,-1.2867,-1.2981,-1.3155,-1.3216,-1.3338,-1.3407,-1.3528,-1.3743,-1.4301,-1.4718,-1.5438,-1.6646,-1.7014,-1.7185,-1.7185,-1.7401,-1.7608,-1.7745,-1.794,-1.8008,-1.8008,-1.8212,-1.8279,-1.8279,-1.8414,-1.8617,1.9736,2.0787,2.1844,2.1945,2.2269,2.2571,2.2616,2.2327,2.2085,2.2298,2.2216,2.2281,2.269,2.2814,2.2886,2.3173,2.3232,2.3232,2.3232,2.2999,2.2746,2.2388,2.1726,2.1119,2.0766,2.0061,1.9453,1.8727,1.8004,1.7155,1.6195,1.5433,1.4689,1.3977,1.3331,1.2352,1.1051,0.9952,0.9134,0.8449,0.7513,0.6658,0.602,0.5627,0.5096,0.4431,0.0,0.0,0.3023,0.2285,0.169,0.117,0.0494,-0.0119,-0.0673,-0.129,-0.1738,-0.2183,-0.274,-0.3408,-0.4138,-0.447,-0.5132,-0.5824,-0.6173,-0.6751,-0.7461,-0.8057,-0.8571,-0.8947,-0.9332,-0.9536,-0.9734,-1.011,-1.0268,-1.0488,-1.0613,-1.0822,-1.1098,-1.129,-1.1512,-1.1673,-1.1858,-1.2089,-1.2305,-1.2436,-1.2621,-1.2744,-1.2867,-1.2858,-1.292,-1.2928,-1.2989,-1.3235,-1.3856,-1.4004,-1.4431,-1.5402,-1.6278,-1.6775,-1.683,-1.7185,-1.7392,-1.7392,-1.7392,-1.747,-1.7461,-1.7735,-1.794,-1.794,-1.8212,-1.8347,1.8875,1.9812,2.0762,2.128,2.202,2.2616,2.2241,2.2025,2.1932,2.2063,2.2151,2.2337,2.275,2.2965,2.3153,2.3406,2.358,2.3667,2.3667,2.3348,2.3098,2.3038,2.2217,2.161,2.1391,2.0585,1.9703,1.8741,1.8117,1.735,1.6316,1.5743,1.5141,1.4497,1.376,1.2977,1.2009,1.0743,0.9564,0.8575,0.7933,0.7261,0.6544,0.6086,0.5491,0.4957,0.0,0.3894,0.3353,0.282,0.2209,0.1602,0.0925,0.0356,-0.0168,-0.0785,-0.129,-0.1796,-0.2629,-0.3186,-0.358,-0.3968,-0.4548,-0.5207,-0.5446,-0.5998,-0.6679,-0.7012,-0.7722,-0.8431,-0.8829,-0.9022,-0.921,-0.9524,-0.9606,-0.9684,-0.9942,-0.9927,-0.9858,-1.0172,-1.0559,-1.0916,-1.1037,-1.15,-1.1872,-1.1934,-1.2058,-1.2182,-1.2251,-1.2367,-1.249,-1.2621,-1.2744,-1.2952,-1.3124,-1.3468,-1.3755,-1.3928,-1.5248,-1.6133,-1.6403,-1.6612,-1.6751,-1.6751,-1.7097,-1.7235,-1.7235,-1.7461,-1.7608,-1.7608,-1.7608,-1.7735,1.7988,1.8964,1.9991,2.0288,2.1272,2.2111,2.1807,2.2004,2.2226,2.2441,2.2727,2.3016,2.3288,2.3441,2.3493,2.3667,2.3851,2.4024,2.4024,2.3724,2.3431,2.3196,2.2574,2.1893,2.1339,2.0848,2.0102,1.9056,1.8547,1.7816,1.6848,1.6272,1.5638,1.507,1.4159,1.3256,1.2386,1.1263,1.0101,0.9058,0.8261,0.7555,0.6937,0.6416,0.5885,0.5352,0.0,0.4425,0.3892,0.3355,0.2792,0.2157,0.1603,0.095,0.028,-0.0561,-0.1178,-0.1684,-0.2296,-0.2796,-0.3186,-0.3408,-0.4035,-0.468,-0.4941,-0.5498,-0.6096,-0.6523,-0.7199,-0.7912,-0.8247,-0.8436,-0.8689,-0.9017,-0.908,-0.9076,-0.9328,-0.9285,-0.9318,-0.9557,-0.9838,-1.0164,-1.0569,-1.0838,-1.1171,-1.1469,-1.1615,-1.1747,-1.1934,-1.1996,-1.212,-1.2313,-1.2375,-1.249,-1.2613,-1.2889,-1.341,-1.4329,-1.5093,-1.5738,-1.6184,-1.6342,-1.6403,-1.6403,-1.6621,-1.6682,-1.6682,-1.6899,-1.7038,-1.7038,-1.7116,-1.7185,1.7166,1.826,1.9423,1.9423,2.0606,2.1655,2.1512,2.2015,2.2467,2.2757,2.3124,2.3487,2.3846,2.4013,2.41,2.41,2.4272,2.4498,2.432,2.4148,2.3761,2.3391,2.2746,2.2109,2.1408,2.099,2.037,1.9543,1.8964,1.827,1.7529,1.689,1.6228,1.5581,1.4592,1.3553,1.2602,1.1626,1.056,0.9501,0.8587,0.7922,0.74,0.6811,0.628,0.5749,0.5352,0.4957,0.4431,0.3892,0.3312,0.2713,0.2156,0.1425,0.0561,-0.0336,-0.101,-0.1458,-0.1849,-0.2294,-0.2738,-0.2907,-0.3486,-0.4121,-0.4405,-0.4924,-0.5537,-0.599,-0.6576,-0.726,-0.7722,-0.7917,-0.8091,-0.8436,-0.8498,-0.8426,-0.8607,-0.8628,-0.8667,-0.889,-0.9119,-0.9408,-0.9873,-1.0147,-1.0438,-1.0912,-1.1073,-1.1303,-1.1553,-1.1615,-1.1677,-1.1872,-1.1934,-1.2058,-1.2243,-1.2375,-1.306,-1.4354,-1.4841,-1.5232,-1.5644,-1.5817,-1.5931,-1.5931,-1.6018,-1.6132,-1.6132,-1.6333,-1.6394,-1.6394,-1.6542,-1.6691,1.6533,1.7692,1.8839,1.9004,2.0317,2.1512,2.1502,2.1859,2.2308,2.2757,2.3041,2.3422,2.4029,2.4529,2.4861,2.4861,2.5115,2.5219,2.4802,2.4551,2.4211,2.3688,2.2809,2.2223,2.2147,2.1183,2.0439,2.026,1.9297,1.8637,1.8269,1.751,1.6725,1.581,1.501,1.3985,1.2607,1.1855,1.092,0.9765,0.9104,0.8441,0.7922,0.7396,0.6876,0.6284,0.5815,0.5352,0.4954,0.4292,0.3702,0.3202,0.2528,0.1603,0.0617,0.0112,-0.0336,-0.0842,-0.1234,-0.1681,-0.2127,-0.2464,-0.2976,-0.3526,-0.3765,-0.4296,-0.4817,-0.5209,-0.5639,-0.6218,-0.7073,-0.7396,-0.7603,-0.7714,-0.769,-0.765,-0.7772,-0.7594,-0.7524,-0.7782,-0.8147,-0.8552,-0.8683,-0.9408,-0.9951,-0.9971,-1.0505,-1.0863,-1.0863,-1.1059,-1.1185,-1.1373,-1.1498,-1.1747,-1.2058,-1.2127,-1.2288,-1.2744,-1.3729,-1.433,-1.4347,-1.4612,-1.4794,-1.4794,-1.5329,-1.5568,-1.5568,-1.5771,-1.5833,-1.5833,-1.5833,-1.5982,1.5974,1.7342,1.8627,1.8912,2.0157,2.1282,2.1282,2.2152,2.3047,2.3223,2.3836,2.4577,2.4914,2.5295,2.5549,2.5549,2.5539,2.5595,2.5348,2.5027,2.4664,2.4495,2.3531,2.2812,2.2567,2.171,2.0986,2.049,1.9822,1.9128,1.8389,1.7644,1.6855,1.5862,1.4959,1.4053,1.3204,1.2348,1.1425,1.0618,0.9594,0.8829,0.8317,0.7731,0.7269,0.6876,0.6346,0.5818,0.5352,0.4888,0.428,0.3493,0.2477,0.1775,0.1178,0.0617,0.0112,-0.0336,-0.0617,-0.1121,-0.1625,-0.185,-0.2261,-0.2748,-0.321,-0.3582,-0.403,-0.4596,-0.4974,-0.5378,-0.6424,-0.6789,-0.6867,-0.7163,-0.701,-0.6919,-0.7115,-0.7091,-0.709,-0.73,-0.7546,-0.7825,-0.8255,-0.8707,-0.9131,-0.9541,-0.9931,-1.0244,-1.0428,-1.0555,-1.0681,-1.0933,-1.1185,-1.1373,-1.1553,-1.1622,-1.1737,-1.1989,-1.2899,-1.3517,-1.3717,-1.3929,-1.4077,-1.4077,-1.4274,-1.4408,-1.4408,-1.4698,-1.4874,-1.4944,-1.5105,-1.5355,1.548,1.6982,1.8406,1.8893,2.0157,2.1359,2.1436,2.2486,2.3398,2.3625,2.4705,2.5611,2.5779,2.592,2.6068,2.6151,2.597,2.5814,2.5734,2.5436,2.5168,2.4842,2.399,2.327,2.2814,2.2105,2.1392,2.0762,2.0198,1.9468,1.8491,1.7762,1.6934,1.6021,1.5042,1.4221,1.3593,1.2663,1.1872,1.1178,1.0231,0.9402,0.8641,0.8187,0.7727,0.7265,0.6745,0.6284,0.5818,0.5355,0.4662,0.3727,0.2697,0.2073,0.1738,0.1178,0.0673,0.0224,-0.0056,-0.0505,-0.1066,-0.1291,-0.1626,-0.2024,-0.2644,-0.2973,-0.3306,-0.3974,-0.433,-0.4713,-0.5545,-0.5966,-0.6237,-0.6415,-0.6379,-0.6335,-0.6497,-0.6598,-0.6717,-0.6869,-0.7036,-0.7312,-0.7743,-0.8109,-0.851,-0.892,-0.9375,-0.9734,-0.9983,-1.0053,-1.0238,-1.0618,-1.0744,-1.0933,-1.1059,-1.1052,-1.1185,-1.131,-1.1899,-1.2444,-1.2795,-1.3041,-1.317,-1.317,-1.3279,-1.3333,-1.3333,-1.3643,-1.3876,-1.4047,-1.4371,-1.468,1.5213,1.6683,1.8082,1.882,2.0222,2.1578,2.2025,2.2622,2.3321,2.3996,2.5418,2.6517,2.6517,2.6438,2.6507,2.6665,2.6457,2.6083,2.5725,2.5959,2.5733,2.465,2.4049,2.352,2.2927,2.2324,2.1602,2.0983,2.0427,1.9638,1.8676,1.7996,1.7124,1.6135,1.5454,1.4585,1.3511,1.285,1.2174,1.1483,1.1052,1.0168,0.9017,0.8641,0.8117,0.7461,0.7073,0.6683,0.6354,0.569,0.4794,0.3727,0.3154,0.2629,0.2184,0.1738,0.1291,0.0842,0.0505,0.0056,-0.0449,-0.0785,-0.1066,-0.1402,-0.2017,-0.2407,-0.2706,-0.3233,-0.3662,-0.4055,-0.4418,-0.5086,-0.5652,-0.5595,-0.5719,-0.5897,-0.5991,-0.6119,-0.6228,-0.6381,-0.6657,-0.6879,-0.6879,-0.754,-0.8091,-0.8091,-0.8753,-0.9268,-0.9274,-0.96,-0.9926,-1.0244,-1.0301,-1.0371,-1.0561,-1.0561,-1.0618,-1.0807,-1.08,-1.1052,-1.156,-1.1939,-1.2108,-1.2108,-1.2424,-1.2593,-1.2593,-1.2803,-1.3029,-1.3329,-1.3499,-1.3901,1.4617,1.6375,1.8082,1.8902,2.0307,2.1655,2.2402,2.308,2.3787,2.4715,2.5665,2.6262,2.6286,2.6469,2.6747,2.6912,2.6683,2.6493,2.6565,2.6045,2.5661,2.5423,2.4499,2.3827,2.3804,2.275,2.1895,2.1546,2.0701,1.9796,1.8838,1.8222,1.7301,1.6153,1.5487,1.4777,1.3881,1.3164,1.2552,1.1934,1.131,1.0491,0.9542,0.9087,0.8635,0.8187,0.7591,0.7199,0.6854,0.5702,0.4931,0.4336,0.3558,0.3077,0.274,0.224,0.1793,0.1456,0.1065,0.0561,0.0112,-0.028,-0.0617,-0.0954,-0.1402,-0.1808,-0.2107,-0.2444,-0.2858,-0.328,-0.3452,-0.3909,-0.4495,-0.5074,-0.5288,-0.5353,-0.547,-0.5622,-0.5841,-0.6055,-0.6218,-0.6277,-0.6376,-0.6834,-0.7312,-0.7596,-0.7998,-0.8439,-0.8871,-0.9215,-0.9472,-0.9594,-0.9652,-0.9849,-0.9989,-1.0053,-1.0117,-1.0238,-1.0238,-1.0555,-1.1247,-1.134,-1.139,-1.139,-1.1482,-1.1525,-1.1532,-1.1811,-1.215,-1.2596,-1.2906,-1.3334,1.4171,1.5892,1.7669,1.88,2.0326,2.1795,2.3106,2.3899,2.4487,2.5314,2.613,2.6649,2.6673,2.688,2.7176,2.7335,2.7067,2.6829,2.6766,2.6375,2.5973,2.5563,2.4846,2.4269,2.3893,2.3005,2.2191,2.1581,2.077,1.9909,1.8899,1.8306,1.7483,1.641,1.5816,1.5118,1.4369,1.3709,1.3103,1.2428,1.1809,1.1059,1.0308,0.953,0.9017,0.8576,0.7852,0.733,0.6976,0.5906,0.5275,0.4877,0.4071,0.3577,0.3297,0.274,0.235,0.2015,0.1625,0.1177,0.0673,0.028,-0.0056,-0.0393,-0.0842,-0.1234,-0.1572,-0.1906,-0.2294,-0.2685,-0.291,-0.3244,-0.3705,-0.4402,-0.4752,-0.4904,-0.5022,-0.5238,-0.5458,-0.5618,-0.5673,-0.5778,-0.5941,-0.6276,-0.663,-0.6929,-0.7451,-0.7923,-0.8415,-0.8694,-0.8888,-0.8958,-0.9081,-0.921,-0.9414,-0.9414,-0.9478,-0.9728,-0.9728,-0.9913,-1.0421,-1.0611,-1.0681,-1.0681,-1.0681,-1.0681,-1.0681,-1.0928,-1.1293,-1.1847,-1.2103,-1.2565,1.3803,1.5371,1.6998,1.8613,2.0232,2.2037,2.4074,2.4912,2.5374,2.5765,2.6639,2.7336,2.7336,2.7448,2.7615,2.778,2.7472,2.7103,2.6764,2.6749,2.6426,2.5342,2.517,2.4707,2.3596,2.3171,2.248,2.1247,2.0668,1.9924,1.8928,1.829,1.7634,1.6874,1.6285,1.5652,1.5029,1.4369,1.3709,1.305,1.2428,1.1809,1.1122,1.0034,0.9274,0.877,0.7917,0.7321,0.6889,0.6216,0.5751,0.5333,0.4579,0.4079,0.3796,0.3352,0.291,0.2521,0.2183,0.1737,0.129,0.0898,0.0505,0.0168,-0.0224,-0.0673,-0.1122,-0.1403,-0.1794,-0.2184,-0.2523,-0.28,-0.3186,-0.3744,-0.4187,-0.4463,-0.4632,-0.4853,-0.5018,-0.5014,-0.512,-0.5281,-0.5508,-0.5763,-0.605,-0.6297,-0.6945,-0.7535,-0.7862,-0.8032,-0.8177,-0.8382,-0.8452,-0.8511,-0.8705,-0.877,-0.8894,-0.921,-0.921,-0.9274,-0.939,-0.9786,-0.9983,-0.9983,-0.9983,-0.9983,-0.9983,-1.011,-1.0523,-1.1123,-1.1279,-1.1724,1.3084,1.4775,1.6538,1.7803,2.0257,2.275,2.4316,2.5183,2.5788,2.5871,2.6494,2.7056,2.7056,2.7433,2.776,2.7894,2.7603,2.7357,2.735,2.6729,2.6231,2.6089,2.5524,2.4953,2.4341,2.3406,2.2458,2.1616,2.0668,1.9858,1.9328,1.8774,1.8116,1.7357,1.674,1.6104,1.5303,1.4715,1.4052,1.339,1.2728,1.2182,1.1615,1.0611,0.9664,0.877,0.8447,0.7827,0.7079,0.6712,0.6155,0.5529,0.4979,0.457,0.4294,0.3796,0.3466,0.3135,0.2575,0.2128,0.1792,0.1346,0.0898,0.0561,0.028,-0.0112,-0.0617,-0.0842,-0.1178,-0.157,-0.1908,-0.2186,-0.2517,-0.2912,-0.3466,-0.3962,-0.4132,-0.4301,-0.4467,-0.4574,-0.4629,-0.4739,-0.4853,-0.5045,-0.5334,-0.5764,-0.6401,-0.6917,-0.6962,-0.7357,-0.7652,-0.7722,-0.7792,-0.7927,-0.8182,-0.8242,-0.8436,-0.8641,-0.8641,-0.8705,-0.87,-0.9274,-0.9588,-0.9588,-0.9588,-0.9588,-0.9588,-0.9646,-0.9953,-1.0428,-1.0641,-1.1058,1.2425,1.4141,1.6071,1.8184,2.0586,2.2702,2.3862,2.4759,2.5448,2.5649,2.6534,2.731,2.7443,2.7682,2.7884,2.7998,2.7762,2.7454,2.7272,2.681,2.6468,2.6232,2.5869,2.5312,2.4473,2.3705,2.2782,2.1753,2.0843,2.0169,1.9708,1.9186,1.8494,1.7744,1.7134,1.6446,1.5642,1.5069,1.4419,1.3761,1.3033,1.2367,1.1685,1.0611,0.9792,0.9081,0.8705,0.8249,0.7795,0.7091,0.6598,0.6119,0.539,0.4959,0.4739,0.4294,0.3907,0.3522,0.3079,0.2687,0.224,0.1849,0.1457,0.1066,0.0842,0.0393,-0.0056,-0.0393,-0.0673,-0.0954,-0.1459,-0.1682,-0.1849,-0.2296,-0.2907,-0.3519,-0.3691,-0.3805,-0.3971,-0.4024,-0.4079,-0.4135,-0.4356,-0.4574,-0.4845,-0.5186,-0.5652,-0.6014,-0.6186,-0.6608,-0.6897,-0.6994,-0.7134,-0.7269,-0.7466,-0.7657,-0.7787,-0.7987,-0.8052,-0.8052,-0.8052,-0.8436,-0.8759,-0.9017,-0.9017,-0.9081,-0.9145,-0.9145,-0.9409,-0.9801,-1.0069,-1.0478,1.1755,1.3578,1.5822,1.8963,2.0838,2.2207,2.3258,2.4198,2.4963,2.5484,2.6492,2.742,2.7798,2.7854,2.7913,2.8055,2.7869,2.7482,2.7004,2.7002,2.6802,2.629,2.6119,2.5621,2.4519,2.3904,2.3073,2.1746,2.1153,2.061,2.0055,1.954,1.8869,1.8061,1.7457,1.6786,1.6046,1.5488,1.4843,1.413,1.3407,1.2552,1.1622,1.0681,0.9977,0.9524,0.8958,0.8619,0.8356,0.7426,0.6997,0.6747,0.5815,0.5352,0.5073,0.4739,0.4298,0.3907,0.358,0.319,0.2745,0.2408,0.2017,0.1628,0.1347,0.0898,0.0449,0.0056,-0.0168,-0.0393,-0.101,-0.1122,-0.129,-0.1736,-0.235,-0.2852,-0.319,-0.336,-0.3471,-0.3471,-0.3471,-0.358,-0.3802,-0.4132,-0.4396,-0.4518,-0.4789,-0.5129,-0.5395,-0.5767,-0.6042,-0.6155,-0.6367,-0.6576,-0.6745,-0.6942,-0.7134,-0.733,-0.7326,-0.733,-0.733,-0.7461,-0.7727,-0.8187,-0.8317,-0.8511,-0.8641,-0.8641,-0.8864,-0.9197,-0.957,-0.9961,1.0932,1.3476,1.6447,1.8755,2.0296,2.161,2.3164,2.4198,2.4963,2.5623,2.6241,2.6706,2.7074,2.7488,2.7788,2.808,2.7811,2.7549,2.7573,2.7258,2.6986,2.6899,2.6389,2.5697,2.4921,2.394,2.2929,2.1848,2.1277,2.0736,2.0169,1.9668,1.9093,1.8506,1.7909,1.7312,1.6694,1.6056,1.5478,1.4852,1.3588,1.2674,1.2003,1.131,1.0555,0.9919,0.9524,0.8954,0.824,0.7848,0.7267,0.6611,0.6211,0.5736,0.5242,0.5073,0.4739,0.4349,0.4021,0.3635,0.3246,0.2907,0.2517,0.2073,0.1796,0.1459,0.1122,0.0673,0.0449,0.0168,-0.0393,-0.0505,-0.0673,-0.1234,-0.1458,-0.1738,-0.2465,-0.2747,-0.2802,-0.2802,-0.3023,-0.3188,-0.3186,-0.3524,-0.3699,-0.3716,-0.4146,-0.4461,-0.45,-0.4853,-0.5239,-0.5336,-0.5672,-0.586,-0.6009,-0.635,-0.6548,-0.6548,-0.6548,-0.6613,-0.6806,-0.6806,-0.6937,-0.7077,-0.7727,-0.8052,-0.8117,-0.8117,-0.8192,-0.8354,-0.907,-0.9438,1.1446,1.378,1.6044,1.7908,1.9401,2.072,2.2015,2.3038,2.3928,2.471,2.5262,2.5982,2.7065,2.7381,2.7499,2.7795,2.7646,2.7451,2.7504,2.7425,2.7284,2.7248,2.6621,2.5909,2.5102,2.4158,2.324,2.2226,2.1712,2.1215,2.0686,2.0131,1.9512,1.8827,1.8224,1.7567,1.6807,1.6218,1.541,1.4437,1.3467,1.2805,1.2375,1.1685,1.0996,1.0301,0.9716,0.9178,0.8678,0.8078,0.7486,0.6971,0.6418,0.6014,0.5736,0.5352,0.5073,0.4794,0.4408,0.4021,0.3691,0.3413,0.3021,0.2631,0.2298,0.2018,0.1681,0.1178,0.0954,0.0785,0.0224,0.0056,-0.0112,-0.0673,-0.0785,-0.0953,-0.1513,-0.1905,-0.2184,-0.2184,-0.2408,-0.2573,-0.2573,-0.2856,-0.3081,-0.3081,-0.3396,-0.3675,-0.3804,-0.4095,-0.436,-0.4497,-0.4895,-0.5162,-0.5226,-0.5574,-0.5822,-0.5822,-0.5888,-0.6013,-0.6079,-0.628,-0.6478,-0.6482,-0.7073,-0.7466,-0.7526,-0.7526,-0.7661,-0.7927,-0.8516,-0.8865,1.1668,1.3643,1.5296,1.7001,1.8489,1.989,2.1008,2.2025,2.3005,2.3826,2.4536,2.539,2.6858,2.7046,2.7135,2.753,2.7491,2.7437,2.7503,2.764,2.7675,2.7539,2.6758,2.5976,2.528,2.4312,2.3349,2.2491,2.2044,2.1568,2.1033,2.0485,1.9862,1.9093,1.8536,1.7831,1.7043,1.6275,1.5352,1.4249,1.3588,1.3042,1.2683,1.2003,1.1435,1.0807,1.0098,0.9499,0.9046,0.8371,0.7777,0.7316,0.6694,0.6337,0.6123,0.5681,0.5352,0.5128,0.4798,0.4463,0.4079,0.386,0.3524,0.3132,0.2742,0.2519,0.224,0.1682,0.1459,0.1291,0.0785,0.0617,0.0449,-0.0056,-0.0224,-0.0336,-0.0785,-0.1232,-0.1568,-0.1568,-0.1792,-0.1961,-0.1961,-0.224,-0.2465,-0.2465,-0.2687,-0.2934,-0.3067,-0.3364,-0.3582,-0.3696,-0.4095,-0.4364,-0.4429,-0.4851,-0.5124,-0.509,-0.5289,-0.5352,-0.5418,-0.5749,-0.5947,-0.6017,-0.635,-0.6679,-0.7007,-0.7068,-0.7204,-0.7475,-0.7965,-0.8306,1.1007,1.2764,1.4506,1.6201,1.7852,1.9344,2.0624,2.1702,2.2677,2.3623,2.435,2.5018,2.5813,2.6275,2.6674,2.7174,2.7452,2.7625,2.774,2.7905,2.7955,2.797,2.6678,2.577,2.5615,2.4117,2.2992,2.2615,2.2091,2.1568,2.1033,2.0485,1.9926,1.942,1.8881,1.829,1.7656,1.6503,1.5594,1.4911,1.4249,1.3588,1.2989,1.2367,1.1872,1.1498,1.0807,1.0013,0.9108,0.8848,0.8242,0.7367,0.7127,0.6712,0.6178,0.6178,0.5791,0.5297,0.5242,0.4908,0.4463,0.4245,0.3916,0.3527,0.3188,0.291,0.2577,0.224,0.1962,0.1685,0.1347,0.1178,0.0954,0.0449,0.0336,0.0112,-0.0729,-0.0898,-0.0953,-0.0953,-0.1178,-0.1346,-0.1346,-0.1624,-0.1846,-0.1846,-0.2071,-0.224,-0.2245,-0.2527,-0.2786,-0.2932,-0.3243,-0.3568,-0.371,-0.4057,-0.4302,-0.4348,-0.4556,-0.4694,-0.4831,-0.5024,-0.5223,-0.5428,-0.5495,-0.5822,-0.642,-0.6613,-0.6741,-0.6749,-0.7476,-0.7801,1.0265,1.1816,1.3571,1.5367,1.7033,1.8536,2.0031,2.1175,2.2175,2.3339,2.406,2.4694,2.5412,2.6122,2.6736,2.7115,2.759,2.7855,2.7905,2.8118,2.8201,2.8152,2.7218,2.63,2.5644,2.4532,2.3551,2.2752,2.231,2.1793,2.1277,2.0772,2.0169,1.9565,1.8999,1.8193,1.7145,1.6332,1.5594,1.497,1.4309,1.37,1.3155,1.2674,1.2189,1.167,1.1157,1.0342,0.9466,0.8964,0.8372,0.7706,0.7285,0.6977,0.6712,0.6337,0.6069,0.5845,0.5407,0.5187,0.4963,0.4632,0.4356,0.4132,0.3799,0.3469,0.3193,0.2854,0.2575,0.23,0.1962,0.1793,0.1569,0.1066,0.0898,0.0729,0.0336,-0.0056,-0.0336,-0.0336,-0.0561,-0.0729,-0.0729,-0.1009,-0.1232,-0.1232,-0.1457,-0.1625,-0.1625,-0.1905,-0.2193,-0.2331,-0.2613,-0.2811,-0.3051,-0.331,-0.3584,-0.3754,-0.3959,-0.4159,-0.4295,-0.4489,-0.4619,-0.4688,-0.4824,-0.5223,-0.5881,-0.5947,-0.6145,-0.6416,-0.6847,-0.7229,0.9362,1.0926,1.2631,1.4363,1.6062,1.7658,1.9233,2.0398,2.1479,2.2725,2.3577,2.4279,2.5007,2.5851,2.6592,2.7078,2.7539,2.7905,2.8005,2.8201,2.8299,2.8186,2.7479,2.6652,2.5753,2.4847,2.386,2.2843,2.2402,2.1996,2.1423,2.0908,2.0308,1.95,1.8893,1.803,1.692,1.6343,1.571,1.5137,1.4547,1.4001,1.345,1.2981,1.2427,1.1867,1.1346,1.054,0.9673,0.917,0.8521,0.7848,0.7521,0.7246,0.7031,0.6657,0.6391,0.6123,0.5736,0.5462,0.5246,0.4967,0.4743,0.4519,0.4242,0.3968,0.3694,0.3411,0.3077,0.28,0.2575,0.235,0.2073,0.1682,0.1514,0.1345,0.1233,0.0728,0.028,0.028,0.0056,-0.0112,-0.0112,-0.0393,-0.0617,-0.0617,-0.0842,-0.101,-0.101,-0.1288,-0.1568,-0.168,-0.1885,-0.211,-0.2357,-0.2618,-0.2829,-0.3111,-0.334,-0.3489,-0.3625,-0.3823,-0.3956,-0.4025,-0.4161,-0.4492,-0.5087,-0.5286,-0.555,-0.5822,-0.622,-0.6645,0.0,0.0,0.0,1.3259,1.498,1.6609,1.8123,1.9378,2.0546,2.1768,2.2822,2.3787,2.4553,2.5314,2.6111,2.6846,2.7335,2.769,2.7955,2.8103,2.8186,2.8186,2.7494,2.6682,2.5878,2.4893,2.3921,2.2992,2.2449,2.1996,2.1423,2.1006,2.0295,1.9239,1.8506,1.781,1.719,1.6637,1.5999,1.541,1.4951,1.4419,1.3769,1.3285,1.2663,1.196,1.1361,1.0585,0.9704,0.9359,0.8683,0.7901,0.7901,0.7574,0.7139,0.7085,0.6712,0.6232,0.6232,0.5795,0.5297,0.5301,0.5022,0.4688,0.4574,0.4298,0.3965,0.3852,0.3463,0.313,0.313,0.2798,0.2465,0.2296,0.2127,0.2015,0.1846,0.1344,0.0954,0.0954,0.0673,0.0449,0.0449,0.0224,0.0,0.0,-0.0224,-0.0393,-0.0393,-0.0673,-0.0954,-0.1066,-0.1178,-0.1365,-0.1641,-0.1876,-0.2061,-0.2383,-0.2581,-0.2753,-0.2956,-0.3092,-0.3295,-0.3498,-0.3498,-0.3629,-0.3961,-0.4691,-0.5087,-0.5093,-0.559,-0.618,0.7698,0.0,0.0,0.0,0.0,0.0,1.6365,1.765,1.8949,2.0408,2.1404,2.2421,2.3781,2.461,2.5314,2.6056,2.6907,2.7539,2.769,2.789,2.8054,2.8054,2.7773,2.7052,2.5751,2.5263,2.4405,0.0,2.2402,2.1996,2.1568,2.0822,2.0067,1.9356,1.8774,1.8182,1.759,1.6976,1.6343,1.5758,1.5186,1.4606,1.395,1.3519,1.2827,1.2003,1.1576,1.0876,0.9959,0.9432,0.8963,0.8487,0.8062,0.7794,0.7628,0.7246,0.6977,0.6761,0.6337,0.6064,0.59,0.574,0.5407,0.5132,0.5077,0.4798,0.4467,0.4353,0.4021,0.3688,0.3524,0.3302,0.3079,0.291,0.274,0.2627,0.2464,0.2298,0.2074,0.1624,0.1289,0.1066,0.1066,0.0842,0.0673,0.0673,0.0393,0.0168,0.0168,-0.0056,-0.0336,-0.0561,-0.0617,-0.0796,-0.1175,-0.1273,-0.1437,-0.1802,-0.1853,-0.2084,-0.2421,-0.2488,-0.2557,-0.2691,-0.2824,-0.3023,-0.3291,-0.3959,-0.4359,-0.4558,-0.517,-0.5685,0.6934,0.8223,0.9522,1.1,0.0,0.0,1.4941,1.6198,1.7481,1.8931,1.9901,2.089,2.2205,2.3031,2.3801,2.4847,2.57,2.6535,2.7327,2.759,2.7705,2.7755,2.7705,2.7066,2.5577,2.5236,2.444,2.2841,2.2356,2.1902,2.1375,2.0586,1.9926,1.9525,1.8934,1.8302,1.7711,1.7088,1.6524,1.5874,1.5371,1.4784,1.4181,1.3821,1.3042,1.2077,1.1696,1.0934,1.0013,0.9531,0.9166,0.8752,0.8434,0.8115,0.7848,0.7574,0.73,0.7031,0.6712,0.6391,0.6178,0.6014,0.574,0.5521,0.5462,0.5187,0.4912,0.4794,0.4519,0.4245,0.4024,0.3858,0.3691,0.3522,0.3352,0.3241,0.3079,0.3081,0.2914,0.2294,0.1905,0.1682,0.1682,0.1457,0.1233,0.1178,0.0954,0.0729,0.0673,0.0505,0.028,-0.0056,-0.0056,-0.0226,-0.0576,-0.0595,-0.0736,-0.1137,-0.1172,-0.133,-0.1748,-0.1748,-0.1817,-0.2085,-0.2151,-0.2353,-0.269,-0.336,-0.378,-0.4097,-0.4629,-0.5079,0.6237,0.7452,0.876,0.9924,1.1191,0.0,1.3629,1.4848,1.6012,1.7266,1.8315,1.9292,2.0272,2.1094,2.201,2.3292,2.396,2.4959,2.6805,2.7115,2.7181,2.7284,2.7276,2.6692,2.5276,2.4907,2.4177,2.2749,2.2203,2.165,2.0983,2.0385,1.9926,1.9617,1.8987,1.8344,1.7767,1.7155,1.6513,1.5931,1.543,1.4961,1.4529,1.407,1.3225,1.2223,1.1768,1.0989,1.0051,0.9777,0.9309,0.8857,0.8804,0.8434,0.7955,0.7901,0.7574,0.7139,0.7139,0.6766,0.6282,0.6287,0.6069,0.585,0.5677,0.5517,0.5352,0.5183,0.4963,0.4743,0.4574,0.4411,0.4249,0.4079,0.3965,0.3855,0.3747,0.3694,0.3527,0.297,0.2575,0.2294,0.2294,0.2071,0.1847,0.174,0.1515,0.1346,0.1234,0.1065,0.0897,0.0561,0.0505,0.0393,0.0112,0.0116,-0.006,-0.037,-0.0445,-0.0654,-0.094,-0.1008,-0.1143,-0.148,-0.1547,-0.1748,-0.2087,-0.2757,-0.3267,-0.3622,-0.4087,-0.434,0.5783,0.6684,0.7655,0.8827,0.98,0.0,1.1765,1.2827,1.4031,1.5576,1.6558,1.7631,1.9222,2.0053,2.0836,2.186,2.2369,2.3501,2.5994,2.6525,2.6683,2.6841,2.6389,2.5791,2.4887,2.4288,2.3464,2.2366,2.1793,2.1313,2.0858,2.0523,2.0118,1.9617,1.9146,1.8614,1.803,1.7412,1.6797,1.6228,1.5652,1.5128,1.4656,1.4181,1.3401,1.2334,1.2064,1.1323,1.0368,1.0051,0.9629,0.9113,0.891,0.8593,0.8268,0.8008,0.7788,0.7563,0.7187,0.7031,0.6869,0.6652,0.6386,0.6123,0.6064,0.5905,0.5686,0.5513,0.5293,0.5018,0.5014,0.4798,0.4581,0.4577,0.4463,0.4349,0.4353,0.4298,0.4242,0.3971,0.3355,0.2907,0.2794,0.2631,0.2465,0.2354,0.2128,0.1961,0.1847,0.168,0.1512,0.1178,0.1122,0.101,0.0729,0.0752,0.0597,0.0246,0.0191,0.0065,-0.0201,-0.0202,-0.0403,-0.0739,-0.1008,-0.121,-0.1344,-0.2153,-0.2696,-0.2914,-0.3276,-0.3503,0.5318,0.6056,0.6939,0.7838,0.8658,0.0,0.0,1.1454,1.2552,1.39,1.4796,1.5752,1.7286,1.8074,1.884,2.0069,2.0674,2.1677,2.3593,2.4433,2.4976,2.5251,2.5032,2.4604,2.3942,2.3552,2.2907,2.1896,2.1471,2.1118,2.0709,2.0372,2.0029,1.9617,1.9146,1.8625,1.8096,1.7523,1.6909,1.6296,1.5778,1.5313,1.4834,1.4159,1.3398,1.25,1.2037,1.1321,1.047,1.0308,0.9888,0.9361,0.9113,0.885,0.8586,0.8268,0.8002,0.7783,0.7515,0.7241,0.7085,0.6923,0.6707,0.644,0.644,0.6228,0.5959,0.5841,0.5622,0.5462,0.5462,0.5293,0.5128,0.5128,0.5014,0.4897,0.4897,0.4846,0.4739,0.4574,0.4187,0.3796,0.3405,0.3246,0.3081,0.2854,0.2687,0.2573,0.2352,0.2296,0.2128,0.1793,0.1737,0.1625,0.1344,0.1366,0.1232,0.0922,0.0876,0.0772,0.0537,0.0538,0.0403,0.0,-0.0269,-0.047,-0.0538,-0.1143,-0.168,-0.2153,-0.2595,-0.2807,0.4822,0.5506,0.6345,0.7007,0.7743,0.8503,0.0,0.0,0.0,1.2389,1.3183,1.4016,1.5196,1.5938,1.6804,1.8159,1.8902,1.9665,2.0766,2.1796,2.2746,2.3575,2.3594,2.3381,2.2958,2.2769,2.2297,2.1415,2.1166,2.0921,2.056,2.0182,1.9823,1.9552,1.9052,1.8583,1.8084,1.7479,1.6909,1.6296,1.5904,1.5439,1.4961,1.4123,1.3381,1.2721,1.195,1.1209,1.0565,1.0522,1.0146,0.9666,0.9361,0.9061,0.8752,0.8533,0.8268,0.7955,0.7783,0.7509,0.7187,0.7192,0.6977,0.6756,0.6761,0.6549,0.6282,0.6164,0.6005,0.59,0.59,0.5841,0.5727,0.5727,0.5614,0.5445,0.5445,0.534,0.5234,0.5066,0.4959,0.4688,0.4018,0.3802,0.3638,0.3299,0.3241,0.3132,0.2914,0.2858,0.2689,0.2406,0.235,0.2238,0.2015,0.1959,0.1894,0.1642,0.1597,0.1515,0.1331,0.1274,0.1076,0.0739,0.0538,0.0403,0.0202,-0.0134,-0.0672,-0.1413,-0.1868,-0.2056,0.4498,0.5136,0.5879,0.6375,0.6967,0.7572,0.8473,0.0,1.0015,1.1017,0.0,1.281,1.3768,0.0,0.0,1.6239,1.7043,1.7745,1.8406,1.8947,2.0142,2.2538,2.2402,2.2156,2.2295,2.1758,2.1296,2.1046,2.0822,2.056,2.0283,1.9965,1.9656,1.9239,1.8946,1.8518,1.7897,1.749,1.6987,1.6296,1.5904,1.5439,1.4961,1.4239,1.3494,1.2831,1.2111,1.1419,1.082,1.0624,1.0257,0.9947,0.9673,0.9263,0.8804,0.8752,0.8487,0.8115,0.7955,0.7783,0.7616,0.7515,0.7246,0.7031,0.6928,0.6766,0.6647,0.6647,0.649,0.6327,0.6327,0.6213,0.6154,0.6154,0.61,0.6046,0.5946,0.5891,0.5837,0.5563,0.5513,0.5289,0.4574,0.4245,0.4082,0.391,0.3796,0.3688,0.3527,0.3416,0.3246,0.3019,0.2905,0.274,0.2633,0.2577,0.2561,0.2361,0.2308,0.2254,0.2071,0.1925,0.1681,0.148,0.1277,0.1143,0.0941,0.0605,0.0067,-0.0605,-0.1107,-0.1333,0.4225,0.4675,0.5238,0.5745,0.6192,0.6706,0.754,0.8172,0.8882,0.9831,0.0,0.0,0.0,0.0,0.0,0.0,1.5728,1.6368,1.6978,1.7523,1.8546,2.0572,2.0746,2.0772,2.1002,2.078,2.0573,2.0409,2.0308,2.0156,1.9875,1.9668,1.9408,1.9093,1.8732,1.8356,1.7897,1.7412,1.6909,1.6467,1.6019,1.5566,1.5069,1.4167,1.3442,1.2877,1.1983,1.137,1.0871,1.0769,1.0522,1.0162,0.994,0.9577,0.9106,0.891,0.8699,0.854,0.8268,0.8002,0.7788,0.7574,0.7413,0.7306,0.7252,0.7144,0.7036,0.7036,0.6923,0.6815,0.6815,0.6756,0.6701,0.6652,0.6598,0.6544,0.6436,0.6327,0.6218,0.6109,0.5996,0.5832,0.5449,0.5014,0.4684,0.4515,0.4408,0.4298,0.4135,0.3968,0.3802,0.3633,0.3519,0.3352,0.3249,0.3249,0.318,0.3051,0.2956,0.2947,0.2965,0.2739,0.2554,0.242,0.2217,0.2014,0.188,0.1344,0.1008,0.0672,-0.0136,-0.0552,0.4113,0.4401,0.4812,0.5183,0.5571,0.5954,0.6679,0.7265,0.7912,0.8689,0.9454,0.0,0.0,0.0,1.2818,1.3657,0.0,1.5157,1.5776,1.6404,1.7302,1.878,1.9331,1.9656,1.9875,1.9926,1.9914,1.9798,1.9786,1.9695,1.9448,1.9316,1.9158,1.8881,1.8518,1.8193,1.7854,1.729,1.6842,1.657,1.6134,1.5624,1.5186,1.4222,1.3506,1.2868,1.2078,1.1421,1.0972,1.0922,1.0667,1.0316,1.0162,0.9836,0.9472,0.9113,0.891,0.8752,0.8586,0.8321,0.8002,0.7788,0.7735,0.7681,0.7681,0.7574,0.7467,0.7419,0.7359,0.7246,0.7192,0.7192,0.7192,0.709,0.7041,0.7036,0.6869,0.6761,0.6657,0.6598,0.6485,0.6376,0.6277,0.5727,0.523,0.512,0.4959,0.4849,0.4736,0.4519,0.4356,0.4242,0.4073,0.3965,0.3858,0.386,0.3815,0.3738,0.366,0.3682,0.3816,0.3625,0.3424,0.3291,0.3088,0.2885,0.2683,0.2217,0.195,0.1882,0.0806,0.0204,0.4234,0.441,0.4723,0.48,0.51,0.5495,0.5892,0.6474,0.712,0.7642,0.8425,0.9268,0.9952,1.0766,1.1586,1.2266,1.3174,0.0,0.0,1.5255,1.6234,1.7788,1.8614,1.904,1.904,1.9251,1.9356,0.0,1.9239,1.9186,1.904,1.8893,1.8744,1.8614,1.8302,1.7975,1.7711,1.7245,1.6842,1.657,1.6134,1.5624,1.5205,1.4659,1.3839,1.2885,1.244,1.1835,1.1074,1.0972,1.0718,1.047,1.0316,1.0058,0.974,0.9465,0.9106,0.8804,0.8804,0.8593,0.8374,0.8368,0.8268,0.8168,0.8168,0.8049,0.7871,0.7723,0.767,0.767,0.7521,0.7467,0.7467,0.7467,0.7467,0.7467,0.7311,0.7257,0.7257,0.7085,0.6982,0.6879,0.6879,0.6273,0.5723,0.5618,0.5395,0.5281,0.5281,0.5062,0.4901,0.4901,0.4625,0.446,0.4463,0.4463,0.4475,0.4581,0.4421,0.4421,0.4547,0.4356,0.4156,0.3961,0.3825,0.3689,0.3487,0.3088,0.2889,0.2619,0.1545,0.0941,0.0,0.0,0.4484,0.464,0.4827,0.5096,0.5495,0.5888,0.6408,0.6933,0.7587,0.8231,0.8994,0.9761,1.0591,1.1351,1.2089,1.2826,0.0,1.4492,1.5429,1.6151,1.7168,1.7843,1.7941,1.8224,1.8387,1.8333,1.8441,0.0,1.8899,1.8923,1.8973,1.9149,1.8578,1.8171,1.7898,1.7183,1.6807,1.657,1.6134,1.5798,1.5488,1.4725,1.397,1.3104,1.2556,1.1895,1.1226,1.0972,1.0769,1.0616,1.0368,1.0213,1.0058,0.9673,0.9413,0.9159,0.9008,0.8804,0.8639,0.858,0.8421,0.8321,0.8321,0.8262,0.8203,0.8156,0.8156,0.8156,0.8103,0.8103,0.8049,0.8002,0.7955,0.7895,0.7723,0.7723,0.767,0.7664,0.7509,0.7408,0.7306,0.7036,0.6652,0.6218,0.5996,0.5882,0.5882,0.5664,0.55,0.55,0.5226,0.5007,0.5007,0.517,0.5339,0.5446,0.5432,0.5392,0.5481,0.5286,0.5087,0.496,0.4628,0.4425,0.4359,0.3892,0.3558,0.3422,0.2952,0.2216,0.4295,0.4364,0.0,0.4628,0.4761,0.0,0.5226,0.5557,0.5951,0.6412,0.6872,0.7456,0.8231,0.8871,0.9576,1.0345,1.1108,1.1919,0.0,1.3786,1.451,1.4883,1.6093,1.6888,1.6989,1.7335,1.7567,1.7567,1.7857,1.8216,0.0,1.8839,1.903,1.9298,1.8795,1.8364,1.8013,1.7316,1.6806,1.6524,1.6077,1.5798,1.5594,1.4927,1.4157,1.3277,1.2753,1.207,1.1326,1.1023,1.0871,1.0718,1.047,1.0316,1.0265,0.9836,0.9569,0.9361,0.9159,0.9008,0.8903,0.8844,0.8738,0.8685,0.8685,0.8685,0.8685,0.8633,0.8639,0.858,0.8533,0.8533,0.8533,0.8434,0.8434,0.8374,0.8256,0.8196,0.8143,0.8143,0.799,0.7836,0.7788,0.7628,0.7306,0.6761,0.6593,0.6534,0.6534,0.6263,0.61,0.61,0.5828,0.5605,0.5605,0.5845,0.6102,0.6229,0.6224,0.6281,0.628,0.6083,0.5951,0.576,0.5359,0.5163,0.5163,0.4694,0.4361,0.4159,0.4023,0.342]}]]